GFSCGP_sfc_thetae_000.txt.gz
Theta_e
307 299 295 298 300 300 300 297 295 298 303 298 298 299 300 301 301 302 301 302 303 304 307 308 309 310 309 310 312 316 318 322 324 324 325 326 326 326 327 329 329 329 328 326
302 295 300 303 304 302 299 296 295 299 302 298 298 298 299 300 299 300 301 302 304 305 306 307 309 310 310 311 311 312 315 319 322 324 325 326 327 328 329 330 330 330 329 328
297 298 304 305 301 300 298 295 296 296 299 301 297 296 296 300 302 303 304 305 305 305 306 307 308 309 310 311 311 313 313 314 320 322 324 324 325 325 324 326 327 328 329 329
298 302 303 301 300 300 294 300 300 299 295 290 297 287 293 298 300 301 301 303 304 304 306 307 308 308 309 311 313 313 313 313 315 319 321 321 320 320 323 324 325 327 328 329
295 298 299 299 300 301 298 302 298 297 293 292 293 289 292 298 297 300 301 303 304 304 305 306 308 310 311 311 310 311 312 313 314 313 313 315 320 321 323 324 323 323 325 329
298 302 301 301 302 302 302 297 297 295 292 286 289 289 289 295 298 300 302 303 305 305 305 307 309 310 309 310 310 309 309 309 310 313 316 315 313 314 316 317 318 319 321 323
296 296 297 300 296 298 297 292 287 285 285 286 290 288 291 297 301 302 302 303 304 305 304 305 306 307 308 308 308 309 309 308 309 309 309 309 311 315 317 318 319 319 320 321
292 289 296 299 297 295 294 293 289 284 285 286 291 287 293 299 301 302 304 305 305 304 304 305 306 306 306 308 308 309 309 309 309 309 308 308 308 309 311 313 314 316 318 321
294 292 298 299 298 296 295 292 294 291 291 287 291 294 297 299 298 299 301 304 303 303 303 304 305 306 306 306 307 308 308 308 309 308 308 308 308 308 307 308 308 310 311 313
299 291 297 297 298 296 292 295 289 291 283 281 288 289 290 294 295 298 300 301 303 304 304 304 305 306 306 306 307 307 308 308 308 308 308 309 309 309 309 308 307 308 308 309
301 298 294 296 294 293 292 291 291 290 289 284 282 287 295 296 298 297 300 303 303 302 303 304 304 305 306 306 306 306 306 307 307 308 308 307 308 309 309 308 309 309 309 309
301 298 292 293 296 299 295 293 294 287 286 287 284 286 298 298 300 302 302 304 302 303 304 304 304 305 305 305 306 305 305 305 306 307 307 307 308 308 307 307 308 309 309 310
302 297 290 290 293 296 294 296 295 294 293 289 284 286 298 298 300 302 301 302 302 303 303 304 303 304 303 304 306 305 305 306 307 307 307 307 306 306 306 307 308 309 308 308
303 296 292 288 290 294 292 295 296 293 288 288 290 291 296 298 299 300 299 302 301 302 302 301 301 300 301 302 304 305 305 306 306 306 305 304 305 304 304 305 305 306 306 306
301 293 294 294 295 294 293 293 294 293 294 288 292 293 297 298 299 301 301 301 301 301 301 300 300 299 300 302 304 304 304 303 301 301 302 302 303 303 302 302 302 303 304 304
298 291 291 289 293 291 290 292 292 293 294 294 294 293 300 301 299 300 298 301 301 300 300 300 300 299 301 301 302 301 300 299 300 298 299 301 300 300 300 300 300 301 301 302
294 291 288 284 290 290 286 291 292 293 294 293 289 295 299 297 300 300 300 300 301 299 298 298 299 301 300 299 299 296 296 296 297 296 297 297 296 295 296 297 297 297 297 297
293 291 290 285 287 279 292 297 297 294 296 296 296 297 298 299 300 300 300 298 300 298 298 299 298 298 297 297 296 294 293 293 293 293 292 293 293 292 293 293 293 293 294 294
293 291 286 284 285 289 293 296 294 292 292 297 296 297 298 299 296 296 300 299 298 298 298 297 296 295 294 293 291 291 290 290 290 289 289 290 290 290 290 290 290 290 291 292
295 292 288 282 280 281 291 296 299 296 286 298 298 298 298 296 289 292 297 300 298 299 299 295 293 293 291 289 289 287 287 286 285 286 286 287 288 288 287 288 288 288 290 290
288 288 285 285 283 288 297 297 298 286 289 298 299 299 299 294 294 296 298 298 297 295 294 294 293 289 287 287 286 284 283 282 284 285 285 285 286 286 286 286 287 287 287 288
289 286 285 287 283 280 298 297 291 296 298 299 300 298 295 296 298 298 297 295 294 293 292 290 288 286 285 285 283 281 280 283 284 284 284 284 284 285 285 284 285 285 285 285
286 292 289 291 289 298 298 297 300 299 299 298 298 298 298 298 297 296 294 293 293 291 288 286 285 284 283 284 282 280 281 283 283 283 282 283 283 283 284 283 283 283 284 284
293 297 292 292 293 295 298 301 297 297 296 297 297 297 297 296 295 295 293 292 291 288 285 284 283 282 281 282 282 281 282 282 282 281 281 282 282 283 283 283 283 283 282 283
293 295 293 292 296 298 299 298 296 295 294 294 294 295 295 294 292 291 291 290 286 285 283 283 281 281 280 280 280 281 282 282 281 281 281 281 282 281 281 282 282 282 284 286
295 293 290 290 295 295 296 297 294 294 294 294 292 289 291 292 291 291 289 286 284 282 282 281 280 279 279 279 280 281 282 282 280 280 280 281 281 281 281 281 281 286 288 289

GFSCGP_sfc_thetae_003.txt.gz
Theta_e
309 301 297 297 295 296 295 292 291 294 300 298 296 296 299 300 298 298 297 299 301 303 304 308 309 310 310 310 310 310 313 319 321 321 324 324 326 324 324 324 325 324 323 322
302 298 299 299 300 297 295 293 292 296 300 296 294 296 297 297 297 298 301 301 301 303 305 307 308 308 309 310 310 310 311 312 318 321 323 325 324 324 326 327 327 326 326 325
299 300 302 301 298 297 295 291 292 294 298 297 295 293 293 297 299 300 301 302 303 303 304 305 306 306 307 308 309 311 310 311 313 320 322 322 323 322 322 323 324 327 327 328
301 301 300 298 298 297 291 298 298 296 292 288 294 285 290 295 296 298 298 300 300 301 303 305 306 307 307 307 307 308 310 311 314 313 314 317 317 317 320 321 322 324 326 327
295 297 296 296 297 298 296 300 297 295 290 288 290 287 290 295 294 296 298 300 300 301 303 305 306 308 308 308 306 306 308 309 309 310 312 312 311 315 317 318 319 320 321 324
295 300 299 299 299 300 300 295 294 292 290 284 288 288 287 293 295 296 298 300 301 301 303 305 306 307 307 306 306 307 307 307 308 308 307 307 307 310 312 314 315 317 318 320
293 292 294 299 295 295 295 290 285 283 283 284 289 287 289 296 299 300 299 300 301 301 302 304 304 304 305 305 306 308 307 307 307 307 306 306 305 305 306 307 309 309 313 316
287 286 293 296 294 292 291 291 287 283 283 286 289 285 291 297 301 302 302 302 301 301 302 303 304 303 304 305 305 305 306 306 307 306 306 306 306 306 306 306 306 306 307 309
290 288 296 297 296 295 293 290 294 289 288 285 288 291 294 296 297 299 300 301 300 300 302 303 303 303 304 304 305 305 305 306 306 306 306 306 306 307 306 306 306 306 307 310
296 288 295 295 296 294 291 293 289 288 282 280 285 287 288 291 293 296 299 299 300 300 302 302 303 304 304 304 304 304 304 304 305 305 306 306 306 307 307 307 306 307 309 308
299 295 292 295 292 292 292 289 289 289 287 282 280 285 292 294 294 296 298 300 300 300 301 302 303 303 303 303 302 303 303 305 306 307 306 306 306 307 307 307 307 308 308 308
300 295 289 292 294 297 293 292 291 286 285 285 283 285 295 296 296 299 300 301 300 301 302 302 302 302 301 302 303 303 305 305 305 305 305 305 306 305 305 305 305 305 305 306
300 294 288 289 292 294 293 294 293 292 290 286 283 285 296 295 298 299 299 299 300 302 302 301 299 299 299 302 302 302 303 302 301 302 302 302 303 302 301 302 302 302 302 303
302 295 291 286 288 292 291 293 294 292 286 286 288 289 293 295 296 298 298 299 299 301 301 298 297 297 300 301 300 299 299 298 298 299 299 298 300 299 299 299 300 300 301 301
298 290 291 292 293 292 292 292 292 292 291 288 289 290 294 294 294 296 299 298 299 298 297 297 296 297 298 298 297 296 296 296 297 296 296 296 296 295 295 295 297 297 298 299
296 290 290 287 291 290 288 290 290 291 292 291 292 292 298 298 296 298 297 298 298 296 296 297 300 297 295 294 294 294 293 292 293 292 292 293 292 292 292 293 293 294 294 295
293 289 286 282 288 289 287 290 290 289 290 290 287 292 295 295 298 298 298 298 297 295 297 298 296 295 295 293 292 289 289 290 289 289 290 289 289 289 290 290 290 290 290 291
291 289 288 282 285 279 290 294 295 292 294 294 293 294 296 297 297 298 298 297 294 297 296 295 293 292 292 290 289 288 289 287 287 287 285 286 286 286 287 287 287 287 288 288
291 289 284 282 282 287 291 293 292 291 291 294 293 295 297 296 294 292 297 297 296 295 295 293 292 291 289 288 287 286 285 284 284 283 283 284 284 284 285 284 284 285 286 286
292 290 286 277 278 279 289 293 296 294 286 296 296 296 296 295 291 291 296 297 297 297 295 293 291 291 288 286 284 283 282 280 280 282 283 283 284 283 283 283 283 284 284 285
285 285 283 283 281 285 293 295 296 284 286 297 298 298 298 294 294 294 296 295 294 293 292 291 289 286 284 283 281 280 280 279 281 283 283 283 283 282 283 283 283 283 283 283
286 282 283 284 280 279 295 295 290 293 295 296 296 299 297 297 297 296 294 292 292 291 289 288 286 283 283 282 280 279 278 280 281 282 282 282 282 283 283 282 282 282 282 281
285 289 288 288 286 294 295 295 295 296 295 293 293 295 296 296 296 295 293 292 291 289 287 285 282 281 282 281 280 278 279 280 281 280 280 281 281 282 282 281 281 281 281 281
290 294 289 290 292 292 295 293 295 295 294 295 294 295 296 296 295 294 294 291 291 288 285 283 282 281 281 281 280 279 279 281 280 279 280 280 280 281 281 282 282 281 280 280
291 291 290 290 293 293 294 294 294 293 294 293 292 292 292 292 290 289 290 291 288 285 283 283 280 279 280 279 279 280 281 280 280 279 280 280 280 280 280 281 280 280 282 283
292 291 288 287 293 292 292 295 294 293 293 293 291 289 289 289 290 290 290 286 284 282 282 281 280 280 279 278 278 279 280 280 279 279 280 280 280 280 280 279 279 284 286 287

GFSCGP_sfc_thetae_006.txt.gz
Theta_e
311 303 298 300 299 296 294 291 289 293 298 296 295 295 298 298 296 295 296 298 300 302 303 306 306 307 309 309 309 308 310 312 320 322 321 321 324 323 322 322 322 321 320 319
304 300 304 304 300 296 294 291 290 294 298 296 293 294 297 294 296 297 299 299 301 301 304 305 306 305 306 305 307 308 309 310 314 319 322 323 322 323 324 325 325 324 323 322
301 304 306 302 296 296 293 290 290 293 296 296 294 292 291 295 297 298 299 300 301 302 303 304 304 305 305 304 304 306 308 310 311 318 321 321 322 321 321 322 323 325 326 326
301 302 302 300 296 295 290 296 296 295 291 287 292 285 288 292 295 296 296 298 300 302 303 304 304 304 304 304 304 306 307 307 308 311 311 312 313 313 316 318 320 320 322 324
299 299 299 296 296 296 294 299 295 293 288 286 288 286 289 293 293 296 296 297 299 300 302 303 304 305 305 305 304 305 306 307 306 305 306 306 306 310 312 312 311 312 315 317
297 301 298 297 298 298 299 294 292 290 288 283 287 288 287 290 294 295 296 297 299 300 302 303 304 305 304 304 305 305 306 306 306 306 305 304 303 304 305 305 306 307 310 313
295 293 294 298 293 294 293 289 284 283 282 282 287 286 290 294 296 300 298 298 298 300 301 302 302 303 303 303 303 305 305 305 305 305 305 304 304 304 303 303 304 304 306 307
288 287 292 295 294 292 290 290 285 281 281 284 287 284 290 293 297 300 300 299 299 300 301 302 302 302 303 303 303 303 303 304 304 304 304 305 305 305 305 304 304 304 305 306
288 287 293 295 294 295 290 288 292 288 285 284 287 290 292 296 296 298 298 298 298 299 301 302 302 302 303 302 301 302 303 303 304 304 304 304 305 305 304 304 305 305 305 307
292 286 292 293 294 292 292 294 287 287 282 280 283 285 288 290 294 296 297 297 298 298 300 301 302 302 301 301 301 302 303 303 304 304 304 304 304 304 304 303 303 303 304 304
295 291 289 292 290 290 290 288 288 288 286 282 280 284 291 292 294 297 298 298 299 298 299 300 301 300 301 301 302 302 302 301 301 302 302 301 302 302 301 300 301 300 300 301
298 292 286 289 293 294 292 291 289 285 283 283 282 285 293 292 294 296 298 299 298 299 300 300 299 300 300 300 300 299 299 298 298 299 299 299 300 299 297 297 297 298 297 298
299 292 286 287 291 293 291 292 291 290 288 285 283 286 294 295 294 296 297 298 298 299 299 297 297 299 299 299 298 297 296 295 296 297 296 296 296 294 293 293 294 295 295 295
301 292 290 288 289 292 290 293 292 290 285 285 286 287 291 293 295 297 298 300 297 299 298 295 296 298 297 297 295 294 293 293 294 294 293 293 291 291 291 291 291 292 292 292
296 290 290 290 291 291 291 292 292 290 289 287 287 289 291 293 294 296 296 296 298 296 295 295 296 295 294 293 292 291 291 291 292 290 290 290 290 289 289 289 289 289 290 290
295 290 290 287 290 290 288 289 289 290 291 291 290 291 295 296 294 296 293 296 296 295 295 298 297 293 292 290 289 289 289 289 289 288 288 287 286 286 286 286 286 287 287 287
292 289 286 283 288 289 286 288 288 287 288 289 285 290 294 294 296 295 295 296 295 293 297 296 294 293 292 289 288 287 287 287 286 286 284 284 284 284 284 285 285 284 284 285
290 287 286 283 284 279 287 292 293 290 291 291 292 293 294 295 294 294 295 296 293 296 295 293 292 290 289 288 287 286 285 283 283 283 282 283 283 283 283 283 283 283 283 283
291 287 284 282 281 286 289 292 291 290 289 293 293 294 295 295 293 292 295 295 294 294 293 292 290 289 287 286 284 283 281 280 281 281 281 282 282 282 282 281 281 282 282 282
290 289 286 278 278 280 287 293 295 292 284 294 295 294 295 294 289 291 294 295 294 293 292 290 290 289 286 283 281 280 279 279 279 280 281 282 282 281 281 281 281 282 282 282
284 284 282 282 280 284 291 294 294 284 284 294 295 294 294 293 293 294 295 293 292 291 292 290 288 286 283 281 280 279 278 278 279 281 281 281 281 281 281 281 281 281 281 281
284 281 281 282 279 278 293 293 289 291 293 293 293 293 293 293 294 293 293 292 292 290 288 287 284 284 283 282 280 278 277 279 279 280 280 280 280 281 282 280 280 280 280 280
285 288 286 286 285 292 293 293 294 295 294 292 293 293 294 294 294 294 293 293 293 289 287 285 284 283 283 280 278 277 278 279 279 279 279 279 280 280 280 279 279 279 280 279
288 291 289 289 290 291 293 293 293 294 294 295 294 293 293 292 294 293 291 290 290 287 284 284 283 281 279 279 279 278 278 279 278 278 278 279 279 280 280 280 280 279 278 279
289 290 289 288 291 292 292 293 293 293 293 292 292 292 292 291 290 288 289 290 288 285 284 283 281 279 278 278 278 278 279 278 277 277 278 278 279 279 279 280 279 279 280 282
290 289 287 286 291 291 291 292 293 292 292 293 291 290 288 288 288 288 288 286 283 283 282 280 278 277 277 277 277 278 279 278 277 278 278 278 279 279 279 278 278 283 284 286

GFSCGP_sfc_thetae_009.txt.gz
Theta_e
311 303 298 298 300 300 294 290 288 291 295 293 293 294 297 297 295 294 296 297 299 301 302 304 304 304 305 306 307 307 309 309 317 320 319 319 320 321 320 320 320 319 318 318
305 299 304 304 300 296 294 290 290 294 296 293 292 293 296 295 295 295 296 297 299 300 301 303 304 303 303 303 303 305 307 309 313 319 320 321 320 321 322 323 323 323 322 321
300 303 308 305 302 296 293 290 289 290 295 294 292 291 293 294 295 298 298 299 301 301 301 301 302 302 302 302 302 305 305 306 309 313 318 319 319 318 317 317 319 320 321 323
302 305 305 301 296 301 295 296 294 293 290 286 292 284 289 291 294 296 295 297 299 301 301 302 303 302 302 302 303 304 305 306 306 306 307 308 308 308 310 312 312 311 313 314
298 301 302 301 299 296 294 296 294 293 288 285 286 285 289 290 292 294 295 296 298 300 302 302 303 303 303 303 303 303 305 305 304 304 304 303 303 303 305 305 305 306 307 309
298 306 305 304 301 297 297 293 291 288 287 282 286 287 287 288 293 293 294 296 298 300 301 302 303 303 302 302 303 303 304 304 304 305 304 303 302 303 304 303 304 304 305 306
295 296 298 298 295 294 293 289 283 282 282 281 285 284 291 292 294 297 297 296 297 300 300 301 301 301 302 301 301 304 303 303 303 304 304 303 303 303 302 302 302 302 303 304
290 288 293 294 294 291 290 290 284 280 279 282 286 283 289 293 294 298 299 298 298 299 300 300 301 301 300 301 301 302 302 303 303 303 303 303 303 303 302 302 302 302 302 302
289 289 292 293 294 295 289 287 291 287 283 282 285 288 291 295 294 296 297 297 297 298 299 300 300 300 299 299 300 301 302 302 302 302 302 302 301 301 300 300 300 300 299 301
292 285 292 292 293 292 291 293 287 285 281 279 282 283 288 290 292 294 295 296 297 298 299 300 300 299 299 300 301 301 300 299 299 299 299 300 300 299 298 298 297 297 297 297
292 289 287 291 289 289 288 286 287 287 285 281 279 284 290 291 294 295 296 297 297 297 299 299 298 298 299 300 299 298 297 297 296 297 297 296 296 295 294 293 293 293 294 294
295 289 286 287 292 292 290 289 288 284 282 281 280 284 291 293 294 297 297 297 297 298 298 298 298 299 299 298 296 295 295 294 295 295 294 294 292 291 290 290 291 291 290 291
298 290 285 286 290 291 290 290 289 288 287 283 281 284 293 292 293 294 296 297 298 298 298 296 298 298 297 296 294 293 292 292 293 292 292 290 289 288 288 288 289 288 288 288
300 291 288 286 288 291 289 291 290 289 284 284 284 286 290 293 294 295 296 298 296 298 297 296 297 296 295 294 292 290 290 290 290 290 289 287 286 286 286 286 286 286 287 286
295 289 289 288 290 291 291 291 290 288 287 286 286 287 289 290 292 294 296 296 297 297 294 296 296 294 293 291 289 288 288 288 288 287 286 285 285 285 284 284 284 285 285 285
293 288 288 284 288 288 286 288 291 290 290 289 289 289 293 294 293 296 295 294 295 295 294 296 295 292 290 289 288 287 286 286 285 285 283 284 283 283 283 283 283 283 283 283
291 288 285 281 286 286 283 287 287 287 288 289 286 289 293 294 295 294 295 294 296 294 295 296 293 292 290 287 287 285 285 283 282 282 282 282 282 282 282 282 282 281 281 282
289 287 286 282 284 280 287 292 292 290 291 291 294 294 295 295 294 294 294 295 294 294 295 293 291 289 287 286 285 284 284 282 281 281 281 281 281 281 281 281 280 280 281 281
292 289 285 284 282 285 288 291 290 290 290 294 294 295 295 294 292 292 294 294 293 293 293 291 290 288 285 284 285 283 280 279 279 280 280 280 280 280 280 280 279 280 280 280
290 289 287 281 280 281 288 293 295 293 286 293 294 294 293 293 287 290 292 293 293 292 291 289 288 287 286 284 281 280 280 279 278 279 279 280 280 280 279 279 279 280 280 280
285 285 284 284 282 285 291 293 294 284 284 292 293 293 291 290 293 294 294 292 292 291 290 288 288 286 283 282 281 280 280 277 278 279 279 280 280 279 279 279 279 280 279 280
283 281 282 283 281 281 292 292 289 290 292 293 292 292 292 293 293 293 293 291 291 288 288 287 284 284 282 283 282 280 277 278 278 279 279 279 278 279 281 278 278 279 278 278
285 288 286 286 285 291 291 292 293 294 293 292 292 293 293 293 293 293 292 291 290 288 285 284 283 282 282 282 280 277 277 278 278 277 277 277 278 278 278 277 278 278 278 278
287 290 288 288 289 290 291 292 293 294 293 294 293 292 292 291 292 292 291 290 288 285 283 283 283 281 281 280 278 277 277 278 277 276 276 277 277 279 279 278 278 278 277 277
288 290 288 288 289 290 291 291 292 293 292 291 291 291 290 289 288 288 288 289 287 285 284 283 281 280 277 277 277 277 277 277 277 276 277 277 277 277 277 278 278 278 279 280
289 289 287 286 290 290 290 292 292 291 291 291 290 289 288 287 287 287 288 289 286 284 283 281 278 276 276 276 276 277 278 277 276 277 277 277 278 277 278 278 277 282 283 285

GFSCGP_sfc_thetae_012.txt.gz
Theta_e
309 302 297 299 302 297 294 290 290 291 294 291 291 291 295 297 295 294 293 296 297 300 301 303 303 302 303 303 304 304 308 310 317 318 317 317 317 319 319 320 321 319 318 317
305 298 303 302 301 298 293 292 289 294 294 291 292 292 295 295 295 294 295 297 298 299 301 302 302 301 301 301 302 304 305 306 311 317 318 319 318 319 320 319 317 318 320 320
300 302 306 303 297 297 293 292 290 292 293 293 290 290 291 293 294 295 296 298 299 299 300 300 301 300 301 301 301 304 304 305 306 307 312 312 313 311 310 310 309 310 311 309
301 306 304 301 299 299 293 296 295 292 289 285 290 283 288 290 292 294 294 297 298 299 300 301 302 301 301 301 302 303 304 304 305 304 305 304 303 303 304 305 304 306 306 307
299 301 302 300 301 301 296 299 296 294 288 283 286 284 287 288 290 293 294 295 297 299 300 301 302 302 302 302 301 302 304 304 304 304 303 304 302 302 303 303 302 303 304 305
299 305 305 304 303 301 300 295 293 288 286 281 285 286 285 287 290 291 293 295 298 299 300 301 301 301 300 301 301 302 304 303 303 304 303 302 301 301 301 300 300 301 302 302
295 299 301 301 297 297 296 292 285 281 281 281 284 283 287 291 292 295 296 295 297 299 299 299 299 299 299 300 301 303 302 301 302 302 302 301 300 299 299 299 299 298 298 299
289 288 295 295 298 294 293 289 283 280 279 281 284 282 288 291 294 295 298 297 297 298 298 299 299 299 298 300 300 301 301 300 300 300 300 299 299 299 298 297 297 296 296 297
290 289 293 296 296 299 289 288 290 285 281 281 284 287 292 293 293 293 295 296 296 297 298 299 298 298 298 299 300 299 299 298 298 298 298 296 296 295 294 294 293 293 294 295
291 284 292 292 295 293 291 293 286 285 280 279 281 282 286 290 292 292 293 294 295 297 298 298 298 297 299 299 298 297 297 296 296 295 295 294 293 292 291 291 290 290 290 291
291 287 287 292 288 288 288 287 286 287 284 280 278 283 289 290 291 294 294 295 295 297 298 298 297 298 298 297 296 294 294 294 293 293 292 290 289 289 288 288 288 287 288 288
293 288 284 287 291 291 289 288 287 284 281 280 280 283 290 291 292 294 295 296 296 297 298 297 297 297 297 295 293 292 292 292 291 292 290 288 287 286 285 285 286 286 285 286
295 288 284 288 290 290 289 288 287 287 285 280 280 284 292 290 292 294 295 296 297 297 296 296 296 296 295 293 292 290 289 289 289 289 286 285 284 283 283 283 284 285 284 284
301 290 287 285 286 290 287 288 287 288 283 282 283 286 290 291 292 293 295 296 296 296 296 296 296 295 293 292 289 288 287 287 287 286 284 283 283 282 282 283 283 283 283 282
295 289 288 287 290 291 290 291 288 287 288 286 287 287 290 291 292 293 294 295 295 296 294 296 296 293 291 289 287 286 286 285 285 283 282 282 283 282 282 282 282 282 282 282
293 288 287 284 287 287 286 290 289 288 288 286 287 288 292 291 293 295 293 295 295 296 294 296 294 291 289 287 286 285 284 282 283 282 282 282 282 282 281 281 281 281 281 281
290 287 286 282 285 285 282 286 289 288 289 290 287 290 292 293 295 295 295 295 295 295 293 295 292 291 288 286 285 283 282 281 281 282 281 281 281 281 281 281 280 280 280 280
289 287 286 281 283 277 285 290 289 288 288 289 291 292 294 295 294 293 293 294 294 293 294 293 291 288 286 285 284 282 282 282 281 280 279 280 280 280 280 279 279 278 279 279
290 288 284 282 280 284 288 289 289 290 289 293 293 294 294 293 292 292 294 293 291 292 292 291 289 287 284 283 283 283 281 279 279 281 279 279 279 279 279 278 278 278 278 279
290 290 287 282 280 280 286 292 294 294 287 294 295 294 293 292 287 290 293 293 292 292 290 288 286 285 283 281 280 279 278 280 280 280 278 279 279 278 278 277 278 278 278 279
285 284 283 284 282 285 291 293 294 285 286 294 294 293 293 291 292 293 293 291 291 289 288 287 286 283 280 281 281 279 278 279 279 278 278 278 278 277 277 277 277 278 278 278
284 282 282 283 281 281 291 292 288 290 291 293 293 293 292 292 293 293 292 291 289 287 286 285 282 282 282 282 279 278 279 278 277 278 277 277 277 278 279 277 277 277 277 277
285 287 285 286 285 291 291 292 293 294 292 292 292 292 293 292 291 292 291 290 289 287 284 283 282 281 279 279 280 277 276 277 277 276 276 276 277 277 277 276 277 277 277 277
285 289 288 288 289 290 292 293 293 294 293 293 292 292 292 291 290 290 290 289 288 285 283 282 282 281 281 280 277 276 276 277 276 275 275 276 275 278 277 278 278 276 276 276
288 289 288 287 288 290 291 291 293 293 292 292 292 290 290 289 287 286 288 288 286 284 283 283 281 280 279 276 276 276 277 276 276 275 276 276 277 275 276 277 276 277 278 279
288 288 287 286 290 290 290 292 292 292 291 290 289 287 287 286 287 287 287 287 284 283 282 281 280 277 276 275 275 276 277 276 275 275 277 277 277 276 277 276 276 281 283 284

GFSCGP_sfc_thetae_015.txt.gz
Theta_e
303 302 297 300 301 300 295 294 295 297 297 295 295 294 298 301 299 299 298 301 302 303 305 305 306 306 308 308 309 310 315 318 324 324 324 325 324 323 319 318 318 319 321 322
300 297 303 303 302 299 296 294 292 296 296 296 295 295 299 299 299 299 298 300 302 303 304 304 305 306 306 306 308 308 309 311 318 324 324 325 320 316 314 313 312 312 310 310
296 300 306 302 300 298 295 293 292 295 296 295 293 293 295 298 298 298 298 301 302 303 303 303 304 305 306 306 306 308 309 309 310 312 314 314 313 313 311 309 309 309 309 308
298 305 303 301 298 300 294 297 297 295 294 290 294 287 292 296 295 296 298 300 301 303 303 304 304 305 305 305 307 308 308 309 309 311 310 309 308 306 307 307 307 306 307 306
296 302 300 298 299 301 297 300 298 297 293 289 289 288 292 292 293 295 297 299 301 303 304 303 304 304 305 306 306 307 308 308 308 308 308 307 305 305 305 304 303 304 304 304
300 307 305 303 303 303 297 294 294 292 290 284 288 289 290 292 293 294 296 298 301 302 303 303 304 304 304 306 306 307 307 305 306 306 305 304 303 302 301 300 299 299 300 300
295 301 304 305 297 298 297 295 286 284 284 284 287 286 291 294 295 297 298 298 300 302 302 302 302 303 304 305 305 306 305 303 304 303 302 302 300 299 297 297 296 295 295 296
288 288 297 300 300 295 296 295 287 282 281 284 286 285 291 295 297 297 299 300 301 301 302 302 302 302 303 303 303 303 302 301 301 300 298 297 297 296 295 294 293 293 293 294
288 289 297 296 298 301 293 291 293 286 285 284 287 290 295 296 296 295 296 298 300 301 301 302 301 302 302 302 301 301 300 299 299 298 295 293 293 292 291 291 291 291 291 291
292 286 292 293 296 294 295 296 289 287 283 281 285 285 289 292 293 295 295 297 299 300 300 301 300 301 302 300 299 299 298 297 296 294 293 291 290 290 290 290 289 289 289 289
291 289 287 292 291 289 290 289 289 290 287 283 281 286 292 292 293 294 295 297 299 300 300 300 300 301 300 298 297 296 295 295 294 291 290 289 288 288 288 288 288 288 288 288
292 288 286 287 292 293 292 291 290 286 283 283 283 286 293 292 292 294 296 297 299 300 300 300 300 299 297 295 294 293 293 292 291 289 288 287 287 287 286 286 286 287 286 287
295 288 284 288 291 292 289 288 289 288 287 282 283 287 294 294 296 296 296 297 298 299 299 298 299 297 295 293 292 291 290 290 289 287 286 286 285 285 285 285 286 286 285 285
300 290 288 286 287 290 288 288 288 290 285 284 284 288 292 294 296 296 297 298 298 298 298 298 298 297 294 292 291 289 288 288 287 286 285 285 285 285 285 285 285 285 285 284
296 290 288 287 290 291 290 290 288 288 290 289 289 288 292 294 295 297 298 298 297 297 296 297 296 295 292 290 289 288 287 286 286 285 284 284 285 285 284 284 284 284 284 284
294 289 288 285 288 290 289 290 290 290 288 289 289 289 293 295 296 296 297 296 296 297 296 298 296 293 291 289 288 287 285 284 285 284 283 284 284 284 284 284 283 283 283 283
292 287 287 284 286 286 284 287 289 290 289 292 288 294 293 294 295 296 296 297 297 297 296 297 295 293 290 289 288 285 283 283 283 283 282 283 283 283 283 283 282 282 282 282
292 288 287 282 284 278 288 290 292 291 289 291 291 291 294 295 295 295 296 296 296 296 295 295 293 290 288 287 285 283 283 283 282 282 282 282 282 282 282 281 281 281 282 281
290 290 285 282 281 285 288 289 289 289 289 291 292 293 294 294 295 295 296 295 295 295 295 294 292 288 286 285 284 283 282 281 281 281 281 281 281 281 281 280 280 281 281 281
291 292 288 283 282 280 288 292 294 294 287 295 295 294 293 294 290 292 295 294 293 293 292 290 287 286 284 282 282 282 281 280 280 280 280 281 281 280 280 280 280 281 281 281
285 285 283 284 282 285 291 293 294 286 288 295 295 294 293 292 293 294 294 292 291 290 289 287 286 285 282 282 283 281 280 280 280 280 280 280 280 280 280 280 280 280 280 280
285 284 283 283 282 281 292 293 289 291 292 294 293 293 293 293 294 294 293 291 289 288 287 285 283 282 283 283 282 280 279 279 279 279 279 279 280 280 280 279 280 280 279 279
285 287 285 286 286 291 292 292 293 294 293 293 293 293 294 293 293 293 292 291 289 288 286 285 284 282 281 281 281 279 279 279 279 278 278 278 279 279 280 279 279 279 279 278
286 289 287 287 289 289 291 292 293 294 293 294 294 293 293 293 292 292 291 290 288 286 283 283 282 281 281 281 280 278 278 279 278 277 278 279 278 280 280 279 279 278 278 278
287 289 287 286 288 290 291 291 292 292 292 292 292 292 291 291 290 289 289 289 287 285 284 283 281 281 280 279 278 278 279 278 278 278 278 278 279 278 278 279 279 279 280 281
288 288 287 286 290 290 290 292 293 292 290 291 291 289 289 289 289 289 288 288 285 283 282 281 281 279 278 277 277 278 278 278 277 277 278 278 279 278 278 278 278 281 282 283

GFSCGP_sfc_thetae_018.txt.gz
Theta_e
303 295 294 300 304 303 302 300 299 303 306 302 303 304 305 309 310 308 308 308 309 310 310 312 313 315 316 318 320 324 327 329 330 330 330 328 322 321 319 318 316 315 315 315
297 292 301 305 305 302 302 299 299 303 303 301 303 303 307 309 308 308 309 308 309 309 310 310 312 313 313 314 316 317 321 327 329 331 328 322 318 316 316 315 314 313 312 311
293 296 303 303 302 300 301 298 299 300 301 304 301 301 304 304 304 304 305 309 309 309 308 309 311 312 314 314 314 315 316 318 319 319 318 318 317 316 314 312 311 310 310 309
295 301 300 302 300 302 297 303 302 301 300 296 301 294 301 304 303 303 304 307 308 309 309 310 310 312 313 313 315 315 315 316 316 318 316 315 313 310 310 310 310 309 308 306
292 298 299 299 301 304 299 305 303 302 299 295 299 295 300 300 300 301 304 307 308 309 309 309 310 311 312 314 314 314 314 313 313 313 313 311 309 309 308 307 306 305 305 303
297 304 304 304 305 305 305 302 299 297 294 292 298 295 298 299 300 301 304 306 307 308 309 309 310 311 311 313 313 313 311 310 311 310 309 308 307 305 304 303 301 301 300 300
291 292 305 307 301 301 303 299 290 288 289 290 293 292 299 301 301 303 303 306 307 309 308 308 308 309 310 311 311 310 309 307 307 306 305 304 303 302 300 299 298 297 296 296
286 288 300 306 303 296 298 299 293 286 288 291 291 291 298 300 302 303 306 307 308 308 309 309 309 310 310 309 309 308 307 305 304 302 301 300 300 298 297 296 295 295 294 294
287 288 299 302 302 302 296 295 299 291 292 291 294 297 301 301 301 301 303 306 306 308 308 308 309 309 309 308 307 306 305 303 301 300 299 297 296 295 294 294 294 293 293 292
294 288 295 295 302 299 300 302 292 293 287 285 291 292 297 299 299 300 301 304 307 308 308 308 308 308 308 306 305 304 304 301 299 297 296 295 293 293 293 293 292 292 292 292
298 295 290 293 296 296 296 293 294 295 293 290 289 293 300 299 300 300 302 305 307 307 307 307 307 308 306 304 303 301 301 299 297 295 294 293 292 291 291 291 291 291 291 290
300 297 292 293 296 301 302 298 299 292 289 292 292 294 300 300 300 300 303 304 307 307 308 307 307 305 303 302 301 299 299 297 295 293 292 291 291 291 290 290 290 290 289 290
300 295 290 290 295 296 295 300 301 299 295 292 291 294 299 302 303 302 303 304 306 307 306 306 306 304 302 301 299 298 297 295 293 291 291 290 290 290 289 289 289 289 289 289
302 297 294 290 293 297 294 297 298 298 293 293 293 296 298 301 302 302 303 305 305 305 305 305 305 304 302 300 298 296 295 293 291 290 290 289 289 289 289 289 288 288 288 288
300 294 296 295 296 297 296 295 295 295 297 294 297 295 300 302 303 305 305 304 304 304 304 304 304 303 301 298 296 295 293 291 290 289 289 288 288 288 288 288 288 288 288 287
301 295 294 292 294 296 293 296 297 298 299 298 298 297 303 303 303 302 304 304 303 304 303 304 304 303 300 297 295 293 291 289 289 288 287 287 287 287 287 287 287 287 287 287
299 297 293 291 292 292 290 295 295 296 298 298 294 300 301 299 300 302 303 303 303 304 303 303 303 301 298 296 295 292 290 288 287 287 286 286 286 286 286 286 286 286 286 286
298 295 294 291 290 284 296 296 300 298 299 300 300 299 301 302 303 302 304 303 303 302 302 303 302 299 296 294 292 290 288 287 286 286 285 285 285 285 285 285 285 286 286 285
298 294 292 288 288 292 292 293 294 295 296 299 299 298 300 300 301 299 300 301 301 302 302 302 301 297 294 292 290 289 287 285 285 285 285 285 285 284 284 284 285 285 285 285
294 298 294 290 285 285 293 296 298 299 292 299 300 299 298 300 296 298 299 299 299 299 300 298 295 293 293 290 289 287 284 284 284 284 284 285 285 284 284 284 284 285 285 284
290 292 292 290 288 291 295 297 299 290 293 299 300 300 299 298 299 299 298 297 297 297 295 294 292 292 290 288 286 284 283 284 284 284 284 284 284 284 284 284 284 284 284 283
291 291 290 290 288 286 298 296 294 298 300 301 301 301 299 298 298 298 297 295 294 293 292 292 291 289 288 287 285 283 283 284 284 284 284 284 284 284 284 284 284 283 283 282
291 295 292 293 293 295 297 297 298 302 299 298 299 299 299 298 297 298 296 295 294 293 291 291 290 288 285 284 285 284 284 284 283 283 283 283 284 284 284 283 282 282 282 281
292 294 293 292 293 294 296 297 299 300 298 299 299 299 299 298 298 297 297 296 294 292 291 290 289 286 284 285 283 284 283 283 283 282 283 283 283 283 283 283 282 281 281 281
295 295 293 291 293 295 296 298 298 297 298 297 298 298 298 298 296 296 296 295 294 292 290 289 289 287 285 283 283 283 283 283 282 282 283 282 282 282 282 282 282 281 282 282
295 295 294 295 298 299 298 298 299 297 297 298 296 295 295 296 295 295 295 295 293 290 289 288 287 285 283 282 282 282 283 282 282 281 282 282 282 282 281 281 281 283 283 284

GFSCGP_sfc_thetae_021.txt.gz
Theta_e
302 295 292 295 301 302 302 301 299 304 307 306 305 304 306 310 310 310 311 311 311 312 313 315 317 318 319 323 326 328 329 330 331 331 330 325 321 319 317 316 315 314 314 314
295 290 298 299 300 301 300 299 300 304 306 305 303 302 307 309 310 312 312 310 311 311 311 313 314 315 316 317 320 325 327 330 330 326 324 321 318 316 315 315 313 312 310 310
291 294 299 297 298 298 299 299 299 299 304 304 302 301 304 309 311 312 311 312 312 311 310 311 313 314 316 315 316 318 319 319 320 320 320 318 317 317 313 312 311 310 308 306
292 297 293 296 295 301 297 303 301 300 300 295 304 293 302 306 305 305 307 309 311 311 311 312 312 313 315 315 317 317 317 317 318 319 317 315 312 308 309 310 309 308 307 304
289 293 291 294 294 302 299 304 301 302 299 299 298 296 300 306 302 305 307 309 310 311 311 311 312 313 314 316 315 315 314 314 314 314 313 311 309 309 308 308 306 305 304 302
293 299 299 298 300 302 305 301 301 300 299 291 297 297 298 301 303 305 306 308 309 310 310 311 312 313 313 315 314 313 311 310 311 311 310 309 307 306 305 303 302 301 301 300
291 290 297 301 298 303 302 297 289 287 288 289 299 297 300 301 303 305 305 307 309 310 310 310 310 311 312 312 312 310 309 307 308 307 306 305 304 303 301 300 299 298 297 296
286 284 292 298 301 298 299 298 291 285 286 291 296 291 298 304 305 306 308 309 309 309 310 309 310 311 311 311 310 309 307 305 305 304 302 302 302 300 298 297 296 295 295 294
288 287 293 301 304 303 298 296 300 294 296 294 295 299 301 303 303 304 306 308 307 308 309 309 311 311 311 310 309 308 306 304 302 301 300 299 298 297 296 295 295 294 294 293
293 286 290 299 302 301 301 304 294 295 288 287 293 295 296 299 301 303 303 306 307 309 309 310 310 310 310 309 308 307 305 302 301 300 299 297 296 295 295 294 293 292 292 292
296 289 288 297 296 295 297 298 299 298 296 291 289 293 303 301 302 303 304 307 308 308 309 309 310 310 309 307 306 305 302 300 299 298 297 296 294 294 294 293 292 291 291 291
298 295 286 291 296 304 302 299 300 294 291 295 294 293 302 303 303 303 305 307 309 309 309 309 309 309 306 305 304 303 302 299 298 297 295 294 294 293 292 291 291 291 290 290
300 294 287 287 292 297 298 300 302 301 298 294 291 294 303 305 304 304 305 307 309 309 309 308 308 307 305 304 303 301 300 298 296 295 294 293 292 292 291 290 290 290 289 289
303 297 294 290 293 296 295 298 300 300 295 295 296 296 300 303 303 304 305 307 308 308 308 307 307 306 305 304 302 300 298 297 294 293 292 291 291 290 290 290 289 289 289 289
301 294 296 297 298 299 298 298 299 298 300 295 298 297 301 303 305 306 307 307 307 307 307 307 307 306 305 302 300 299 297 294 293 291 290 290 290 289 289 289 289 289 288 288
303 295 297 294 297 298 295 298 299 299 300 299 299 299 307 307 307 306 306 306 306 306 306 307 307 307 304 301 299 297 294 292 292 290 289 289 288 288 288 288 288 288 288 288
298 296 295 291 295 295 291 296 297 298 300 300 296 302 307 302 303 304 306 306 306 306 306 306 307 306 304 301 298 295 293 291 290 289 288 287 287 287 287 287 287 287 287 287
299 297 296 292 293 285 297 299 301 299 300 302 303 304 304 304 305 306 307 306 306 306 306 306 307 305 302 300 297 294 291 290 288 287 287 287 286 286 286 286 286 287 287 286
303 298 293 290 290 295 297 295 296 297 298 303 302 303 303 304 302 300 303 305 305 305 306 306 306 302 299 296 293 291 289 287 287 286 286 286 286 285 285 285 285 286 286 285
300 301 295 292 287 286 294 298 300 302 293 304 304 303 302 301 297 299 301 302 302 303 304 303 301 297 295 293 292 290 288 286 286 286 285 286 286 285 285 285 285 286 285 285
291 293 290 291 290 295 297 299 301 291 294 300 303 303 302 300 302 301 301 300 301 300 298 297 296 295 292 291 291 288 286 285 285 285 285 285 286 285 285 285 285 285 285 284
290 290 290 292 290 287 300 298 294 299 302 302 303 303 302 300 299 299 298 297 297 295 294 295 294 291 291 290 289 286 285 285 285 285 285 285 285 285 285 285 285 284 284 283
293 298 294 297 296 298 300 300 301 304 303 303 302 302 301 299 298 298 297 296 295 294 293 294 292 290 289 287 287 285 285 285 285 284 284 284 285 285 285 284 283 283 283 282
296 296 296 294 296 297 298 299 301 304 302 302 302 301 300 298 299 298 297 296 295 294 293 293 291 289 286 286 285 285 285 284 284 284 284 284 284 284 284 284 284 282 281 281
296 296 296 294 295 296 298 300 301 301 301 300 301 301 300 299 298 298 298 297 296 294 293 292 291 289 287 286 284 284 284 284 283 283 283 284 284 283 283 283 282 282 282 283
297 297 294 295 300 300 299 300 301 299 298 299 298 298 299 299 298 298 298 298 296 293 292 291 291 289 285 284 284 284 284 283 283 282 283 283 283 283 282 282 281 285 285 285

GFSCGP_sfc_thetae_024.txt.gz
Theta_e
299 293 290 293 296 296 296 296 296 300 306 303 301 301 304 307 307 305 305 305 304 307 309 310 311 313 316 321 321 323 323 324 325 324 322 317 313 310 309 309 308 307 307 307
293 289 294 297 297 296 296 295 296 301 305 303 301 301 304 304 305 306 306 305 304 306 306 308 310 310 312 316 319 321 323 321 320 318 316 314 311 310 309 308 306 304 302 302
288 292 297 295 294 293 293 294 295 294 301 303 299 296 299 303 305 306 307 308 306 306 305 306 306 308 309 310 312 314 315 315 315 314 313 312 311 309 306 305 304 303 300 299
291 295 293 293 292 294 289 297 299 297 297 291 298 286 296 301 302 305 304 304 305 306 306 307 307 308 308 309 310 311 312 312 313 313 311 308 305 302 303 303 302 301 299 297
288 291 291 290 291 295 292 299 298 298 296 296 297 292 295 300 299 302 300 301 305 306 306 306 307 309 310 310 308 308 308 308 308 307 307 305 302 302 301 300 299 297 297 296
291 297 294 293 295 295 296 296 296 298 296 288 293 293 292 296 299 299 300 302 305 305 306 307 308 310 308 308 307 306 305 305 305 304 303 301 299 299 297 296 295 295 294 294
288 289 294 296 291 294 294 292 285 286 287 286 295 291 294 296 300 302 301 302 304 305 306 306 306 306 307 306 305 305 303 302 301 300 299 298 297 295 293 293 292 291 291 290
282 280 290 294 291 292 293 288 287 281 283 285 294 288 293 299 301 303 303 304 305 304 305 305 305 306 306 306 304 302 301 299 298 297 296 295 295 294 292 291 290 289 289 289
285 284 294 295 297 298 291 286 296 291 290 287 288 291 294 299 298 299 302 303 303 304 305 305 306 306 305 304 303 301 299 298 297 296 294 292 291 291 290 289 289 289 288 290
288 283 292 295 298 300 297 299 292 291 283 283 287 289 289 294 295 298 301 301 303 304 305 305 306 305 304 304 302 300 299 296 295 294 292 291 289 289 289 288 287 287 287 288
291 287 289 291 291 290 295 295 295 294 293 286 283 287 296 296 298 297 299 303 303 304 304 305 305 305 303 302 301 298 296 295 294 293 291 289 289 289 288 287 286 286 286 286
292 289 285 289 296 300 300 297 296 288 288 290 287 286 298 297 298 300 299 304 304 305 305 305 305 303 301 300 299 297 295 294 293 291 290 289 289 288 287 286 286 286 285 286
295 290 285 286 294 299 296 299 297 297 295 289 285 286 299 298 298 299 299 303 304 305 304 304 304 302 300 299 298 296 294 292 291 291 289 288 287 286 285 285 286 286 285 285
301 292 288 287 291 296 294 296 297 295 289 289 289 289 295 297 298 299 300 302 304 304 304 303 303 301 300 298 296 295 292 291 290 289 288 287 286 285 285 285 285 285 285 284
299 292 294 295 297 297 296 296 296 295 295 289 292 292 295 298 298 299 300 302 303 303 303 303 302 300 298 297 295 293 291 290 289 288 287 286 286 286 285 285 285 285 285 285
298 292 295 292 297 297 295 297 297 297 297 296 296 294 301 298 301 300 299 301 302 303 303 303 303 300 297 295 293 292 290 288 288 287 286 286 286 285 285 285 284 284 284 283
296 294 292 288 293 292 288 293 297 298 299 298 294 298 301 298 300 300 300 301 302 302 302 303 302 300 298 295 293 289 288 288 286 286 285 286 285 285 284 284 283 282 282 282
294 294 295 290 288 280 293 295 298 296 297 299 299 299 299 299 299 299 301 301 301 302 303 302 302 299 296 294 292 288 287 286 286 285 286 286 284 283 283 282 281 281 281 281
300 296 291 287 286 291 292 293 293 294 294 299 298 300 298 298 297 295 299 300 300 301 301 301 300 296 293 290 288 287 285 285 285 285 284 284 283 282 282 281 280 280 280 280
299 300 291 284 282 282 290 294 297 297 288 297 299 298 297 297 290 292 297 299 299 300 299 297 295 293 291 288 287 285 284 283 283 283 283 282 282 281 280 280 280 280 280 281
292 292 290 288 286 289 294 294 297 287 289 297 298 299 298 294 295 297 298 297 297 296 294 294 292 290 287 288 287 284 283 282 282 283 283 282 282 281 280 280 280 280 279 280
290 289 289 290 287 284 296 294 291 295 296 297 298 298 296 296 296 296 296 295 293 292 292 292 288 287 287 287 285 283 281 282 282 282 282 281 280 282 283 279 279 279 278 278
291 294 292 293 293 297 297 297 297 300 298 298 297 297 297 296 294 294 293 292 292 291 291 290 288 286 284 284 283 281 280 282 282 280 280 280 281 281 280 279 278 278 278 277
295 296 291 292 292 294 296 296 296 299 298 298 298 298 297 295 295 294 293 291 291 290 289 289 286 284 282 282 282 281 282 282 280 279 279 280 279 280 279 280 279 277 276 277
293 293 292 290 292 294 295 296 298 298 298 298 298 297 296 296 294 294 292 292 291 290 290 288 286 284 282 281 281 281 281 280 278 278 278 279 279 278 278 278 277 277 278 280
294 293 291 291 296 295 294 297 298 297 296 297 296 295 296 295 294 294 293 292 291 289 288 288 286 283 281 281 280 281 281 280 279 277 278 278 278 278 278 277 278 283 284 285

GFSCGP_sfc_thetae_027.txt.gz
Theta_e
297 290 286 289 293 293 292 290 290 296 301 300 299 300 303 304 304 301 302 300 301 303 306 309 311 314 317 318 319 320 322 322 324 317 313 310 307 306 305 305 303 302 302 301
291 287 292 295 294 295 292 290 290 296 301 300 299 299 303 305 304 306 303 303 301 303 305 307 309 311 314 315 316 317 316 316 317 315 312 309 307 305 304 303 300 298 298 298
287 289 295 293 292 291 291 289 289 291 297 299 297 296 299 302 305 304 305 305 305 304 305 304 304 307 309 309 311 312 312 312 312 311 310 309 307 304 302 301 299 297 296 295
290 294 292 291 290 291 287 294 293 292 293 288 297 288 294 299 300 300 300 300 304 304 305 305 305 305 306 306 308 310 311 311 310 310 308 305 302 300 300 300 298 296 294 293
288 290 289 288 290 294 289 295 293 293 292 293 293 291 292 296 296 300 303 299 303 304 305 305 306 307 307 305 304 304 305 305 305 304 304 303 300 299 298 296 294 294 292 292
290 296 294 291 293 294 295 292 292 292 291 285 291 292 289 293 298 299 300 301 302 303 304 306 307 307 305 303 302 302 303 301 301 301 300 299 296 295 293 292 291 291 291 291
288 290 293 295 290 292 292 286 280 279 281 282 292 291 293 296 297 300 298 301 302 304 305 305 305 304 303 301 301 301 300 298 297 297 296 294 292 291 290 290 289 288 288 288
280 278 288 293 290 287 288 287 279 275 279 283 293 286 291 303 298 300 302 302 302 303 305 305 305 304 302 302 300 298 297 295 295 294 293 292 291 290 289 289 288 287 287 287
282 282 293 294 293 292 287 284 290 286 286 286 289 290 292 295 296 300 300 301 301 302 303 304 305 304 302 299 298 297 295 294 293 292 290 289 289 288 287 287 287 286 286 288
288 281 289 290 294 293 292 294 283 285 279 281 284 285 286 291 293 298 299 299 301 302 303 304 304 303 301 300 297 296 295 293 292 290 289 288 287 287 287 286 285 285 285 285
290 286 286 289 289 289 289 289 289 290 287 282 280 285 292 293 296 297 299 300 301 302 302 303 304 303 301 299 297 294 293 292 290 289 288 287 287 287 286 285 285 284 284 284
292 289 283 286 296 298 296 292 292 283 285 288 285 284 294 295 296 299 299 301 302 303 303 303 303 301 300 297 295 293 292 291 289 289 288 287 287 285 284 284 284 285 284 284
292 286 284 286 291 296 292 294 294 293 294 289 283 284 296 294 295 297 299 301 302 302 302 302 301 299 299 296 294 292 291 289 289 288 287 286 285 284 284 284 284 285 284 284
296 290 286 286 290 292 289 293 297 295 289 289 288 289 291 293 295 296 300 301 301 302 302 301 300 299 298 296 294 291 289 289 288 287 286 285 284 284 284 284 284 284 284 284
297 288 291 292 292 295 295 295 295 293 294 291 289 291 293 294 295 297 300 301 301 301 301 301 299 298 297 294 292 290 288 288 287 286 285 285 285 284 284 284 284 284 284 284
297 289 292 292 297 295 294 296 296 296 296 295 294 292 295 296 296 296 299 301 301 301 301 301 300 298 295 293 291 289 287 287 287 285 285 285 285 284 284 283 283 283 283 282
294 292 292 286 294 294 289 294 295 295 295 296 292 295 295 296 298 297 297 301 301 301 300 301 300 298 295 292 290 287 286 286 285 284 284 285 286 284 283 283 282 281 281 280
292 292 293 288 287 281 292 294 298 298 298 298 298 299 296 296 295 296 296 300 301 301 301 301 299 297 294 291 289 286 286 284 284 284 285 285 284 283 282 281 280 279 279 279
296 294 290 284 283 288 291 292 291 292 292 297 299 298 296 296 295 294 297 298 299 301 301 299 297 293 291 288 287 285 284 284 284 283 283 283 282 281 281 279 278 279 279 278
297 297 291 282 281 281 288 293 294 294 287 294 294 296 296 295 290 291 295 297 296 297 296 293 291 289 287 286 286 284 282 282 283 282 282 282 282 280 279 278 278 279 278 279
291 292 289 286 284 287 294 294 295 285 287 295 295 296 296 293 293 294 295 293 293 292 291 291 289 287 286 285 284 283 282 281 282 282 282 282 281 279 279 279 278 278 278 278
290 289 289 287 286 282 294 292 288 292 294 295 294 294 293 294 295 294 293 291 292 290 289 288 287 286 285 284 283 281 279 281 281 282 281 280 279 280 281 278 278 277 277 276
287 292 292 292 291 296 295 294 296 298 296 294 294 294 294 293 292 292 290 290 290 289 287 287 285 283 282 282 281 280 280 281 280 280 279 279 280 279 279 277 277 276 276 275
293 297 292 292 294 293 295 294 296 297 296 295 296 295 294 292 292 290 290 290 289 288 286 285 283 282 280 280 281 280 280 281 279 278 278 278 278 280 278 278 277 275 275 275
293 294 292 290 290 292 293 294 296 296 296 296 296 296 294 293 291 291 290 289 288 288 286 285 283 281 279 279 279 279 280 279 278 277 277 277 278 277 277 277 276 276 277 279
292 292 291 291 295 294 294 296 297 296 296 296 295 293 294 294 292 291 290 289 288 287 286 284 282 280 279 279 279 279 280 279 278 277 277 277 277 276 276 275 276 282 283 284

GFSCGP_sfc_thetae_030.txt.gz
Theta_e
295 289 285 288 291 292 291 287 287 290 297 296 296 297 300 304 303 300 302 301 300 301 304 306 310 313 316 316 318 319 320 317 314 312 308 305 302 304 303 301 300 299 298 297
291 287 293 292 292 292 291 288 287 291 295 296 295 295 300 303 304 304 305 302 300 301 303 306 310 312 315 315 317 317 318 316 313 311 307 305 302 301 301 298 296 295 295 295
287 289 294 292 290 289 288 288 288 287 292 294 292 291 296 301 304 305 306 306 301 303 303 304 307 309 310 311 312 312 311 310 310 308 306 304 303 301 298 296 294 293 293 294
290 293 291 290 289 290 285 292 292 290 289 282 294 285 292 297 300 302 304 301 301 304 304 304 306 306 307 307 308 309 309 309 308 308 305 303 300 298 298 296 293 292 292 291
287 289 289 287 288 293 288 293 290 291 288 287 287 285 290 297 296 300 302 301 302 304 304 304 306 306 305 305 305 305 306 307 306 305 303 302 298 298 296 294 291 290 290 290
291 296 293 291 293 293 295 291 291 290 288 281 285 285 286 293 296 298 302 299 300 303 303 304 305 305 302 301 301 302 303 302 302 302 299 298 296 293 292 290 289 289 289 289
288 289 292 295 289 293 291 286 279 278 278 276 286 285 287 294 299 300 301 299 301 303 303 303 303 302 301 300 299 300 300 297 297 296 295 293 291 290 289 288 288 287 287 286
275 274 288 292 289 287 287 286 280 271 271 277 290 284 289 298 301 303 300 301 301 302 304 304 303 301 300 299 297 297 296 294 294 293 291 290 289 289 288 287 287 286 286 285
278 279 292 292 292 292 285 283 288 282 284 280 284 288 294 298 295 296 298 299 300 302 303 302 302 301 299 297 296 295 294 292 292 290 289 288 288 287 286 286 286 285 285 287
286 278 289 291 293 293 289 291 281 283 270 274 282 284 286 291 292 295 296 298 300 302 302 302 302 300 298 297 294 293 293 291 289 288 288 287 286 286 285 285 284 284 284 284
289 286 285 289 285 285 286 284 286 284 283 278 280 285 294 295 295 295 297 299 300 301 302 302 301 300 297 295 294 292 291 289 288 287 286 286 285 285 284 284 283 283 283 283
291 288 282 284 291 292 289 287 287 280 278 284 283 283 294 294 297 299 298 300 301 302 302 302 301 298 296 294 292 291 290 288 287 287 286 285 285 284 283 283 283 284 283 283
292 286 280 284 287 293 287 290 289 289 289 282 281 283 295 292 294 298 297 299 300 301 301 301 299 297 295 293 291 290 289 287 287 287 286 285 284 283 283 283 283 284 283 282
295 288 284 282 287 291 288 289 291 288 283 283 285 288 292 291 293 296 297 299 299 301 301 300 298 297 295 293 291 289 287 287 287 286 285 284 283 283 283 283 283 283 283 282
293 286 286 287 288 290 292 291 292 288 289 284 287 289 294 293 293 296 298 299 299 299 300 299 298 296 293 292 290 288 287 286 286 285 285 284 283 283 283 283 283 283 283 282
296 286 287 288 295 292 291 293 293 292 291 288 295 294 297 294 294 295 297 299 299 299 300 299 298 295 293 291 289 288 286 286 286 285 284 284 284 284 284 283 282 282 281 281
292 290 287 287 293 292 287 289 294 291 296 298 293 295 296 294 295 296 297 299 299 300 300 299 298 296 294 290 288 286 286 285 284 284 284 284 285 284 282 282 281 280 279 279
292 290 292 288 287 281 291 293 298 297 298 298 297 295 295 296 294 295 295 299 300 300 300 299 298 295 292 289 287 285 285 284 283 283 283 285 284 282 281 280 279 279 279 278
298 291 290 284 282 287 290 291 291 294 293 297 297 295 294 295 295 294 295 297 299 300 301 299 297 292 289 287 286 285 283 283 283 283 283 283 282 280 280 279 278 278 278 277
295 294 292 282 279 280 287 291 293 293 287 293 294 294 294 294 292 292 292 295 296 296 295 293 290 289 287 285 285 284 282 282 282 283 282 281 281 280 279 278 278 278 277 277
291 289 287 284 283 286 293 292 294 285 286 293 294 295 295 294 292 293 291 290 291 290 289 289 288 286 284 284 284 282 281 281 281 281 281 281 280 279 278 278 277 277 277 277
289 286 287 288 282 280 294 292 288 291 293 294 293 293 292 293 292 291 290 289 289 287 287 287 285 284 283 283 283 280 279 280 281 281 280 279 278 280 280 277 277 276 276 275
288 291 290 289 289 294 293 293 295 296 295 293 292 294 294 292 291 290 289 288 287 286 286 286 284 282 281 281 281 279 278 280 279 279 278 278 278 278 277 276 276 275 275 274
290 295 291 292 294 292 293 294 296 296 294 293 294 294 294 290 290 289 288 286 285 285 284 284 283 281 279 279 280 279 279 279 278 277 277 277 277 278 276 277 276 274 274 274
292 293 291 290 290 291 292 293 294 294 295 294 294 293 292 291 289 289 287 286 285 284 283 283 281 279 278 278 278 278 279 278 277 277 277 276 277 276 276 276 275 275 276 278
292 293 292 291 295 294 293 295 296 295 294 294 293 291 291 291 290 289 287 287 285 283 283 281 280 278 277 278 278 278 278 278 277 277 277 277 277 275 276 274 274 280 282 283

GFSCGP_sfc_thetae_033.txt.gz
Theta_e
294 288 285 288 290 290 289 286 285 289 294 292 291 293 297 300 301 302 301 302 302 302 302 305 306 310 312 313 314 312 315 311 313 311 308 305 304 303 301 301 300 298 296 296
289 286 290 291 291 290 289 287 286 290 293 291 290 290 294 296 297 301 303 303 303 300 302 304 307 311 313 314 315 316 313 311 310 309 305 303 301 300 298 296 296 294 293 293
286 287 293 291 289 287 287 285 286 286 290 292 289 287 289 295 299 302 304 305 306 303 301 303 306 310 311 312 313 314 311 309 307 305 303 300 300 299 297 295 292 291 292 292
289 293 290 289 287 288 284 290 289 288 286 279 288 279 287 291 295 299 302 304 304 301 302 304 306 308 310 311 310 310 308 306 305 305 303 302 299 296 295 292 290 290 290 290
286 288 288 287 288 292 287 292 290 290 286 283 284 280 283 292 291 296 298 303 301 301 303 304 308 309 308 307 307 306 306 305 304 303 302 300 297 296 293 290 288 288 288 289
291 296 291 289 292 292 293 290 290 289 286 278 283 282 281 285 291 295 299 301 301 302 303 305 306 305 303 302 303 304 305 302 302 301 299 299 295 293 291 289 288 287 287 287
287 289 293 293 288 291 290 286 279 277 278 276 283 282 284 288 293 297 298 298 300 300 302 303 304 303 301 301 301 302 303 298 298 297 296 294 292 291 289 288 287 286 286 285
277 275 286 291 289 285 286 285 279 273 275 276 285 279 284 292 295 296 298 299 298 300 302 304 304 303 301 300 300 299 298 295 294 293 290 289 289 289 288 287 286 285 285 285
279 278 289 290 292 290 285 283 287 281 283 279 281 284 288 294 295 295 296 297 297 300 302 303 302 301 299 297 297 297 295 292 291 290 289 287 287 287 286 285 285 284 284 286
283 276 287 291 292 292 288 289 281 282 273 273 277 280 283 287 290 293 293 295 297 300 302 301 300 298 297 295 293 293 293 291 289 288 287 286 285 285 284 284 283 283 283 283
287 285 284 289 286 285 286 284 285 283 280 274 272 280 289 291 292 291 294 296 299 300 300 299 298 297 295 293 292 290 289 288 287 287 286 285 284 284 283 283 283 283 283 282
289 287 281 283 290 292 290 286 286 279 275 279 280 280 292 291 292 295 297 298 300 300 300 299 297 295 294 292 290 289 288 287 286 286 285 284 284 283 283 282 283 283 282 282
291 285 279 282 286 289 287 288 287 286 284 278 275 279 293 292 294 295 297 300 301 300 299 298 296 294 292 291 289 288 287 286 286 286 284 283 283 282 282 282 283 283 282 281
295 288 283 280 284 287 285 287 287 285 281 281 282 284 288 291 293 294 296 299 300 300 299 297 295 293 291 290 289 287 286 286 285 285 284 283 282 282 282 282 282 282 282 281
293 284 287 287 288 289 288 286 286 284 285 282 285 285 289 293 294 296 298 298 298 299 298 297 295 292 290 288 287 286 286 285 285 284 284 283 283 283 282 283 282 282 281 281
294 286 287 285 290 289 287 289 288 289 287 288 290 288 295 296 298 296 297 298 298 298 298 297 296 291 290 289 287 286 285 285 285 284 283 283 283 283 284 283 281 280 280 280
290 288 286 284 289 289 285 290 288 290 291 289 286 292 295 294 295 296 297 299 299 299 298 297 295 293 291 289 287 286 285 285 284 283 283 283 284 284 283 282 280 280 278 278
291 290 288 286 287 281 290 296 295 292 293 295 294 296 297 298 295 296 297 299 299 299 299 297 296 293 290 288 287 285 285 284 283 282 283 284 284 283 281 279 278 278 277 277
296 293 289 286 281 287 289 293 292 290 290 296 295 297 296 295 296 294 296 298 299 300 299 298 295 291 288 286 286 285 283 282 282 282 282 283 283 280 279 278 277 277 277 277
295 296 290 286 279 279 287 291 294 294 288 297 298 296 294 294 292 295 295 296 297 298 297 293 290 288 286 285 285 284 282 282 281 281 283 282 280 279 278 277 277 277 276 277
290 290 287 284 284 286 291 293 293 284 286 293 294 294 294 294 294 291 291 290 293 293 290 289 288 287 284 284 284 282 281 280 281 281 280 279 278 278 278 277 277 276 275 276
289 285 285 288 282 279 293 292 287 291 292 292 292 293 291 290 289 289 288 288 288 287 287 286 284 283 283 284 283 281 280 280 280 280 279 278 277 279 279 276 275 275 275 274
286 289 287 288 287 293 293 293 295 295 294 292 292 293 291 289 288 287 286 285 285 285 285 285 283 282 281 281 282 280 278 279 279 278 277 277 278 277 277 275 275 274 274 274
290 293 290 291 291 291 293 294 295 295 293 293 293 293 292 288 287 285 285 285 284 284 283 284 283 281 278 279 279 279 278 279 277 276 276 276 276 277 275 277 276 274 274 274
291 292 290 289 291 293 292 293 294 293 293 293 292 293 291 290 288 286 285 284 283 283 283 283 282 280 277 278 278 278 278 278 276 276 276 276 277 275 275 275 274 274 275 278
291 292 291 291 295 294 292 295 295 294 293 293 292 290 291 291 288 287 284 284 283 282 281 280 279 278 277 277 277 277 277 277 276 276 277 277 276 274 275 274 274 280 282 283

GFSCGP_sfc_thetae_036.txt.gz
Theta_e
293 288 286 288 289 289 287 284 284 288 293 290 289 290 293 296 297 297 300 301 301 302 306 304 304 306 306 308 310 313 314 314 314 311 309 307 303 301 301 300 300 299 297 295
289 285 289 290 289 289 287 286 286 289 292 290 289 289 293 294 296 297 298 301 302 303 301 303 304 307 310 310 311 313 311 310 312 312 305 303 305 300 298 297 295 295 295 293
285 287 292 291 288 286 286 285 285 284 288 290 288 285 287 292 294 296 298 299 303 304 303 301 303 307 310 311 311 312 309 308 306 304 301 298 298 297 295 294 294 292 291 291
288 292 290 288 286 287 283 289 288 286 284 279 286 278 284 288 290 291 294 298 301 302 302 302 303 307 309 310 311 310 308 305 303 304 302 301 299 296 295 293 292 290 289 289
286 287 287 286 287 289 285 291 288 288 284 282 283 279 281 286 287 290 293 296 300 303 303 301 304 308 309 309 308 306 304 303 302 302 302 299 296 294 292 291 289 287 287 287
290 295 291 289 291 291 292 289 288 288 286 279 282 280 282 284 286 289 293 296 300 302 301 302 305 308 306 305 305 304 303 301 300 301 300 299 294 292 289 287 286 286 286 286
288 289 293 294 288 290 288 285 277 275 276 275 283 280 283 286 288 290 292 295 298 300 299 301 303 305 303 304 304 304 303 299 301 300 299 296 293 291 289 287 286 285 285 284
280 275 287 293 289 284 285 284 275 268 272 275 283 278 282 290 293 294 295 295 297 297 298 302 305 306 305 304 303 303 301 297 298 296 292 291 291 290 288 287 286 285 284 283
280 277 287 289 291 290 285 282 287 280 279 276 281 282 288 290 290 292 293 293 292 296 299 302 304 305 303 302 301 300 297 294 293 291 290 288 288 287 285 284 284 284 283 284
283 274 285 288 291 291 288 290 281 281 273 271 275 277 280 286 288 290 292 292 295 297 299 301 302 300 300 299 297 296 295 292 289 288 288 286 285 285 284 284 283 282 282 283
286 282 281 288 286 284 286 284 285 284 281 271 270 276 285 288 290 293 292 291 294 297 300 300 299 297 295 294 294 291 290 289 287 286 285 285 283 283 283 282 282 282 282 282
289 286 280 281 289 292 289 286 286 279 275 278 275 278 291 291 293 295 294 294 296 298 298 297 295 294 293 291 291 289 288 287 286 285 284 283 283 282 282 282 282 282 281 282
289 284 276 277 286 289 286 287 287 286 285 278 273 277 290 291 292 295 295 296 297 297 295 294 293 293 291 289 288 287 287 285 285 285 284 283 282 282 281 281 282 282 281 281
294 287 282 279 283 287 284 286 286 285 280 279 279 281 286 289 292 293 294 298 298 296 296 295 292 291 289 288 287 286 285 285 285 284 283 282 281 281 281 281 281 281 281 281
292 285 286 287 288 288 287 287 286 284 284 279 282 283 288 291 293 291 296 298 299 296 295 294 291 289 288 286 285 285 285 285 284 284 283 282 282 282 281 281 281 281 281 280
293 286 288 285 289 289 286 288 288 287 287 285 285 284 293 295 291 293 294 297 299 297 296 294 292 289 287 286 285 285 284 284 285 284 282 282 282 282 282 281 281 281 280 279
291 288 286 283 289 288 285 287 288 288 289 288 283 288 293 293 296 295 295 298 299 298 297 294 291 290 288 286 286 285 284 284 284 283 282 282 282 282 281 282 281 279 278 277
290 289 288 284 287 280 290 295 294 290 291 291 290 292 295 296 297 297 299 298 299 299 297 295 292 290 288 286 286 284 284 284 283 282 282 283 282 281 281 281 279 277 277 276
293 291 288 285 284 286 288 292 291 287 289 294 293 294 295 297 294 294 296 299 299 299 298 295 293 289 287 286 285 284 283 282 282 281 281 281 281 281 280 278 277 276 276 276
293 294 290 286 283 279 287 290 296 296 289 297 296 295 295 293 289 292 295 297 298 298 297 293 289 288 286 285 285 284 282 282 281 281 281 281 281 280 278 277 276 276 275 277
289 290 287 287 284 286 292 293 295 284 286 294 297 297 297 293 294 292 294 294 296 294 291 289 288 287 284 285 285 282 281 281 281 281 280 281 280 277 277 276 276 275 275 275
287 287 286 286 284 279 294 292 288 290 291 293 292 293 296 290 290 290 290 289 289 288 288 287 284 283 284 284 284 281 280 279 280 279 280 279 277 279 278 275 275 274 274 273
285 289 286 288 287 293 293 294 295 295 294 291 291 291 290 288 287 287 286 286 286 285 285 285 283 281 281 282 284 281 277 279 278 278 277 277 277 276 276 275 274 273 274 273
288 292 289 290 291 292 292 293 294 294 293 292 292 291 290 286 286 284 285 284 284 284 283 283 283 281 279 279 280 279 278 278 277 276 276 276 277 275 275 277 276 273 273 273
290 291 290 290 292 292 293 292 292 292 293 292 292 290 288 287 285 285 284 283 283 283 284 283 281 279 277 278 278 278 277 277 276 276 276 276 276 274 274 275 274 274 275 277
291 292 290 289 296 293 292 293 293 292 291 291 290 289 289 288 286 285 283 284 283 281 281 280 279 278 277 277 276 276 277 277 276 276 277 277 275 273 275 273 273 280 282 283

GFSCGP_sfc_thetae_039.txt.gz
Theta_e
295 290 287 289 290 289 288 287 286 290 293 291 290 291 294 297 298 297 299 301 303 305 309 311 311 311 311 312 315 316 323 327 324 320 318 315 312 312 308 304 302 301 300 299
290 286 291 291 290 289 288 286 285 289 292 290 289 288 292 294 295 297 298 299 301 304 306 309 309 310 310 312 314 317 321 321 321 321 316 313 311 307 307 300 299 300 298 296
286 288 292 290 289 287 287 285 285 285 289 290 288 286 289 293 294 296 298 299 301 302 304 307 307 308 312 313 314 316 316 317 316 309 307 304 303 302 300 296 296 297 295 295
288 292 290 288 287 288 283 289 288 287 285 280 288 278 287 290 291 293 294 296 298 300 302 306 307 308 311 314 316 316 314 312 309 309 308 307 307 302 300 296 294 293 293 293
286 288 287 287 287 290 286 290 288 288 285 283 284 281 286 288 288 290 293 295 296 300 302 304 307 309 312 314 315 314 311 309 307 309 309 309 304 300 295 292 291 289 291 292
290 294 291 289 291 291 292 288 289 288 286 278 283 282 283 287 289 291 293 295 298 300 302 305 308 309 311 314 312 310 308 306 306 306 305 303 297 294 291 290 289 289 290 290
289 290 294 294 289 291 289 286 277 275 276 275 283 281 284 289 291 292 292 294 296 300 302 303 305 308 310 311 309 308 306 303 304 303 302 300 296 294 291 290 289 289 289 288
281 277 288 293 290 286 287 286 278 269 272 276 283 279 284 291 294 295 295 296 297 299 301 302 305 308 310 310 308 307 305 302 303 301 298 296 295 293 291 290 290 289 289 288
281 280 287 290 291 291 285 282 287 279 280 276 280 283 288 292 291 293 293 295 296 296 300 302 305 308 309 309 308 306 303 301 300 297 294 293 292 291 290 290 289 289 288 288
286 280 284 288 291 291 287 290 280 281 274 273 277 279 281 286 288 291 294 297 296 296 298 302 305 307 308 308 305 303 301 298 296 294 292 291 290 289 289 288 287 288 287 287
288 283 281 288 285 283 285 283 285 284 282 276 275 278 286 287 290 293 295 297 297 294 299 302 304 305 303 301 301 298 295 293 292 291 290 289 288 287 287 287 287 287 287 287
289 286 278 280 288 290 288 286 285 279 278 281 279 279 292 292 294 295 296 298 298 298 300 301 298 297 298 296 296 296 293 291 289 289 288 287 287 286 286 286 286 287 286 286
289 285 278 277 284 288 286 287 288 286 284 280 276 279 290 291 291 294 296 299 297 296 295 294 295 296 295 294 293 292 290 288 287 288 287 286 286 286 285 285 286 286 286 285
293 286 280 277 282 287 284 286 286 284 280 281 281 282 287 288 290 293 295 299 297 295 294 294 294 292 292 291 291 288 287 287 286 287 286 286 285 285 285 285 285 285 285 285
291 284 286 286 287 288 286 286 286 283 284 281 284 283 287 290 292 293 296 299 298 294 293 292 291 290 289 288 288 287 286 286 287 286 286 285 285 285 285 284 284 284 284 284
293 286 288 285 289 289 286 289 288 288 287 285 286 285 292 292 295 295 296 298 298 295 293 291 290 289 288 288 287 287 286 286 287 286 284 285 284 284 284 284 284 284 283 283
291 288 286 282 288 288 286 289 288 288 289 288 284 288 292 291 293 295 297 299 300 296 293 291 289 289 288 287 287 286 286 286 286 285 284 284 284 284 283 283 283 283 282 282
290 288 288 284 287 279 290 295 295 290 291 292 291 291 293 294 296 297 298 299 300 297 294 291 291 288 287 287 287 286 286 286 285 284 284 284 284 283 283 283 282 281 281 281
293 290 287 284 284 287 289 290 292 289 290 294 292 293 293 295 296 294 298 300 300 298 295 293 291 288 287 287 287 286 285 285 284 284 283 283 283 282 282 281 281 281 280 280
292 292 288 285 283 280 287 291 296 294 288 295 294 294 295 295 291 292 295 299 299 297 295 291 289 288 287 286 286 285 284 284 283 283 283 283 283 282 281 280 280 280 280 280
288 287 284 285 284 285 292 292 295 285 289 294 297 297 297 295 293 292 295 295 296 295 292 290 289 288 286 286 286 284 284 283 282 282 282 282 282 281 280 280 279 279 279 279
288 287 286 287 284 280 293 291 288 291 294 295 295 297 298 291 291 290 290 290 290 289 289 288 286 285 286 286 286 284 282 282 282 282 281 281 281 281 279 279 278 278 278 278
285 288 285 287 287 293 294 294 295 295 294 294 293 294 295 290 289 289 288 287 287 287 286 286 285 283 284 285 285 282 281 281 281 281 280 279 279 279 279 278 278 278 278 277
287 291 289 290 292 292 294 294 294 293 293 292 292 291 290 287 287 285 285 285 285 285 284 284 284 282 281 284 283 281 281 281 280 279 279 279 279 278 278 279 278 278 278 278
289 291 290 290 293 293 293 294 292 292 293 291 290 289 287 287 285 285 283 283 283 284 284 284 282 280 279 280 280 280 280 280 278 278 279 279 278 278 277 278 278 279 279 280
290 291 290 290 295 293 292 294 294 292 291 290 289 287 288 287 284 284 283 284 283 282 282 280 280 279 278 279 278 278 279 279 279 278 279 278 278 277 278 277 277 280 282 282

GFSCGP_sfc_thetae_042.txt.gz
Theta_e
299 293 290 294 296 295 292 291 290 293 296 294 293 294 296 299 300 300 302 304 305 308 312 315 317 319 320 320 321 322 323 327 332 333 334 336 332 329 326 324 318 316 312 307
294 288 295 296 295 293 292 290 290 293 295 293 293 292 296 298 299 300 301 302 302 304 307 310 314 317 319 319 320 322 324 329 332 333 332 332 325 319 314 312 308 309 304 301
291 292 295 294 292 290 291 289 290 289 292 294 292 291 295 297 299 300 301 302 303 303 304 306 309 313 318 318 320 321 324 329 331 331 330 321 314 308 303 303 303 302 301 301
293 296 292 291 290 292 287 293 291 290 288 284 291 284 292 296 297 299 300 301 302 303 305 306 307 309 315 318 321 322 324 327 328 325 319 316 318 311 306 303 300 298 298 300
290 291 291 288 290 293 288 293 291 290 287 285 287 282 289 294 292 295 298 301 302 304 305 306 307 308 312 319 321 322 323 324 323 321 322 322 319 313 304 300 296 295 295 297
293 296 294 293 294 294 294 291 291 290 287 280 286 285 287 291 293 295 298 300 301 303 304 306 308 310 311 317 321 322 321 320 320 321 321 323 316 305 299 296 293 293 295 295
291 291 295 295 290 293 291 288 282 279 278 279 287 285 288 293 295 296 297 299 301 303 304 305 307 309 311 314 320 320 319 317 318 319 320 316 309 304 301 295 293 293 294 293
285 284 291 295 292 289 288 287 282 275 278 281 286 282 288 295 297 298 299 300 302 304 305 304 308 311 312 314 318 318 317 314 315 315 314 312 306 299 294 293 292 292 293 296
285 283 291 294 294 293 288 284 290 283 285 280 283 288 293 295 295 296 297 300 301 303 305 305 307 310 313 315 318 317 316 313 313 312 309 304 298 294 294 291 292 293 293 294
289 283 288 290 294 294 291 292 282 284 275 276 282 284 285 291 292 295 296 299 300 303 305 305 305 310 314 316 318 317 314 311 310 307 305 300 294 292 291 292 292 294 294 293
291 287 286 288 286 286 286 285 287 286 284 278 277 283 293 291 292 294 297 299 301 303 305 304 305 311 314 316 315 313 311 307 305 303 299 296 292 292 292 293 294 293 293 293
292 287 282 284 292 293 292 288 287 281 280 282 282 282 294 294 295 297 297 298 301 304 304 305 308 311 312 311 310 308 305 304 301 297 295 291 292 292 293 293 293 292 292 292
292 285 281 284 288 290 287 289 289 288 286 281 279 283 294 295 296 297 296 298 301 302 303 302 304 306 308 307 306 304 300 296 295 294 291 290 292 293 292 292 291 291 291 291
295 288 285 282 286 289 285 287 288 285 282 284 284 286 291 292 293 295 296 297 302 302 300 301 303 304 305 302 299 295 292 291 290 290 290 291 293 292 291 291 291 290 290 290
292 285 287 288 289 289 289 287 287 285 285 282 287 287 291 293 293 295 296 299 301 300 298 299 300 301 298 293 291 290 289 289 290 289 290 291 291 291 290 289 290 290 290 289
293 286 288 285 290 290 287 291 291 291 290 287 287 287 295 297 297 296 298 298 299 300 296 297 297 295 291 290 288 288 288 288 289 289 288 290 289 289 289 289 289 289 288 287
290 287 286 283 290 289 288 291 291 291 290 290 285 291 296 295 296 295 297 299 300 299 296 295 293 291 290 289 289 287 288 289 288 289 289 289 289 288 288 288 288 287 287 287
291 289 288 284 287 282 292 297 295 293 293 293 293 295 296 296 296 299 300 300 302 299 296 294 291 290 290 290 290 289 289 291 290 289 289 289 288 287 287 287 287 286 286 286
294 291 286 284 284 289 292 294 293 291 291 298 296 297 298 298 299 296 300 304 302 299 297 294 292 291 291 291 291 291 291 290 290 288 287 287 287 286 287 286 285 285 285 285
293 292 287 286 281 282 292 296 297 297 290 296 297 298 297 299 296 294 298 301 299 299 297 294 294 293 292 292 292 291 289 289 287 287 286 287 287 286 286 284 285 285 285 285
287 288 284 284 283 289 297 296 299 288 290 296 297 299 299 298 296 297 300 300 299 296 295 294 293 292 291 291 291 289 288 287 287 286 285 285 285 284 285 285 285 285 284 284
288 286 284 285 285 283 298 298 293 296 298 297 297 299 299 296 295 294 295 294 294 292 291 290 288 288 289 290 289 287 284 284 284 284 283 283 283 284 285 285 284 284 284 283
289 294 292 292 292 299 299 299 301 299 298 297 296 297 298 294 293 293 292 291 291 290 290 291 290 289 290 289 287 283 283 283 283 283 283 283 284 284 284 284 284 284 283 282
296 297 295 294 299 299 300 299 298 296 296 295 294 296 298 295 291 289 288 289 289 290 289 289 289 288 286 285 284 283 283 283 283 283 284 284 284 283 284 284 284 283 283 282
297 296 296 296 299 301 299 298 297 295 294 293 292 293 293 292 292 291 289 288 288 288 288 289 287 286 284 283 282 283 283 284 284 284 284 284 284 283 283 283 283 283 283 283
297 297 296 296 299 299 297 296 296 295 292 292 291 290 291 291 289 289 287 287 287 286 286 285 285 284 283 282 282 283 285 285 284 283 283 283 283 283 282 282 282 281 281 282

GFSCGP_sfc_thetae_045.txt.gz
Theta_e
300 295 292 296 297 297 294 293 293 296 299 296 295 296 298 302 302 302 303 304 306 308 313 315 317 319 319 321 322 323 324 324 327 331 334 336 336 336 333 335 337 333 327 318
294 291 297 299 298 296 295 292 292 296 298 295 294 294 298 300 301 302 302 303 304 306 308 310 313 316 317 319 322 322 323 325 328 332 335 336 336 324 324 326 327 324 318 313
292 294 297 296 294 292 293 291 292 291 295 296 294 292 297 301 302 303 304 304 305 305 306 307 309 312 318 319 320 322 323 325 329 332 335 335 321 314 310 310 309 309 309 306
295 297 293 293 292 293 289 295 293 292 290 287 294 285 293 297 299 300 301 303 304 305 306 307 308 309 313 317 322 323 324 326 330 333 331 327 318 312 307 307 307 306 306 305
291 293 292 290 292 294 290 294 292 291 288 286 288 285 291 296 294 297 301 302 303 305 306 306 307 310 311 315 321 324 324 326 330 330 330 324 319 319 308 303 301 301 302 302
294 298 296 295 295 295 295 291 291 290 288 281 288 287 288 292 295 297 300 301 302 304 305 306 308 310 311 314 320 325 324 325 329 329 324 322 324 310 302 298 298 299 299 300
291 292 295 296 291 294 292 288 282 280 279 280 289 287 289 295 297 297 298 300 302 303 304 305 306 307 309 312 314 322 322 323 325 323 324 324 322 308 302 300 298 295 296 296
285 284 292 295 292 289 289 288 283 277 280 283 289 283 289 297 298 299 300 301 302 302 304 306 308 309 310 313 314 319 321 321 321 322 323 325 314 309 304 300 296 295 295 295
287 286 294 296 296 294 289 284 291 284 285 281 284 289 294 297 297 298 299 300 300 302 304 306 308 309 310 312 314 319 320 320 320 321 323 315 311 305 300 297 297 295 295 295
291 285 291 293 295 295 292 294 282 283 276 277 284 287 288 293 295 297 297 298 300 303 304 306 306 308 309 313 315 320 320 317 319 320 317 310 303 298 295 295 294 294 294 295
293 289 286 290 288 288 288 286 287 288 285 280 280 285 296 294 295 295 297 299 301 302 304 306 306 307 310 314 316 318 318 316 315 313 307 302 297 294 293 293 293 292 294 293
293 289 284 286 293 294 292 289 288 281 282 284 283 284 296 296 297 297 297 299 301 302 304 306 308 309 311 315 316 316 314 312 310 306 301 297 295 294 293 293 293 294 293 294
293 287 282 285 288 292 288 290 290 289 287 282 280 284 297 297 297 298 298 299 300 300 304 305 307 309 311 313 313 312 310 307 304 301 297 294 293 293 292 292 294 293 293 292
296 289 286 284 287 290 285 289 290 286 282 284 285 287 292 295 296 297 297 299 300 300 304 304 305 306 308 309 308 307 304 301 299 297 295 293 293 292 292 292 293 292 292 291
293 286 288 289 289 290 289 289 290 286 286 282 286 287 292 295 296 297 298 298 298 301 303 302 303 304 305 305 303 299 298 297 295 295 293 291 292 292 293 292 292 291 291 290
293 286 288 285 290 291 290 292 293 292 291 290 290 288 296 298 299 297 297 297 298 299 299 299 301 301 298 295 294 293 292 291 292 292 291 291 291 292 291 291 290 290 289 289
290 287 285 283 290 290 288 293 293 292 293 291 287 293 297 295 296 296 297 298 299 300 297 297 298 295 292 290 290 289 290 290 290 290 289 290 291 290 290 290 289 288 288 288
290 289 287 285 289 282 293 299 297 294 294 296 296 296 297 298 299 299 298 301 300 298 296 295 293 292 289 289 289 290 291 289 290 289 289 289 290 289 289 289 288 287 287 287
295 291 287 284 284 288 292 296 293 292 292 296 297 299 300 300 299 297 300 302 300 298 295 293 291 290 289 289 290 291 290 289 289 288 289 290 289 288 288 287 286 286 286 286
293 293 288 286 281 280 293 297 298 299 290 299 297 299 300 302 292 294 299 300 297 293 292 290 291 290 290 291 292 291 290 290 289 289 289 289 289 288 286 286 286 286 286 285
286 287 284 283 283 288 297 299 301 289 291 298 297 298 301 296 296 299 299 297 297 293 292 292 292 291 291 292 292 291 291 289 289 289 288 287 287 286 286 286 286 286 285 285
288 285 284 287 284 282 300 300 294 298 300 299 298 298 297 298 297 296 297 295 294 293 294 295 293 293 294 294 292 289 287 287 286 285 285 284 285 286 286 285 285 284 284 284
289 293 291 291 291 300 302 301 303 302 300 300 298 299 297 295 293 294 294 293 291 289 288 289 289 289 289 288 287 283 283 284 284 283 283 284 285 285 286 285 284 284 284 283
297 300 295 295 300 301 303 305 301 299 299 298 296 299 300 295 296 294 293 291 291 293 292 291 290 288 285 285 284 283 283 284 284 283 284 285 284 284 284 284 284 284 283 282
298 298 297 297 300 303 300 300 299 297 296 295 295 297 300 294 292 291 290 290 291 291 291 291 289 285 283 283 282 283 284 285 284 284 284 284 284 284 283 283 283 283 283 282
300 298 296 295 301 301 299 299 299 297 293 294 294 294 297 296 293 292 291 291 290 290 290 286 284 282 282 282 282 284 286 286 285 283 284 284 284 283 283 283 283 283 282 282

GFSCGP_sfc_thetae_048.txt.gz
Theta_e
302 295 290 293 295 295 294 291 290 293 297 294 292 293 295 298 298 298 300 301 303 305 307 308 309 310 310 312 314 317 318 318 319 318 329 334 333 333 336 335 334 333 327 315
294 288 296 298 297 295 293 290 289 293 296 293 291 291 295 297 297 298 299 299 301 302 303 305 307 309 310 311 312 313 316 318 320 321 325 331 325 321 321 327 331 325 316 311
290 293 298 295 294 291 291 289 289 289 293 293 290 288 292 296 298 299 300 301 301 301 301 303 303 305 307 310 311 313 315 316 320 322 327 318 316 312 309 310 308 310 307 306
293 297 293 292 292 292 287 293 292 291 287 282 290 279 288 292 294 296 296 297 299 301 302 303 303 302 305 308 312 313 315 316 319 324 326 321 320 314 308 307 307 306 305 306
290 292 291 290 291 294 289 294 291 290 285 283 284 279 285 291 290 292 294 296 298 298 299 300 301 303 304 304 309 313 314 316 318 325 327 320 315 308 307 304 303 303 305 306
294 298 295 293 295 295 295 291 290 288 285 278 283 282 282 287 289 291 294 294 297 297 297 299 301 303 302 304 305 310 314 315 320 325 324 318 311 305 301 299 300 300 301 300
290 291 295 296 292 294 292 287 276 276 276 274 287 284 285 292 293 294 294 292 295 294 295 297 299 300 301 302 305 306 314 314 321 322 320 317 308 303 300 298 298 297 297 297
283 281 291 295 291 288 289 287 278 272 273 278 286 279 284 293 295 295 296 295 296 295 296 296 300 302 303 304 304 305 314 315 320 319 316 315 305 302 299 299 299 297 296 297
284 286 294 295 295 293 288 284 288 281 281 274 280 283 289 293 292 293 293 295 295 296 297 297 301 302 303 303 305 306 313 315 318 317 317 308 304 300 299 297 297 297 296 296
291 284 291 294 295 294 290 291 281 279 268 270 278 280 283 288 290 293 292 292 294 296 296 299 302 303 303 303 306 307 314 314 315 316 311 307 302 300 297 297 296 295 294 294
292 287 285 290 287 286 287 286 285 284 279 272 273 279 289 289 291 291 292 294 295 295 297 299 301 303 303 303 306 309 313 313 314 313 304 297 294 294 295 294 294 294 294 293
293 289 283 284 291 293 292 287 286 276 274 279 276 280 294 292 291 293 293 295 296 297 297 300 301 302 303 305 308 311 314 314 307 300 295 292 292 292 292 292 292 293 292 293
292 286 279 283 286 291 285 288 288 287 284 279 277 280 293 294 295 297 297 296 296 297 297 300 300 302 305 308 311 311 311 302 298 295 292 291 291 292 292 292 293 293 293 291
296 289 280 277 284 288 281 286 287 286 281 281 282 283 289 292 295 297 297 298 297 298 299 300 299 301 306 306 307 305 300 297 294 291 291 291 292 292 292 292 292 291 290 289
291 283 285 287 288 288 287 286 287 285 285 282 284 286 291 294 295 295 297 298 298 298 300 299 299 301 304 304 302 298 296 293 292 291 292 291 291 291 291 290 290 289 290 288
293 283 287 281 288 288 285 288 289 289 290 289 290 290 296 298 296 296 297 298 298 298 298 298 299 301 298 296 295 295 292 291 291 292 292 291 290 290 290 289 289 288 286 286
290 287 284 281 288 288 284 289 290 292 294 293 288 293 297 295 297 296 297 298 299 298 298 299 298 293 291 292 291 291 290 292 292 291 290 290 289 289 289 288 287 286 285 285
289 288 287 280 284 278 289 297 296 292 295 296 295 297 299 298 297 297 299 299 297 298 298 297 293 290 290 290 290 290 290 291 290 290 289 289 289 288 287 287 286 285 285 284
294 291 286 282 282 286 290 294 291 291 292 297 295 298 299 299 299 295 298 296 296 294 293 291 290 289 289 289 290 290 290 289 289 288 288 288 288 287 286 285 284 283 282 284
293 293 287 283 279 277 288 294 297 297 288 298 297 297 298 296 293 293 295 292 291 290 290 288 289 289 290 290 290 289 288 288 287 288 288 288 288 286 284 282 283 285 284 283
287 287 284 283 282 284 292 297 299 288 289 297 298 297 295 292 296 297 294 292 291 291 290 291 291 290 291 292 292 290 289 288 289 289 288 286 285 284 284 285 284 284 282 281
284 283 283 284 282 278 296 296 292 296 298 300 298 298 296 295 295 294 293 291 291 291 291 291 290 290 293 293 291 287 286 286 285 284 284 284 285 286 285 283 281 281 280 279
287 289 286 287 286 294 297 297 299 299 297 297 296 297 297 294 293 292 290 289 288 288 289 290 288 286 287 287 285 281 281 283 284 283 283 284 284 283 282 281 280 280 280 279
292 295 291 291 295 295 297 299 297 296 295 295 294 297 298 295 294 291 292 291 289 289 288 288 287 285 284 284 284 283 283 284 284 283 282 282 281 281 280 281 280 279 278 277
294 295 293 292 295 296 297 296 296 295 294 294 293 296 298 295 292 291 290 291 291 290 289 287 284 282 281 282 282 283 284 285 283 282 281 281 281 280 279 279 278 277 278 278
295 293 291 291 297 296 293 295 296 294 292 293 293 294 294 293 291 291 290 290 289 287 284 283 282 282 282 282 283 284 285 284 282 281 280 280 279 279 278 277 277 283 282 282

GFSCGP_sfc_thetae_051.txt.gz
Theta_e
303 295 289 291 293 293 292 288 288 290 295 291 291 291 293 295 296 297 297 296 300 302 304 305 305 306 307 308 310 314 315 318 325 335 334 333 330 333 330 333 333 329 323 318
295 290 296 297 296 294 292 288 287 291 294 291 289 289 293 295 295 297 297 296 298 301 301 302 303 304 306 307 307 310 313 316 321 328 335 333 331 324 327 329 332 329 319 312
289 292 297 294 293 291 288 286 286 287 291 290 288 286 289 294 295 297 299 299 299 299 298 299 300 301 303 304 307 309 310 314 315 317 321 318 316 315 314 312 315 314 312 310
292 296 294 291 291 291 285 291 291 289 285 280 287 278 284 290 291 293 294 295 298 299 298 299 300 300 300 302 305 308 311 312 315 318 320 322 322 321 314 310 307 306 307 309
289 291 291 289 291 293 288 293 289 288 283 280 282 278 282 288 288 290 289 292 294 297 299 300 299 301 301 301 302 306 308 312 314 319 322 323 320 310 308 306 304 305 305 306
292 297 294 292 293 293 293 289 288 286 283 274 280 280 280 285 288 288 290 293 293 295 295 296 298 300 300 299 300 304 307 310 312 319 322 321 312 307 306 303 302 302 303 303
289 290 293 295 289 291 290 283 271 278 277 273 284 280 281 289 292 292 292 292 293 294 294 295 299 300 300 300 301 301 304 308 311 318 320 315 312 309 307 303 302 301 298 298
278 277 289 293 289 286 286 284 273 269 270 276 283 278 283 290 294 293 294 293 293 293 294 294 299 299 299 300 301 301 302 307 313 318 316 311 307 307 304 303 301 302 299 299
280 282 293 293 293 291 286 281 286 277 277 271 278 281 286 290 290 290 292 293 292 294 294 296 298 300 300 301 301 301 302 308 316 316 309 305 304 303 302 301 299 300 299 297
290 282 291 293 295 295 288 290 278 274 266 268 276 277 281 286 288 290 290 291 293 295 295 297 299 300 301 301 301 301 303 311 315 314 305 302 302 301 300 298 296 296 295 295
292 285 285 291 287 285 287 285 284 281 276 270 271 277 286 287 289 288 291 293 294 294 295 296 299 301 301 302 302 302 307 311 311 307 302 301 298 298 297 297 295 295 294 294
293 288 280 281 289 291 289 286 284 272 271 273 277 278 291 291 290 292 294 297 298 298 298 295 299 300 300 301 303 304 308 308 301 298 298 296 296 295 296 294 294 294 293 293
291 286 279 282 287 290 285 289 287 284 280 272 273 277 290 290 292 295 296 297 298 300 297 298 298 299 301 304 306 305 299 296 295 295 294 294 293 293 293 294 293 293 292 292
296 287 277 275 280 285 280 284 285 285 277 279 278 282 288 290 292 295 297 295 295 297 300 298 299 299 301 301 299 297 294 294 292 292 292 292 292 292 292 292 292 292 292 291
291 279 283 285 287 287 285 284 285 280 284 281 284 284 288 292 295 297 299 297 299 300 300 301 300 298 299 296 296 294 294 293 293 292 293 292 293 293 292 291 291 290 290 289
290 279 285 279 286 287 284 286 286 287 287 287 287 287 295 298 298 298 297 298 298 299 299 299 298 296 294 293 293 293 294 294 294 291 291 292 291 291 290 289 289 288 287 286
289 284 282 277 286 285 280 286 287 287 290 291 287 293 298 298 297 295 296 297 297 298 299 298 290 289 289 291 292 291 292 293 291 290 290 289 289 289 288 288 287 286 285 285
289 287 283 277 282 277 287 293 294 290 293 296 296 297 298 298 297 296 294 295 293 293 295 291 289 288 289 289 290 291 291 290 289 289 289 289 288 288 287 287 286 285 285 284
293 288 285 280 280 283 290 293 291 289 290 298 296 297 299 297 298 294 291 290 289 288 288 288 288 288 289 289 290 289 288 288 288 287 287 287 288 287 286 285 284 284 284 284
293 292 286 282 276 276 289 293 295 296 288 297 298 297 296 294 293 292 291 289 288 288 288 288 289 289 289 289 289 288 288 287 286 287 286 287 287 286 285 285 285 285 284 284
286 287 284 282 279 283 290 294 297 285 286 296 298 299 295 293 294 291 292 290 290 290 290 291 291 289 289 290 289 288 287 286 287 289 288 288 287 286 285 285 284 284 283 282
284 282 282 284 281 276 293 294 290 294 295 297 297 297 294 294 292 291 291 290 290 289 289 289 288 287 290 291 290 287 286 286 287 287 286 285 285 285 285 283 281 281 280 278
285 286 284 285 284 291 293 295 295 296 294 293 296 296 295 293 290 289 289 290 290 290 289 289 288 289 290 289 289 286 285 285 285 284 284 284 284 283 281 279 279 278 279 278
290 293 289 290 294 294 295 294 295 294 292 292 294 296 297 293 292 290 289 288 288 288 286 287 286 284 283 283 284 283 284 284 284 283 283 282 280 279 279 280 279 278 277 276
292 292 291 291 294 293 294 295 293 292 292 292 292 295 297 294 292 291 290 289 288 288 287 287 285 283 282 283 283 284 285 284 283 281 280 280 280 279 278 278 277 277 277 277
292 291 290 290 297 296 293 293 293 291 291 291 293 292 295 293 291 292 291 291 289 287 285 284 283 282 282 283 283 284 285 284 281 279 279 279 278 277 276 276 276 283 283 283

GFSCGP_sfc_thetae_054.txt.gz
Theta_e
303 296 292 292 296 291 291 290 286 289 294 289 289 289 292 295 294 295 296 296 297 299 303 303 303 304 304 306 306 309 315 328 333 333 332 332 332 331 331 330 328 327 324 320
296 291 296 297 295 293 291 288 286 290 293 289 288 288 292 294 295 296 297 298 297 298 298 301 303 303 303 304 304 306 310 318 330 334 334 333 332 330 330 329 328 327 322 319
291 294 297 294 292 291 288 285 286 286 290 288 287 286 288 292 293 296 298 298 298 298 299 299 299 300 301 302 304 305 307 312 324 333 330 320 319 317 318 321 324 325 319 316
293 296 295 293 290 290 285 290 290 288 285 279 286 277 284 288 289 291 291 293 296 298 297 299 299 298 299 300 302 304 307 309 312 322 327 326 325 323 321 322 312 312 313 314
289 291 291 289 290 292 287 291 289 287 282 279 280 279 282 287 288 288 288 290 292 296 296 297 297 299 299 299 299 301 304 308 311 319 326 325 325 321 309 310 309 307 309 311
291 296 293 291 293 293 293 288 286 285 280 270 279 280 280 284 287 287 290 292 293 292 294 296 297 298 299 299 299 299 302 305 308 312 320 324 319 309 307 305 306 305 305 308
289 289 292 294 289 291 289 281 270 269 269 272 282 279 281 287 291 290 291 291 292 292 292 294 297 298 298 298 299 300 300 302 305 309 315 320 318 313 311 307 306 304 302 302
281 279 288 292 289 286 285 282 273 268 271 274 282 277 283 289 291 291 291 291 292 293 293 293 297 297 298 299 300 300 300 300 302 307 315 317 316 314 311 309 306 305 303 300
280 280 292 292 292 290 286 279 285 275 274 270 276 280 284 288 289 290 291 292 292 293 294 294 296 298 299 299 300 300 301 301 301 308 312 308 310 308 306 302 304 301 300 299
286 278 291 292 295 294 287 289 278 272 265 267 274 276 278 284 286 289 290 291 294 297 298 296 297 299 300 300 300 301 301 301 302 310 306 306 305 305 302 302 301 300 298 299
289 283 286 291 287 284 286 283 280 279 275 269 269 276 284 285 287 288 290 292 294 296 296 296 299 298 300 300 300 301 302 303 307 304 301 301 301 301 301 301 301 299 297 297
290 285 281 284 288 290 288 285 282 272 270 270 277 276 289 286 288 290 293 295 298 297 298 298 295 297 298 299 302 304 305 306 302 300 299 299 299 299 298 299 298 297 296 295
289 283 276 279 284 290 284 286 286 282 278 271 271 276 289 288 293 294 293 297 297 296 297 298 298 299 299 304 303 302 300 297 297 298 297 296 297 297 296 295 295 295 294 293
294 285 277 275 279 283 278 284 285 283 274 276 276 280 287 289 292 295 297 299 299 297 299 301 300 301 302 299 296 293 292 293 293 296 294 294 295 294 294 294 293 293 292 291
290 279 281 283 286 286 285 283 283 281 283 276 281 282 287 291 293 296 300 298 299 300 301 301 301 302 299 293 290 290 291 292 294 293 293 292 293 294 292 292 291 291 290 289
290 279 284 279 285 285 283 286 285 285 285 284 285 284 292 295 300 299 296 296 296 296 297 300 298 296 292 287 289 291 292 294 294 294 292 292 292 291 291 290 289 288 288 288
287 282 282 276 284 283 278 284 286 285 287 288 284 289 296 297 298 295 291 292 292 290 297 293 289 288 289 287 290 289 290 292 291 291 290 291 290 288 288 288 288 287 286 286
286 286 283 277 280 275 285 291 291 287 289 292 294 297 298 298 295 291 290 289 288 288 288 288 288 288 289 290 290 290 290 289 289 288 288 289 289 288 288 287 286 286 286 286
291 286 284 281 278 281 288 291 290 289 289 295 296 298 298 298 294 291 292 289 287 287 288 288 289 289 289 289 289 288 288 288 287 287 288 288 288 287 286 285 285 285 284 284
293 292 284 283 274 275 286 291 295 295 286 296 298 297 296 295 293 293 291 289 287 288 288 288 289 289 289 289 289 287 287 287 286 287 287 287 286 285 285 285 286 286 285 284
287 288 284 282 280 281 289 291 296 282 285 295 296 296 293 292 294 292 291 289 289 290 290 290 289 288 289 290 290 288 287 285 285 287 286 286 287 287 286 285 285 284 283 282
284 283 283 283 280 276 292 293 289 292 295 295 295 297 293 292 291 291 291 289 289 289 289 289 288 287 290 290 289 286 284 285 286 287 287 287 287 288 286 284 283 281 280 277
284 285 282 284 283 290 291 293 297 295 294 293 292 294 293 290 290 290 290 290 289 288 288 289 288 288 288 290 288 285 285 287 286 286 285 285 285 283 282 280 278 277 277 277
288 292 288 288 293 291 294 294 294 293 292 292 292 294 294 291 290 289 288 290 290 289 289 290 289 286 285 286 288 286 286 286 285 284 283 281 279 279 279 279 279 277 276 275
290 292 290 289 294 294 293 294 293 292 291 292 292 295 294 292 290 289 288 288 287 287 287 286 283 283 282 283 284 284 284 286 285 281 279 279 279 278 277 277 277 276 276 277
290 289 288 288 296 297 296 293 293 291 290 291 292 293 296 294 291 290 289 289 288 287 287 285 283 282 283 283 283 284 284 283 280 278 278 278 277 276 276 275 275 284 283 283

GFSCGP_sfc_thetae_057.txt.gz
Theta_e
304 295 293 296 297 293 290 288 285 288 293 289 288 288 292 294 293 293 295 297 298 299 302 301 303 304 304 303 304 308 321 329 333 333 333 333 332 333 330 332 329 326 324 321
297 292 297 299 299 294 292 287 285 289 291 288 287 287 291 294 294 295 296 297 297 297 297 298 300 301 302 303 302 303 311 327 330 333 334 333 333 332 332 331 327 326 324 322
292 294 298 295 293 291 288 285 285 286 288 287 285 284 288 291 293 294 295 297 298 298 298 299 297 299 300 301 302 303 303 310 327 332 331 324 322 322 323 323 326 324 323 321
293 295 294 292 290 290 285 289 289 287 284 279 285 277 283 287 288 290 291 292 293 295 297 297 297 297 298 299 300 302 304 305 316 328 329 328 326 325 326 328 328 323 319 318
290 290 292 290 290 291 287 291 288 286 282 278 280 278 282 285 286 289 288 289 291 292 293 296 296 297 298 298 298 299 301 303 307 317 328 328 325 325 320 315 319 311 311 317
291 296 293 291 293 293 292 287 285 283 280 271 278 279 279 282 285 287 289 290 290 291 292 294 296 297 297 298 298 298 300 302 304 310 321 326 326 314 312 310 314 310 309 309
289 289 292 294 288 291 287 282 272 270 269 271 281 279 281 286 289 289 289 288 291 293 294 294 294 297 298 298 299 300 299 300 302 305 311 319 321 315 316 314 315 309 308 305
281 281 288 291 289 286 284 282 274 268 269 273 280 277 282 288 289 289 290 290 293 294 293 295 295 297 297 298 299 299 299 300 300 300 305 312 317 317 314 312 313 312 309 306
279 279 290 291 292 290 285 277 283 275 274 270 276 279 283 287 287 289 291 293 293 295 296 294 296 298 298 299 299 298 299 300 301 301 302 309 312 310 310 308 307 305 303 303
284 279 290 291 293 292 286 288 277 272 267 269 274 275 277 282 285 288 289 290 292 296 297 297 295 296 298 299 300 299 300 300 301 301 305 307 309 308 304 304 301 300 301 301
287 283 286 290 287 285 284 281 280 279 275 270 270 276 283 283 286 287 289 291 293 295 296 297 297 297 296 297 297 298 299 301 303 305 302 301 300 300 300 300 300 299 299 299
289 284 283 285 288 290 287 284 281 272 271 271 275 275 287 287 288 288 291 293 296 297 297 297 297 298 298 298 301 302 302 303 303 299 298 297 297 298 298 297 298 297 298 297
289 281 272 281 286 289 284 285 282 280 276 269 270 276 287 286 288 291 295 298 301 300 300 299 300 302 299 299 297 294 292 294 296 296 296 295 296 296 300 299 298 298 296 294
293 283 277 274 278 282 276 283 283 283 274 274 275 278 284 288 289 293 295 297 297 300 299 298 299 300 301 294 293 292 291 291 294 295 295 295 297 298 296 297 297 295 293 291
289 279 281 283 285 285 283 283 283 280 281 275 278 281 285 289 291 293 297 297 296 297 294 295 299 300 293 292 292 291 292 292 293 293 294 295 295 295 294 293 292 291 290 288
288 279 282 278 284 285 282 285 284 284 285 284 285 284 292 294 295 298 295 293 293 292 290 296 292 291 289 289 288 289 289 291 292 292 291 292 291 291 289 289 288 288 288 288
287 281 280 274 283 283 278 283 284 285 285 287 283 288 294 295 298 297 292 291 290 290 289 287 287 288 289 289 288 287 288 290 290 289 289 289 289 288 289 289 288 288 287 288
285 283 284 278 280 276 283 288 289 287 288 289 291 293 294 298 297 292 291 288 288 287 288 288 288 289 290 290 290 290 290 289 289 288 288 289 289 288 288 287 286 286 286 286
289 285 283 280 278 280 286 290 287 286 288 292 291 294 298 298 293 293 292 288 287 287 288 288 289 289 289 289 289 289 288 289 288 287 287 288 288 287 287 285 285 285 285 285
291 291 283 282 276 274 283 290 294 294 286 295 297 297 293 293 291 293 289 287 287 288 288 288 289 289 288 288 289 288 287 287 287 287 287 287 287 286 285 285 285 285 285 285
287 287 284 282 280 280 287 290 295 283 285 296 294 295 297 294 293 290 289 287 288 290 289 289 289 289 289 290 289 287 286 284 286 287 287 287 287 286 286 285 285 285 285 284
284 283 283 284 280 275 290 292 288 293 296 297 295 296 296 293 292 291 289 289 289 289 288 289 288 288 289 289 288 285 284 285 285 286 286 286 286 288 287 285 284 282 279 278
283 285 282 283 282 289 292 293 296 297 295 294 293 294 293 291 291 291 290 290 288 288 288 289 288 288 289 289 287 285 285 288 287 286 286 286 286 285 281 278 277 276 277 276
287 290 286 287 291 291 293 293 293 295 292 291 292 295 292 291 291 290 290 289 288 288 288 289 288 286 286 288 287 287 288 288 286 284 283 279 278 277 277 278 277 276 275 275
289 290 290 289 291 294 295 295 296 294 291 290 291 294 292 291 290 290 289 288 288 289 289 286 285 284 285 287 286 286 286 286 283 279 278 278 277 276 276 276 275 275 275 277
289 288 286 285 292 294 294 296 295 292 291 291 292 293 293 293 291 290 289 288 287 285 285 283 284 283 283 284 284 284 285 283 279 278 277 277 276 276 276 276 276 284 284 284

GFSCGP_sfc_thetae_060.txt.gz
Theta_e
303 296 293 295 297 292 290 287 286 288 292 288 288 287 290 294 292 292 294 295 297 299 302 301 301 302 303 302 302 306 316 330 334 333 333 333 332 333 333 332 331 326 324 322
294 287 297 301 298 293 291 288 286 289 291 288 287 286 291 294 293 294 295 295 295 296 297 298 299 299 301 302 301 302 306 319 331 333 333 334 334 333 334 332 330 327 324 322
291 292 300 298 295 292 290 288 285 285 287 286 285 284 286 290 292 292 294 294 294 294 296 298 296 297 298 299 300 301 303 308 325 332 332 325 327 325 328 329 329 325 324 323
293 297 297 295 292 292 285 290 289 287 283 280 284 277 284 286 288 289 289 289 290 290 291 294 295 296 296 297 299 300 302 303 310 326 329 329 328 327 328 330 330 328 323 322
290 292 292 291 291 292 287 291 287 285 281 278 280 279 282 284 285 286 287 288 290 292 292 293 295 296 296 297 296 297 299 302 305 314 326 327 327 327 321 324 325 326 319 322
291 296 294 291 292 292 290 286 284 282 279 271 277 278 279 282 283 286 287 289 291 293 295 296 295 297 297 297 297 296 297 299 302 306 316 325 326 320 314 315 323 317 315 316
289 289 291 294 289 291 287 282 271 269 269 271 279 277 280 285 287 287 287 290 292 294 295 295 297 296 297 297 298 299 298 298 300 303 308 320 324 319 317 317 320 316 313 312
279 280 288 291 289 286 283 282 274 267 269 274 280 276 280 286 286 289 290 291 293 295 295 295 295 296 297 297 298 298 298 299 299 299 302 308 314 316 317 315 317 316 314 314
280 280 291 291 291 290 283 277 283 274 272 270 275 279 282 286 286 288 289 291 291 294 296 296 296 295 297 297 298 297 298 298 299 299 299 301 306 312 314 310 310 309 307 305
283 278 289 290 293 291 286 286 278 273 268 268 273 274 277 282 284 288 288 289 291 294 295 296 297 296 296 297 297 297 297 297 298 300 300 302 304 308 309 304 304 302 301 303
286 283 286 290 287 284 284 281 280 278 274 270 271 275 282 284 286 286 288 290 291 294 296 296 297 296 297 297 299 300 300 300 302 302 300 300 300 301 300 300 298 299 300 300
288 285 282 284 287 289 287 284 280 273 272 273 274 276 285 285 287 289 290 292 296 297 297 297 297 296 297 298 296 293 293 294 296 297 297 298 301 301 300 299 297 297 298 298
288 281 277 281 286 288 284 284 282 279 276 274 271 275 286 285 286 288 290 296 297 297 297 297 297 298 298 293 291 290 290 291 294 294 294 297 298 300 299 298 298 298 297 296
292 282 277 275 278 282 277 283 282 279 272 274 274 278 283 286 287 289 291 297 294 297 293 292 293 295 292 290 290 290 290 291 292 294 295 298 298 298 298 297 296 295 294 292
288 280 280 282 284 284 283 283 282 278 279 275 278 279 284 287 290 291 295 295 293 292 289 288 289 288 288 289 291 291 290 290 292 291 292 294 295 295 294 292 292 292 292 291
287 278 281 278 284 284 282 284 283 283 284 282 283 283 292 293 294 293 295 292 290 289 289 289 287 289 288 289 287 287 287 288 288 289 289 290 290 290 291 290 290 290 289 289
285 281 278 274 282 282 278 283 284 283 284 285 280 288 293 293 294 297 292 290 288 288 288 288 287 289 289 289 289 288 288 290 289 289 289 289 289 289 289 289 289 288 288 288
284 284 282 279 279 275 283 287 288 286 287 287 289 291 293 294 297 292 290 287 286 287 287 288 288 289 290 290 289 290 290 290 289 289 289 289 289 288 288 288 287 287 287 287
290 287 283 279 278 280 285 288 286 285 287 290 289 292 294 297 295 291 289 288 285 285 288 288 288 288 289 289 289 289 289 289 288 288 288 288 288 287 287 286 285 286 286 285
291 289 282 281 276 274 282 289 292 292 288 295 294 293 295 295 291 292 289 287 286 287 288 288 288 288 288 288 289 288 287 287 286 287 287 288 287 286 285 285 285 285 285 284
286 286 282 280 280 279 286 290 293 285 285 295 296 294 297 293 293 291 289 287 288 289 288 290 289 289 289 289 288 286 286 285 286 288 288 287 287 286 286 285 285 285 284 283
284 282 283 283 279 275 288 292 289 293 295 295 293 294 296 291 291 290 289 288 287 288 289 289 288 288 289 289 287 286 284 286 287 287 286 285 286 287 286 285 284 282 280 278
283 284 283 283 282 288 292 294 296 296 295 293 291 292 295 292 291 291 288 289 286 287 288 289 289 288 288 288 287 285 286 288 287 287 286 286 286 284 281 278 277 276 276 276
284 288 286 285 290 289 292 293 293 294 293 292 290 293 292 292 291 291 289 287 287 287 287 288 288 287 286 288 288 288 288 288 287 284 281 278 277 276 276 277 276 275 275 274
287 288 287 287 289 292 293 296 296 295 293 291 291 293 293 292 291 291 290 288 288 288 289 288 287 287 286 287 287 287 287 285 281 278 278 277 276 275 275 275 274 274 274 276
288 287 285 284 290 291 292 296 296 294 292 291 290 292 292 293 291 291 289 289 287 286 283 285 285 285 286 285 284 285 285 281 278 277 277 276 276 276 276 276 276 285 284 285

GFSCGP_sfc_thetae_063.txt.gz
Theta_e
301 295 292 295 296 293 292 289 288 291 294 292 291 290 293 295 295 295 297 298 299 301 304 305 306 307 308 307 307 309 315 332 338 336 332 332 332 334 334 336 335 332 330 328
294 290 295 299 298 294 292 289 288 291 292 291 289 288 293 295 295 296 297 298 297 298 299 300 302 304 304 307 307 307 309 318 334 336 335 334 335 334 335 335 334 334 331 328
290 290 298 298 296 292 291 289 287 288 289 289 287 287 289 292 293 293 294 294 295 294 294 295 298 301 303 303 304 306 307 310 324 336 336 333 334 332 333 332 332 332 332 329
292 297 295 293 291 292 289 292 290 288 287 284 287 282 287 288 288 290 292 293 294 295 296 296 298 299 300 301 302 304 306 307 312 329 333 332 329 328 331 332 333 332 330 329
289 293 293 288 288 293 289 292 289 286 284 284 284 282 285 287 286 288 291 293 295 296 297 298 298 300 300 301 301 301 302 305 307 316 330 331 330 331 332 332 331 331 328 328
292 297 295 292 295 294 291 287 285 283 282 277 280 281 282 285 287 289 291 294 295 297 298 299 300 301 301 303 303 304 302 302 304 307 317 329 329 330 327 327 329 330 327 325
288 290 293 295 289 292 289 285 276 274 275 276 281 279 283 287 289 291 292 294 295 297 299 300 299 300 302 302 303 303 302 303 303 304 307 315 327 329 326 327 326 327 320 319
283 281 289 292 290 287 285 286 278 272 273 275 281 278 283 287 288 292 293 293 294 297 299 300 300 299 300 302 303 302 301 301 302 303 304 307 313 323 325 325 324 326 324 322
281 282 291 292 292 291 285 282 283 275 275 274 278 281 286 288 290 291 292 293 294 297 298 299 300 301 300 301 302 302 302 302 302 303 304 305 305 309 316 321 320 323 321 317
285 282 290 290 293 291 287 287 280 276 270 273 275 276 280 285 288 290 291 292 294 297 299 299 300 300 300 301 302 303 302 303 304 305 306 306 307 308 310 314 314 314 312 311
287 284 286 290 287 284 285 282 280 280 277 274 273 277 283 286 289 289 291 292 295 298 299 299 299 300 301 301 299 297 297 299 301 302 302 303 303 304 306 307 307 307 307 307
288 285 282 284 288 290 287 284 281 275 274 275 275 278 287 287 289 289 290 293 298 298 298 297 297 299 300 297 295 294 295 297 298 299 300 301 303 304 304 303 302 303 303 303
288 281 279 281 285 288 285 285 283 281 279 275 274 278 287 288 288 289 290 293 297 297 293 294 296 297 295 293 293 293 294 294 297 298 300 301 302 302 301 300 300 300 299 299
291 283 279 277 280 284 279 283 283 281 277 277 276 279 285 288 288 291 292 296 296 293 291 291 291 291 291 291 292 292 292 293 294 296 297 297 298 297 297 297 296 295 295 293
288 280 281 283 285 285 283 284 282 278 280 278 280 280 284 287 289 291 293 295 294 291 290 290 289 289 290 290 289 289 290 290 291 291 292 292 293 293 292 291 291 291 291 290
287 280 282 279 284 284 283 284 284 283 284 282 283 283 291 293 294 294 295 293 292 290 290 289 289 289 289 289 288 288 289 289 290 290 290 291 291 290 290 290 290 290 291 291
285 282 279 276 282 283 279 283 284 284 285 286 282 287 292 292 294 296 294 292 290 288 289 288 289 289 289 289 290 289 290 291 290 290 289 290 290 289 289 290 290 289 288 289
284 283 282 278 280 275 283 287 288 286 286 288 288 291 293 293 296 292 291 290 287 287 287 288 289 289 289 290 290 290 290 290 290 289 289 289 289 288 289 288 286 285 286 287
290 288 283 279 277 280 286 287 286 286 287 290 289 292 293 295 296 293 290 288 286 286 287 288 289 289 289 290 290 290 289 289 288 288 288 288 288 288 287 286 286 287 286 285
291 289 282 278 274 274 282 291 292 292 288 296 293 294 294 296 293 294 289 287 287 288 289 288 289 289 289 289 289 288 287 287 286 287 287 288 288 287 286 286 285 285 285 285
285 286 281 279 276 280 286 290 291 284 288 296 296 296 296 294 295 291 289 288 289 289 289 290 290 288 289 289 288 287 287 286 287 288 288 287 287 286 286 285 285 285 284 283
283 282 282 283 277 275 288 291 289 295 294 295 294 295 296 294 291 289 289 288 288 288 289 289 288 288 288 289 287 286 285 287 287 287 286 286 286 287 287 285 283 282 281 280
282 283 283 283 282 289 292 292 296 295 293 293 293 293 295 292 291 290 288 287 287 287 288 289 289 288 288 288 288 286 287 289 288 287 287 286 284 283 281 280 279 279 279 278
284 287 286 286 290 288 292 294 294 295 295 292 292 292 293 293 292 290 289 287 287 288 288 288 288 287 286 288 288 288 288 289 287 284 280 279 279 278 279 279 279 278 277 277
286 287 286 286 289 291 293 294 296 297 295 293 292 293 294 292 291 291 289 288 288 288 289 289 288 287 286 288 288 289 288 286 281 280 279 279 278 277 277 278 278 278 277 279
287 286 284 284 290 290 291 294 297 296 295 294 291 291 293 293 292 292 290 289 289 289 288 287 288 287 287 287 287 286 285 282 280 278 278 278 278 279 279 280 280 285 285 285

GFSCGP_sfc_thetae_066.txt.gz
Theta_e
302 295 291 295 299 297 296 294 292 295 297 299 298 298 299 303 304 303 304 305 306 307 310 311 312 314 314 315 316 317 318 325 335 339 335 334 334 335 336 339 342 340 338 336
296 290 296 300 300 297 295 293 292 293 298 296 295 295 298 301 301 302 303 304 305 305 306 307 307 309 310 312 315 316 317 318 324 334 338 339 338 338 337 337 337 339 338 337
292 293 299 297 297 294 295 293 292 292 293 294 293 293 296 296 296 297 298 300 301 301 301 303 304 305 307 309 311 313 315 315 318 325 333 336 337 338 336 335 335 336 336 338
293 296 296 294 294 295 289 296 295 292 292 288 292 287 291 292 293 297 299 301 302 303 304 305 305 306 306 307 308 309 310 312 314 319 326 331 330 330 332 335 337 338 335 334
288 291 290 287 293 296 291 296 294 293 290 290 289 288 289 292 292 295 299 301 303 304 304 305 306 307 308 309 309 308 308 309 312 313 320 328 329 330 333 335 335 336 335 333
292 298 295 293 295 295 293 290 290 291 290 284 288 287 287 289 292 295 298 301 303 305 306 306 307 309 310 312 311 311 309 307 308 311 314 321 325 328 330 332 332 334 334 331
289 289 293 295 288 292 291 290 283 282 282 283 285 284 288 292 293 297 298 301 303 306 307 307 307 307 309 311 311 310 310 308 309 309 310 312 319 326 328 329 330 331 329 328
285 282 289 292 291 289 290 290 285 278 280 282 285 283 288 292 295 298 298 299 302 305 306 307 307 308 308 309 310 311 311 310 309 309 309 311 314 316 324 328 329 329 330 329
285 284 292 293 293 293 289 288 288 283 281 283 285 286 290 293 293 296 297 299 302 304 305 306 307 308 307 308 309 309 308 310 311 312 312 311 312 312 314 320 325 326 328 327
290 284 291 291 295 293 292 292 285 286 279 278 281 283 286 289 292 295 297 298 300 304 305 305 305 306 308 308 308 307 306 307 308 310 311 311 313 314 315 316 317 319 321 321
292 290 287 291 289 288 288 288 286 287 284 282 280 283 293 293 295 294 296 297 301 303 304 303 304 305 306 305 304 303 303 304 306 307 308 308 309 310 312 312 312 313 313 313
293 290 285 286 291 293 291 289 288 285 281 283 283 284 292 296 295 294 295 297 302 303 301 302 304 305 303 301 301 301 301 302 304 306 308 308 309 310 310 309 309 309 309 309
293 288 282 283 288 291 288 289 287 286 286 282 283 283 292 294 293 296 295 298 301 300 299 301 301 300 299 299 299 299 299 300 302 304 305 305 305 306 305 305 305 303 303 301
295 288 286 283 284 288 285 287 287 287 284 284 285 286 290 292 294 297 298 299 301 299 297 298 298 298 298 297 296 296 296 297 299 300 300 299 298 299 298 298 296 294 294 293
293 286 286 286 287 287 287 287 286 284 287 286 286 286 291 293 295 298 300 300 299 296 296 295 294 296 296 295 295 295 295 295 297 297 297 296 295 295 293 293 292 293 292 291
292 286 287 284 287 287 285 287 288 287 288 287 287 287 295 298 297 297 300 298 296 293 293 293 292 293 294 294 294 294 294 294 295 295 294 294 293 293 292 292 291 292 292 292
290 288 286 282 285 285 283 286 287 288 289 289 286 292 296 295 295 297 298 296 293 292 293 292 292 292 293 294 294 293 294 294 293 292 293 292 293 292 291 291 290 288 288 288
289 288 287 284 284 278 286 291 291 289 290 292 292 293 295 295 297 296 295 295 292 290 292 292 292 291 293 294 294 294 294 293 292 291 292 291 291 290 289 289 287 286 286 286
294 290 285 283 282 285 289 289 289 289 292 294 293 294 295 297 297 297 294 292 290 291 292 292 292 291 292 292 293 292 292 292 291 290 290 290 290 289 288 287 286 287 287 286
292 292 288 284 278 278 288 294 296 295 289 297 295 296 296 298 295 300 293 289 289 291 292 291 291 291 291 291 292 291 290 289 288 289 289 289 288 288 287 287 286 285 286 286
287 287 284 284 282 285 291 292 295 287 291 299 298 298 298 297 297 295 290 290 292 292 291 291 291 291 291 291 290 288 288 287 288 289 289 289 289 288 287 286 286 286 286 286
286 285 284 285 281 279 293 294 291 297 299 297 298 299 299 298 292 291 291 291 291 291 291 291 290 290 291 291 289 288 286 288 288 288 287 287 288 288 288 286 286 285 285 284
286 289 287 288 288 293 295 297 299 299 296 297 298 299 299 296 292 291 290 291 290 291 290 290 290 289 289 289 290 287 288 289 289 289 288 288 288 287 285 284 284 283 283 283
292 293 290 290 294 294 296 299 299 299 299 298 298 298 298 297 296 292 291 290 289 290 290 290 289 288 287 289 290 289 290 290 290 288 287 285 284 284 284 284 284 283 283 282
293 293 292 291 295 297 297 299 300 300 299 298 297 297 298 298 295 293 291 291 291 290 290 290 290 288 288 289 289 290 291 291 288 285 284 284 283 282 282 283 283 282 283 283
293 292 290 289 296 296 297 299 298 298 299 299 297 296 298 298 297 294 291 292 291 291 291 290 291 289 289 290 291 291 289 289 285 283 283 283 283 283 284 284 285 286 286 285

GFSCGP_sfc_thetae_069.txt.gz
Theta_e
302 295 289 295 297 298 296 294 293 296 300 298 297 297 299 302 303 303 305 306 307 308 311 312 314 315 316 317 318 319 320 322 331 336 338 337 335 338 341 343 342 341 339 337
296 291 297 299 298 296 295 293 293 296 299 297 297 296 300 302 302 303 304 305 305 307 308 310 311 312 313 314 316 317 318 319 321 329 339 337 336 335 337 339 341 342 341 340
292 293 299 296 295 293 295 293 293 293 296 297 295 293 296 300 302 303 303 304 305 305 305 306 307 308 310 311 313 315 317 318 320 322 328 338 338 340 338 336 336 336 340 342
294 298 296 295 293 295 291 298 296 294 291 286 294 285 294 298 296 297 300 302 303 304 305 306 306 307 308 309 311 312 314 315 317 320 320 325 331 331 334 336 337 336 337 337
289 294 295 293 292 295 293 298 297 295 292 292 290 287 292 294 293 296 300 302 304 305 306 306 307 309 310 312 312 311 310 311 313 314 316 320 324 330 332 332 332 335 338 337
293 298 295 294 295 296 296 296 294 294 292 285 291 289 287 291 294 297 300 302 304 305 307 307 309 311 312 314 313 313 311 309 310 312 313 316 321 326 328 329 330 331 334 337
289 289 293 294 288 293 293 290 283 282 282 284 290 287 290 293 297 298 299 302 305 307 308 308 308 309 310 312 313 313 312 310 311 311 311 313 316 322 325 327 328 328 330 332
285 282 287 292 291 288 290 289 286 280 282 284 287 284 290 295 298 300 302 303 305 306 308 308 309 310 310 311 312 312 312 312 312 312 311 312 313 314 317 322 326 328 328 330
286 284 291 293 294 294 289 287 291 285 286 285 286 289 292 293 295 298 299 301 304 306 307 307 308 310 310 310 310 309 309 310 311 312 313 313 313 313 313 316 320 323 326 327
291 284 290 292 295 294 292 293 286 288 280 280 284 286 287 289 292 296 298 300 303 305 306 306 307 307 309 309 308 308 308 308 309 310 311 311 313 313 314 316 316 317 319 320
295 291 288 292 290 289 290 289 288 288 286 283 280 284 295 292 295 296 298 299 302 304 305 305 306 308 307 306 306 305 305 306 307 308 310 310 311 311 312 313 313 313 313 314
295 292 285 288 293 294 293 291 291 286 283 285 285 284 296 297 297 297 298 299 303 304 303 304 306 305 304 303 304 303 303 304 305 307 309 309 309 310 309 309 309 309 309 310
295 290 283 284 289 292 289 291 291 289 289 284 283 284 296 298 296 296 297 300 302 303 302 303 303 302 301 301 300 300 300 301 303 305 305 304 304 303 302 301 301 302 301 300
297 291 287 284 286 290 287 289 290 286 285 286 287 286 290 294 294 297 299 301 303 302 301 301 301 300 300 299 299 298 298 299 300 301 301 299 299 298 298 297 296 296 295 294
295 287 288 289 289 289 288 288 288 284 288 287 288 288 291 294 296 298 301 302 303 301 299 299 299 299 299 298 298 298 297 298 299 299 298 297 297 296 295 294 294 293 293 293
295 288 289 285 288 288 286 289 289 288 289 289 289 289 296 298 300 299 301 302 300 298 297 297 296 297 297 297 297 297 296 296 297 296 296 296 296 295 294 294 294 293 293 293
292 290 287 284 287 287 284 288 289 290 291 291 286 292 297 296 297 298 300 300 298 296 296 296 296 296 296 296 297 296 296 296 295 294 294 294 294 293 292 292 291 290 289 289
291 290 289 285 286 279 288 293 293 291 292 293 293 295 296 297 299 299 300 300 297 295 294 295 295 295 295 297 297 296 296 295 294 293 293 293 292 290 290 289 288 287 287 287
295 291 287 283 283 287 289 291 290 290 291 295 293 295 298 299 298 298 299 298 295 293 295 295 296 295 294 295 295 294 294 294 293 291 290 291 290 289 288 287 287 288 287 286
293 293 288 285 280 279 290 295 298 297 289 298 297 297 297 299 295 299 296 293 291 294 295 294 293 293 293 293 294 292 292 291 290 290 290 290 289 288 287 287 286 286 287 286
287 288 285 285 283 286 293 294 296 287 290 298 298 299 298 298 299 298 293 291 294 295 293 293 292 292 292 292 292 290 289 287 289 290 289 289 289 287 287 286 287 287 287 287
287 285 284 285 282 280 297 295 290 297 300 300 300 300 300 300 295 293 292 292 293 293 292 292 291 291 292 292 290 288 287 288 289 289 288 288 289 289 289 288 288 286 286 285
286 290 288 289 288 296 297 298 299 300 299 299 300 301 300 299 294 293 292 293 293 293 292 292 290 291 290 290 289 288 288 289 289 289 289 290 290 288 287 286 285 284 284 283
293 295 291 291 295 295 297 300 302 300 300 300 300 299 299 299 298 295 293 293 293 293 292 292 291 289 288 289 290 290 290 291 291 290 290 287 285 285 285 285 285 284 283 282
294 295 293 293 296 297 299 300 302 300 301 299 299 300 299 300 299 295 294 293 293 292 292 291 290 289 288 289 289 291 292 292 290 288 285 285 285 284 283 283 284 283 283 284
295 293 291 290 296 297 298 301 300 299 299 299 299 300 300 300 300 297 294 294 294 292 292 290 291 289 289 290 291 292 293 292 287 285 284 284 283 284 285 284 284 286 285 285

GFSCGP_sfc_thetae_072.txt.gz
Theta_e
299 293 290 293 295 296 295 293 291 294 298 297 296 296 298 300 299 300 301 300 301 303 305 306 307 306 308 311 313 313 315 319 332 338 333 333 336 334 335 336 336 334 332 330
293 289 295 297 297 295 295 292 291 295 298 295 295 294 298 300 299 300 301 301 301 301 303 304 306 304 307 308 309 310 312 314 316 323 336 334 334 334 336 332 335 337 334 332
289 292 296 297 294 293 292 290 291 292 295 292 290 290 295 298 300 300 302 301 300 300 300 301 302 303 304 304 305 308 311 311 313 315 321 333 332 330 329 331 335 335 334 334
292 298 296 295 293 294 289 295 295 294 289 283 291 281 291 296 297 299 296 297 298 298 300 302 303 303 304 305 306 306 307 307 310 312 312 318 330 327 330 331 332 332 334 334
289 293 293 291 292 296 291 297 296 294 289 287 286 281 289 294 293 293 294 297 299 300 301 302 303 306 307 307 306 306 305 306 307 308 309 309 310 318 326 327 329 329 330 331
293 298 295 294 296 295 295 292 294 293 289 281 286 283 283 288 291 293 296 299 300 300 301 304 306 308 308 309 308 307 306 305 305 305 306 307 307 310 316 321 320 322 324 330
289 289 293 295 291 293 290 287 282 281 280 277 289 284 286 292 295 296 296 298 301 302 302 303 303 304 306 306 308 309 309 306 306 306 305 305 306 309 312 317 319 321 321 324
284 280 289 292 291 288 287 289 284 277 276 278 286 279 284 292 297 299 299 301 302 302 303 304 304 304 305 306 306 305 306 307 308 308 308 306 305 306 308 309 313 318 320 321
282 282 290 292 294 294 289 286 290 283 283 277 280 283 287 289 294 296 297 299 301 302 303 303 303 304 305 305 304 303 304 305 306 306 306 306 307 308 308 309 309 312 316 319
290 283 290 291 295 293 292 294 283 285 278 276 279 280 281 285 290 294 295 296 300 302 303 302 302 303 304 303 302 302 302 303 304 305 305 306 306 307 308 308 308 308 309 310
293 289 287 291 289 288 288 286 287 286 283 278 274 278 288 288 291 292 295 297 300 301 301 301 303 303 302 301 300 300 300 301 302 303 305 304 305 306 306 305 305 305 306 306
294 289 284 287 292 294 291 291 289 279 278 281 279 277 291 291 293 295 295 297 300 301 300 302 302 300 299 298 298 297 298 299 300 302 302 300 301 300 298 297 298 300 298 298
293 286 280 283 287 290 287 290 290 287 286 282 277 278 292 291 291 293 294 296 300 301 300 301 299 298 297 296 296 295 295 296 298 299 297 296 296 295 293 293 293 293 292 291
296 288 282 277 283 287 281 287 288 285 280 282 281 283 289 290 291 292 294 297 299 299 299 299 297 296 295 295 295 294 294 295 296 297 295 293 292 292 292 292 291 292 291 290
292 282 284 287 288 288 287 286 286 279 284 278 284 285 288 292 292 293 297 298 299 298 297 297 296 295 295 294 293 294 293 294 295 294 293 292 293 292 291 291 292 291 291 291
292 283 285 281 288 287 284 288 288 287 286 286 287 286 292 294 294 296 295 299 299 298 296 295 295 294 293 292 293 293 293 293 293 293 292 293 292 292 292 292 291 291 291 291
289 286 282 277 285 285 280 286 287 288 288 288 283 288 293 293 295 295 296 298 298 296 296 295 294 293 293 293 293 292 292 292 292 291 292 292 291 291 290 290 289 288 287 287
288 287 285 279 281 275 285 290 292 289 291 291 291 292 294 293 294 294 296 296 295 294 295 295 295 292 292 294 293 293 292 291 291 290 291 292 290 289 289 288 287 287 287 286
291 288 283 278 279 284 287 289 288 287 288 292 291 292 294 296 294 293 297 295 294 293 294 294 293 292 292 294 294 291 291 291 290 289 290 290 289 288 288 287 286 287 285 285
291 290 284 283 277 277 288 293 295 295 288 293 293 293 295 296 290 293 292 291 292 294 293 291 290 293 292 293 293 292 291 290 289 289 289 289 289 288 286 287 285 286 287 286
286 286 281 282 279 283 293 294 294 286 288 297 296 296 296 294 295 293 291 291 292 293 291 290 290 291 291 292 292 290 289 287 289 290 289 288 288 287 287 286 285 284 282 280
285 283 283 284 280 276 294 292 288 295 298 298 298 297 297 295 294 292 292 291 293 290 290 290 290 290 292 292 290 288 286 288 289 289 288 288 288 288 287 284 282 283 282 280
283 286 284 284 284 292 295 295 296 296 296 296 297 297 297 296 294 293 291 292 292 290 289 290 290 290 290 290 290 287 287 289 289 289 288 288 287 287 286 281 280 279 279 278
289 291 287 287 291 292 294 297 297 297 296 297 298 296 297 296 295 293 293 292 292 291 289 289 288 288 287 289 289 289 289 290 290 289 289 286 281 280 280 281 280 279 278 277
289 290 289 288 291 292 294 296 297 297 297 296 298 297 297 298 296 294 293 292 292 290 290 289 288 288 287 289 289 290 290 291 290 286 282 280 281 279 278 281 279 278 279 280
290 289 286 286 292 292 294 296 298 296 295 295 295 296 297 298 297 294 293 293 293 290 289 289 290 289 288 289 289 291 292 291 285 281 280 279 278 278 280 280 280 286 285 285

GFSCGP_sfc_thetae_075.txt.gz
Theta_e
297 292 290 292 293 293 291 290 288 292 296 294 293 294 297 299 298 298 298 299 300 302 303 304 305 305 305 306 310 314 323 337 336 333 330 330 332 332 333 334 333 330 329 328
289 288 294 297 295 295 292 289 288 291 296 296 292 293 297 299 298 298 300 300 300 298 300 301 303 302 304 304 305 307 309 312 328 337 335 331 330 331 332 332 334 336 334 329
286 290 297 296 294 292 291 288 288 289 292 294 291 288 292 298 299 299 301 301 300 299 299 299 301 302 303 303 303 305 305 307 309 313 332 330 331 328 328 329 331 332 333 333
286 293 294 293 291 293 289 294 294 293 289 283 288 279 286 293 297 297 298 299 298 298 299 300 301 302 304 304 304 305 305 305 306 306 310 328 327 327 326 327 330 330 331 330
286 291 291 292 292 294 289 296 294 294 291 284 285 280 283 290 293 296 295 294 296 298 300 301 302 305 306 306 305 305 304 304 304 304 305 306 310 316 324 328 328 329 328 329
292 298 295 294 295 295 295 292 293 292 289 281 283 281 280 286 292 293 294 294 297 299 301 303 304 307 307 307 307 306 304 304 305 304 303 304 304 304 307 314 322 325 325 326
289 289 294 297 291 294 292 287 282 280 281 276 285 281 283 288 292 294 294 296 297 298 300 302 303 304 305 305 305 306 306 306 306 306 306 303 302 303 305 309 314 318 319 319
283 281 289 293 291 289 288 288 283 277 274 277 285 279 285 289 293 297 298 299 299 299 300 302 303 303 304 304 303 303 304 304 305 305 305 306 305 304 305 306 308 312 315 318
281 283 291 294 295 294 289 285 290 282 280 277 280 281 287 290 292 295 298 300 298 300 301 302 302 303 303 302 301 301 302 302 303 304 305 305 305 306 306 307 307 308 310 314
286 282 290 292 295 294 292 293 284 282 276 274 277 277 280 284 289 293 295 297 299 300 300 300 301 301 301 300 300 300 301 301 302 304 304 304 304 305 305 304 304 305 305 306
290 285 287 290 289 287 288 287 287 286 283 277 272 277 285 287 291 291 293 297 300 300 299 299 300 300 299 298 297 297 298 300 300 302 300 299 298 298 298 298 298 298 298 298
293 289 283 287 293 294 293 290 288 278 278 280 276 279 289 288 291 292 293 297 299 299 299 300 299 298 296 295 295 294 296 297 298 298 297 296 295 294 293 292 292 292 291 291
292 284 279 282 287 290 286 290 290 286 284 279 277 278 290 291 291 293 293 297 299 298 299 299 297 296 295 294 294 294 294 295 296 295 294 293 292 291 290 290 291 291 290 289
295 286 279 276 281 284 280 286 286 281 275 279 279 282 288 290 290 291 293 295 298 298 299 297 295 294 293 293 293 293 293 295 295 294 292 291 290 290 290 290 290 290 290 289
290 281 283 285 287 287 285 285 284 278 283 278 284 284 288 290 290 290 292 295 297 297 297 296 295 293 293 292 292 292 293 294 294 293 292 291 291 291 290 290 290 291 290 291
290 281 283 278 286 286 283 286 286 285 286 285 285 285 291 294 293 292 293 296 297 296 296 296 295 293 292 291 292 292 292 292 293 292 291 291 291 292 291 291 290 290 290 290
287 283 279 275 284 283 278 284 285 286 287 286 282 287 291 291 293 294 295 297 297 296 295 294 293 292 292 292 292 290 291 291 291 290 290 290 291 290 289 290 288 288 287 287
286 285 283 277 279 273 283 289 290 288 289 289 289 290 293 293 294 295 296 297 296 295 294 294 294 293 293 292 291 291 291 290 290 289 290 291 290 289 289 287 287 286 286 285
290 286 281 277 276 281 285 287 287 286 286 291 290 291 293 295 294 293 295 294 294 293 293 293 294 292 291 292 293 292 289 288 288 288 289 290 289 288 288 286 286 286 285 285
290 287 282 281 274 276 286 289 292 292 286 292 292 291 292 294 288 292 290 290 291 292 293 292 291 291 291 292 293 291 289 289 289 288 289 289 289 288 287 286 286 286 286 285
283 282 278 279 276 282 290 292 293 286 285 294 294 294 295 293 293 293 290 289 291 291 291 290 290 290 292 293 292 289 289 288 289 289 288 288 288 287 287 286 286 284 278 278
282 283 283 283 280 275 292 291 288 293 296 298 297 295 295 294 291 290 290 291 292 290 290 289 289 290 292 292 290 288 287 289 289 288 287 287 287 288 287 284 281 281 280 278
282 284 283 283 282 290 294 293 295 297 295 295 296 296 297 295 293 292 291 292 291 290 289 289 288 290 290 290 290 287 288 289 289 288 287 288 288 285 284 281 280 279 278 277
287 290 285 286 289 289 293 295 296 296 295 296 296 296 297 296 294 292 292 292 291 290 288 288 288 286 286 288 289 289 289 290 289 288 288 285 284 283 282 280 279 277 276 275
288 289 287 286 289 290 292 295 296 296 296 295 296 296 296 296 294 292 292 291 292 290 288 288 287 286 287 288 289 290 290 290 289 289 286 282 280 278 278 279 276 276 278 278
289 288 286 285 291 292 292 294 295 295 294 294 293 294 297 297 297 294 291 292 292 290 289 287 287 287 288 289 289 290 291 291 288 284 279 279 278 276 278 279 279 286 285 286

GFSCGP_sfc_thetae_078.txt.gz
Theta_e
295 290 288 291 293 293 290 289 290 290 295 293 292 293 297 300 298 297 299 299 300 301 302 303 303 305 304 311 325 330 332 334 332 331 329 328 329 331 332 330 329 326 326 326
289 286 293 296 295 293 292 288 286 290 295 293 293 293 296 298 298 297 298 299 300 299 298 300 302 300 303 303 306 310 314 326 333 332 331 331 330 329 331 332 332 332 328 326
284 288 296 295 293 291 290 287 286 287 291 291 290 290 293 296 299 298 299 300 301 299 298 297 299 301 301 302 302 304 305 306 311 326 331 329 329 327 327 328 329 332 332 331
285 291 291 290 291 292 287 294 293 292 286 282 289 280 287 294 295 298 297 297 298 297 297 298 300 301 302 303 303 303 304 304 305 306 318 328 329 327 326 326 327 328 329 329
283 287 289 288 291 294 289 296 293 292 288 286 284 282 284 288 291 295 299 299 297 296 298 299 301 304 304 305 304 303 302 302 302 303 305 314 319 321 322 324 325 326 326 328
288 296 295 293 295 295 295 293 293 293 290 282 283 283 280 284 289 293 298 297 295 296 299 301 303 305 305 305 305 303 305 305 305 302 301 303 303 304 305 308 316 322 325 325
287 291 294 297 290 294 291 288 280 279 281 276 284 282 286 286 290 292 295 294 296 298 299 301 303 304 304 304 303 305 305 304 305 304 304 302 301 301 304 306 310 315 317 319
283 280 290 294 292 290 289 284 275 272 275 276 284 279 284 287 290 292 294 296 297 297 298 300 302 303 303 302 302 303 303 303 304 304 304 304 305 305 305 305 308 311 315 317
281 283 292 294 294 292 289 286 289 278 278 273 279 282 287 289 289 292 294 296 296 298 300 300 300 301 301 300 300 301 301 302 303 304 304 303 304 304 304 304 305 306 308 312
286 282 290 293 295 293 292 292 284 284 277 273 276 277 281 284 288 292 294 294 297 300 299 299 300 299 299 299 299 299 300 300 301 302 301 301 300 301 300 301 300 301 301 305
289 285 286 290 288 288 289 287 287 285 280 274 271 277 285 287 291 292 293 296 297 299 299 299 299 298 297 296 296 297 298 299 299 298 296 294 293 293 293 293 293 293 294 296
291 288 282 286 291 294 292 288 287 275 278 274 274 278 287 287 291 293 294 297 298 298 299 299 297 296 295 294 294 294 295 297 296 295 294 293 292 292 291 290 290 291 290 290
292 284 280 282 287 291 288 291 291 285 279 274 273 278 289 289 290 293 294 297 297 297 298 298 296 295 294 293 293 293 294 295 294 293 292 291 290 290 289 289 290 290 290 289
295 285 279 277 280 284 281 286 288 282 273 277 277 281 286 288 290 291 294 297 296 297 298 296 295 294 293 293 292 292 293 294 293 292 291 290 289 289 289 290 290 290 289 289
289 281 283 284 287 286 284 284 284 279 282 278 282 283 288 290 290 292 293 296 296 296 297 296 294 293 292 292 291 292 292 293 292 291 291 290 290 290 290 290 290 290 290 290
289 281 281 278 285 284 282 285 285 284 285 284 284 284 292 293 292 290 290 293 296 296 296 296 295 293 291 290 291 291 291 292 292 291 290 291 292 291 291 290 290 290 290 290
286 282 279 275 282 282 278 283 284 285 286 286 282 287 289 291 292 292 292 294 296 296 296 295 295 293 291 291 291 290 290 291 291 290 290 290 291 290 290 289 289 288 287 288
285 283 281 276 278 273 282 287 289 287 288 288 288 289 291 292 293 293 295 295 296 296 295 294 293 292 292 293 292 291 291 290 290 289 289 291 290 289 288 288 287 286 286 286
288 284 280 277 276 279 283 286 286 285 285 290 289 290 292 293 293 292 295 295 297 296 294 293 293 293 293 291 291 290 290 290 289 288 290 290 289 288 287 286 286 286 286 285
287 286 281 277 274 275 283 288 290 291 283 291 291 290 292 293 286 290 291 291 292 292 293 293 293 292 291 290 291 290 289 288 287 289 289 289 289 288 287 286 286 285 282 280
281 283 279 278 275 280 286 291 293 283 283 292 291 291 292 291 292 293 290 289 291 291 291 291 291 290 290 292 292 290 289 288 289 289 289 289 289 288 287 286 286 284 277 278
281 279 279 280 278 273 291 289 289 291 296 296 294 294 294 293 291 290 290 290 290 290 291 290 288 289 291 292 291 289 288 289 289 289 288 288 287 288 287 286 280 280 279 278
282 284 282 282 281 288 292 292 294 298 295 295 297 296 296 293 292 291 290 291 291 290 290 289 288 288 290 291 291 288 288 289 288 288 287 288 288 287 286 281 280 279 278 277
285 287 286 286 287 289 292 293 295 295 295 295 296 296 298 296 295 292 292 291 291 290 289 288 288 286 286 288 290 290 289 289 289 287 287 288 286 284 281 281 280 277 276 275
286 288 286 285 288 289 291 293 295 295 295 295 296 295 295 296 295 293 292 291 291 290 289 288 287 286 285 286 287 290 290 290 289 288 287 285 283 282 279 278 276 275 275 277
288 287 286 285 290 290 291 293 295 295 294 293 293 293 296 297 296 294 292 291 291 289 288 288 287 286 286 287 289 290 290 290 289 288 284 282 279 276 278 277 277 284 285 286

GFSCGP_sfc_thetae_081.txt.gz
Theta_e
295 291 287 290 294 291 290 288 286 289 293 293 291 291 296 299 299 299 301 305 301 301 304 304 303 305 313 320 326 330 331 332 331 330 328 327 328 330 330 326 326 325 327 327
288 286 291 295 295 292 291 288 286 289 294 292 291 291 296 298 298 299 299 300 299 299 300 299 300 300 305 304 315 324 328 330 331 330 329 329 328 329 331 331 329 327 325 325
284 287 293 294 293 291 289 288 286 287 290 290 288 288 293 297 297 298 299 299 299 299 297 297 298 298 299 301 302 307 311 315 327 329 330 328 328 327 326 328 329 330 329 327
285 290 291 290 291 293 287 292 291 290 285 281 289 279 286 295 296 296 299 298 298 297 296 297 299 300 301 301 302 303 303 304 305 310 326 327 328 325 325 326 327 327 328 329
284 286 289 287 291 294 291 296 293 291 286 281 281 281 284 287 290 295 298 300 298 297 297 298 299 302 303 303 302 302 301 301 301 302 305 319 323 324 323 323 324 325 326 327
287 292 293 292 294 295 296 293 292 291 287 280 282 282 281 284 288 290 296 297 298 297 297 299 302 304 304 303 303 304 305 304 304 301 301 303 311 312 311 310 315 319 322 323
285 289 293 296 288 295 293 288 280 280 280 277 282 282 286 287 288 290 292 294 295 295 297 299 302 303 303 302 303 304 304 303 304 304 304 302 301 301 302 303 306 310 314 317
281 280 289 292 291 290 288 285 275 272 276 277 282 278 284 289 291 291 291 294 294 295 298 300 301 302 301 301 302 302 302 302 303 303 303 304 305 305 305 305 308 310 313 316
282 283 292 293 295 294 289 282 287 278 276 272 278 281 286 287 289 289 290 293 294 296 298 300 301 301 299 299 300 300 300 301 302 302 302 302 302 303 303 303 304 305 307 311
286 283 291 292 295 293 289 291 282 284 269 271 275 276 280 284 287 289 290 292 294 297 298 298 299 298 298 298 298 299 299 299 299 298 299 297 297 298 298 298 298 299 301 304
289 286 286 291 289 287 288 287 286 283 279 273 271 277 283 285 288 289 291 293 295 297 298 298 298 297 296 296 296 297 298 298 296 295 293 292 291 292 291 291 291 292 293 295
291 287 282 286 291 293 290 288 287 275 279 278 271 277 286 285 288 292 292 296 296 297 297 297 296 295 294 294 294 295 296 296 295 293 292 291 291 290 289 289 289 290 289 290
291 284 280 282 287 290 288 290 290 285 279 272 273 278 288 286 289 293 294 296 296 296 297 296 295 295 293 292 292 293 294 293 293 292 291 290 289 289 288 288 289 289 289 289
294 285 280 277 280 286 285 287 288 286 280 277 275 281 285 286 289 292 296 297 296 297 297 295 294 294 293 292 292 292 293 293 292 291 290 289 289 288 289 289 289 289 289 289
288 281 282 283 286 285 284 284 286 284 284 279 281 281 286 287 289 291 294 296 296 296 296 295 293 293 292 292 291 292 293 292 292 291 290 289 289 289 289 289 289 289 289 289
288 280 282 279 285 285 283 285 286 287 286 284 284 283 289 291 290 291 292 295 295 296 297 296 294 292 291 291 290 291 292 291 291 290 290 290 291 291 290 290 290 290 290 290
285 282 278 273 282 282 277 282 284 285 285 286 282 287 289 289 291 291 291 294 296 296 296 297 295 294 291 291 291 290 291 291 290 289 289 290 291 290 290 289 289 288 288 289
284 282 281 276 277 272 280 286 287 287 287 287 287 289 290 290 292 292 292 293 294 296 295 295 294 292 292 291 291 290 290 290 290 288 289 290 290 289 289 288 287 287 287 287
287 283 280 276 275 278 281 285 285 284 284 289 289 289 291 291 292 291 295 295 295 297 296 295 293 292 291 291 291 291 289 289 289 288 288 290 290 288 287 286 286 286 286 286
286 285 280 276 273 273 281 287 289 289 281 290 290 290 291 291 286 289 294 292 293 293 293 293 292 291 291 290 291 289 289 289 289 289 289 290 289 288 287 286 286 285 285 284
282 283 281 278 274 279 285 290 290 279 281 291 290 290 291 290 290 292 291 290 290 291 291 291 291 291 291 291 289 288 288 288 289 290 290 289 289 288 287 286 286 282 280 279
280 278 278 280 279 273 289 289 285 289 294 293 291 291 292 292 291 290 290 290 291 290 291 290 290 290 290 290 290 289 288 289 289 289 289 288 288 288 287 286 284 280 279 278
280 283 281 281 280 287 289 290 291 297 296 294 296 295 295 292 292 291 290 290 290 291 290 290 290 289 289 290 291 289 289 289 288 288 288 287 288 287 287 283 280 278 278 277
284 287 285 285 286 287 290 292 294 294 295 294 295 296 298 296 295 293 292 291 291 290 289 289 289 286 286 288 290 290 289 289 288 287 287 288 286 286 284 282 280 278 276 275
286 287 285 285 288 288 290 292 294 294 295 295 295 295 295 296 296 295 292 291 291 289 290 289 288 286 286 286 288 290 290 290 288 288 287 287 286 285 282 280 278 276 276 277
288 287 285 284 290 289 289 292 295 294 293 293 293 293 294 295 296 295 293 292 290 289 289 288 287 286 286 286 287 289 290 290 289 287 287 286 285 282 279 277 275 283 283 285

GFSCGP_sfc_thetae_084.txt.gz
Theta_e
288 288 284 289 293 289 288 287 287 290 294 294 289 291 293 297 302 303 304 306 306 304 305 306 305 310 322 325 327 329 331 332 332 329 327 327 329 328 326 325 328 328 330 328
285 284 290 295 293 292 288 288 286 289 293 291 290 290 294 295 297 301 304 305 306 306 302 302 303 301 306 317 322 325 327 329 331 330 328 328 327 328 329 329 326 326 325 325
282 287 294 291 291 290 288 287 285 286 290 289 288 287 291 294 296 296 299 304 306 306 305 300 299 301 300 303 308 317 324 327 329 329 329 327 327 325 325 327 328 327 326 325
285 292 291 288 287 291 286 291 291 288 286 283 286 280 284 292 294 295 297 297 301 303 298 297 297 298 299 300 302 304 305 307 311 325 327 325 326 325 325 325 326 327 328 327
282 287 287 286 288 293 289 294 291 289 284 282 280 280 283 286 289 295 298 298 299 300 298 298 298 300 301 301 301 300 301 301 301 303 309 322 324 324 323 323 324 324 325 327
286 292 291 289 290 295 296 292 291 289 285 276 281 281 280 283 287 289 294 297 299 300 298 298 299 302 301 300 301 303 304 304 303 301 300 301 309 316 316 316 317 319 321 323
285 288 293 294 287 294 294 286 281 280 280 276 281 280 285 286 288 290 291 294 297 298 297 298 300 301 300 300 301 303 303 303 304 304 303 302 300 300 302 304 305 307 311 315
279 279 289 293 289 289 290 285 275 271 274 276 281 278 284 289 291 292 292 293 293 295 297 299 301 301 300 301 300 301 302 302 303 303 303 303 304 304 303 304 306 308 311 314
280 282 291 292 294 293 288 284 284 276 274 273 278 280 286 286 288 289 289 291 291 293 296 299 300 300 299 299 299 300 300 300 301 301 301 301 301 301 301 301 302 303 304 311
286 282 290 290 295 293 290 290 280 281 269 271 275 274 280 284 286 287 289 289 291 294 296 298 299 298 297 297 298 298 299 298 297 297 297 296 295 296 296 296 295 297 299 302
289 286 286 288 287 287 288 284 286 282 277 272 271 277 282 284 285 286 289 290 292 295 296 296 296 296 296 296 296 297 298 296 294 293 292 291 291 291 291 291 290 291 292 294
290 287 282 285 291 293 289 287 285 276 276 277 271 277 286 284 285 287 290 293 294 296 296 296 294 294 294 294 295 295 295 294 293 292 291 290 290 289 289 289 289 290 289 290
290 284 280 282 286 289 287 287 286 282 279 278 273 278 287 286 287 289 291 293 294 295 295 294 293 292 292 292 293 294 294 292 292 292 290 290 289 288 287 288 289 289 289 289
295 285 281 277 280 285 284 285 286 281 273 277 276 280 286 287 288 289 291 293 293 295 296 293 292 292 291 292 293 294 293 292 291 291 290 289 288 288 288 288 288 289 288 288
289 281 281 283 285 285 283 284 285 281 283 278 279 281 286 287 287 289 293 295 295 294 295 294 293 292 291 291 291 293 292 291 291 290 289 288 289 288 288 289 288 289 289 288
287 282 282 279 284 283 282 284 285 286 286 283 284 282 288 289 287 289 292 294 295 296 296 295 294 292 290 290 290 292 291 291 291 289 289 289 289 289 289 290 290 289 289 289
285 281 279 274 282 281 278 282 284 285 286 287 282 288 290 287 289 290 291 295 296 296 297 296 295 293 291 290 290 291 291 291 290 290 290 290 291 291 290 290 290 289 289 290
283 282 281 277 278 272 281 285 287 286 286 288 287 287 289 289 290 291 292 294 295 296 296 297 296 293 292 291 290 290 291 290 289 288 289 290 290 289 289 289 288 288 288 288
286 283 280 276 275 278 282 284 284 284 284 289 288 290 289 290 289 290 293 293 294 295 296 297 296 294 292 292 291 289 289 289 289 288 289 289 290 289 288 287 287 287 287 286
285 284 280 276 273 273 280 287 288 288 280 289 289 289 289 290 285 288 293 293 294 295 296 294 293 292 291 290 290 289 288 289 287 288 290 290 290 288 287 287 286 285 286 285
281 284 278 281 276 278 284 287 289 279 281 291 289 289 289 289 289 290 290 291 291 292 291 292 291 291 291 290 290 289 289 288 289 290 290 290 289 288 287 286 286 285 284 281
280 277 277 282 279 273 286 287 284 288 294 294 290 288 290 290 290 289 289 290 290 290 291 291 290 289 289 289 289 287 287 289 290 290 289 288 288 288 287 286 284 283 281 279
280 282 280 281 280 286 287 290 291 296 296 294 296 292 293 291 290 290 289 289 290 290 290 290 289 289 289 289 289 287 288 290 289 289 288 288 288 287 287 284 282 280 279 278
284 286 284 284 286 286 288 290 292 293 295 293 294 296 296 294 293 293 292 290 290 290 288 289 288 289 288 288 289 289 289 290 289 288 288 287 286 286 285 284 282 279 278 277
286 286 285 284 287 287 289 291 292 293 295 294 294 294 295 296 296 295 294 293 291 290 289 288 289 288 288 287 287 288 290 290 288 288 287 287 286 286 284 282 280 278 278 279
287 287 285 284 289 288 288 290 293 294 293 292 293 293 294 294 294 295 294 293 291 290 289 288 289 288 287 286 288 290 290 290 288 287 286 286 286 284 284 280 278 285 284 285

GFSCGP_sfc_thetae_087.txt.gz
Theta_e
288 285 285 288 290 290 290 289 289 291 295 295 294 293 296 301 303 303 305 308 308 309 312 309 309 314 327 330 331 333 334 334 332 332 332 333 334 335 334 334 335 335 337 335
285 282 291 293 293 292 290 288 288 292 295 296 293 293 296 298 302 303 305 306 307 309 310 308 308 306 307 324 328 330 332 334 335 334 332 333 333 334 337 335 332 333 332 334
281 286 293 292 290 287 288 288 287 288 292 292 292 291 293 297 298 301 303 307 308 309 309 309 306 307 306 308 317 327 329 332 334 334 333 331 331 331 332 334 334 331 329 330
285 291 291 288 288 289 285 292 291 290 289 285 290 282 288 294 295 297 301 301 306 308 307 303 302 304 305 305 306 310 321 329 331 333 333 332 332 330 331 333 334 334 332 329
283 288 289 286 287 288 289 293 291 289 286 285 286 285 287 289 292 296 297 298 300 304 305 305 303 303 304 305 305 305 306 307 308 320 329 331 330 331 330 331 330 331 332 333
286 291 291 290 290 290 290 292 291 290 286 280 283 284 284 286 290 295 300 300 302 302 303 303 302 304 304 305 304 306 306 306 305 306 307 315 322 325 325 326 326 327 328 330
286 287 293 292 287 289 287 288 281 279 279 276 283 282 287 289 291 292 295 297 300 302 304 303 301 303 304 303 305 306 307 306 307 307 307 306 305 306 310 311 313 313 316 320
278 277 288 292 287 286 290 286 278 273 275 277 283 280 286 291 293 294 294 295 296 299 300 300 302 304 303 304 305 305 305 305 306 307 306 307 308 308 308 309 311 313 315 317
280 282 290 292 292 289 289 282 286 278 277 278 281 283 288 290 290 291 291 293 293 294 297 299 302 303 303 303 303 305 304 304 305 305 305 304 305 306 306 306 308 308 310 313
286 281 289 291 294 293 290 291 282 280 272 274 278 279 283 287 289 290 291 292 293 295 296 300 302 301 302 302 302 303 304 303 302 302 301 300 299 300 300 300 300 302 303 305
289 286 285 289 286 287 288 287 284 283 280 276 275 280 286 287 288 287 288 291 293 295 298 299 299 299 299 300 301 301 301 300 298 298 297 296 295 295 295 295 296 297 297 298
289 288 282 284 291 293 291 287 285 279 278 275 276 281 288 288 288 288 289 293 295 297 298 299 298 297 297 298 299 299 298 298 297 295 295 294 294 294 294 293 293 294 295 295
290 285 281 282 286 290 288 288 285 283 281 278 277 280 288 288 290 291 293 294 296 297 297 297 296 296 297 296 297 297 297 296 295 294 294 293 293 293 292 292 293 293 293 293
295 286 281 276 280 285 283 286 285 282 277 279 279 283 288 289 290 290 294 295 296 297 297 296 295 295 295 295 296 296 295 295 294 293 293 292 292 292 292 292 292 292 292 292
291 283 283 284 285 286 285 285 285 279 282 279 282 282 288 289 289 289 292 295 295 296 296 296 295 295 294 294 294 295 295 294 294 293 292 291 291 291 291 291 291 291 291 291
288 283 283 280 285 285 284 285 285 285 285 284 284 283 289 290 290 290 293 295 295 296 297 296 296 295 294 293 293 294 294 293 293 292 291 291 291 291 291 291 291 291 291 291
286 284 281 276 282 282 278 282 284 285 286 287 283 288 290 290 290 291 291 295 296 297 298 297 297 296 295 294 294 293 293 293 292 292 291 291 292 291 291 292 291 291 291 292
284 282 282 278 279 272 280 285 287 286 287 288 289 289 291 291 292 292 293 294 296 298 298 299 298 297 296 294 293 293 293 292 292 291 291 292 292 291 291 290 289 289 290 289
287 284 280 278 276 279 282 285 284 284 284 288 289 291 290 291 291 291 293 294 297 298 299 299 300 298 295 294 293 293 292 291 291 290 290 291 291 290 289 288 288 288 288 287
285 284 281 278 275 274 281 288 289 288 282 289 289 289 288 290 286 289 293 294 295 296 297 297 297 295 295 293 292 292 291 291 290 290 291 291 291 290 288 288 287 286 287 286
280 284 279 280 277 279 284 286 290 280 282 291 291 290 289 289 290 291 292 292 293 293 294 294 293 293 293 292 292 291 290 290 291 291 291 291 290 289 288 287 287 286 285 284
279 277 278 281 278 273 286 288 284 289 295 296 294 290 290 292 292 291 291 291 292 292 292 292 292 292 291 292 292 290 289 290 291 291 290 290 289 289 288 287 286 285 283 282
279 281 280 281 280 286 287 290 291 294 296 296 297 293 293 292 292 291 291 291 291 291 291 291 291 290 290 291 291 289 290 290 290 290 289 289 289 288 287 286 284 283 282 282
282 284 283 283 285 286 288 289 291 293 296 295 295 295 295 294 293 292 292 292 291 291 291 291 290 289 289 290 290 290 290 290 290 289 289 288 287 287 286 286 284 283 282 281
286 286 284 284 286 288 289 290 292 294 296 295 295 295 295 296 296 295 295 293 292 291 290 290 290 290 290 290 290 290 290 291 289 289 288 287 287 287 285 285 284 283 283 283
286 286 284 284 288 288 288 292 293 294 294 293 293 293 293 294 294 295 294 294 293 291 290 289 289 290 290 289 289 289 290 290 289 288 287 287 286 285 285 283 282 287 286 287

GFSCGP_sfc_thetae_090.txt.gz
Theta_e
290 288 285 290 291 290 292 291 290 295 300 299 298 298 301 304 306 306 308 310 312 314 318 318 317 315 333 337 339 339 339 340 341 339 336 337 338 341 341 342 343 343 343 342
286 285 291 294 292 291 291 290 291 294 299 298 297 297 301 304 304 306 307 308 310 313 316 316 316 313 321 333 336 338 338 339 339 340 339 339 339 339 342 343 341 342 342 342
284 289 293 292 290 287 291 290 291 292 296 298 297 294 297 301 304 306 308 310 311 313 314 315 315 314 313 315 328 332 335 335 338 338 337 336 337 334 335 338 339 339 338 338
286 291 291 290 288 288 287 294 294 293 291 286 296 285 294 299 300 303 305 308 310 313 315 316 314 312 312 312 314 320 330 334 335 337 335 334 333 332 335 337 340 340 337 335
285 289 290 288 289 290 289 295 293 294 291 291 291 288 293 296 297 301 304 307 309 312 313 314 312 313 312 313 312 314 318 329 334 336 336 336 335 337 338 335 335 337 338 339
288 293 292 292 292 292 291 292 293 293 291 283 289 289 289 292 296 300 304 306 308 309 311 313 314 311 310 312 312 311 312 313 315 324 331 334 334 334 332 333 333 336 337 337
286 288 293 294 288 290 287 288 282 281 282 281 288 288 291 296 297 300 302 305 308 310 310 311 312 309 309 310 311 310 311 309 310 311 310 313 320 323 324 326 325 326 326 328
281 279 289 292 290 286 286 287 284 276 278 282 287 284 289 298 301 302 301 302 303 308 310 311 311 312 309 309 310 310 311 311 311 311 312 312 311 310 311 312 313 316 318 321
283 282 292 292 290 291 288 286 290 285 284 283 286 289 294 297 297 298 299 300 301 303 305 308 311 310 310 310 310 310 311 311 312 312 312 312 312 312 312 313 315 316 316 316
288 282 289 291 293 290 287 293 286 287 279 278 283 285 287 292 294 295 297 299 302 302 303 304 307 308 309 309 309 310 310 310 310 311 311 310 309 309 309 310 310 310 311 311
288 287 286 289 287 287 288 288 289 289 286 282 280 284 293 292 294 294 296 297 299 301 302 304 306 308 308 308 308 308 308 308 308 307 307 307 305 305 305 305 305 305 306 306
290 288 283 286 292 295 291 291 290 287 282 283 285 285 293 295 295 296 298 299 300 301 303 305 305 306 306 306 307 306 305 305 305 304 304 303 303 304 304 303 302 302 303 303
293 288 282 284 288 291 287 290 290 289 288 284 284 286 294 294 295 297 298 300 300 302 303 304 305 305 306 306 306 305 305 303 302 301 302 301 301 301 301 301 300 300 301 301
296 289 285 283 285 289 285 290 290 288 286 285 287 288 292 293 295 297 297 300 301 302 303 304 304 305 305 305 305 304 304 303 301 301 300 300 300 300 299 299 299 299 299 299
293 286 287 288 288 289 288 289 288 286 289 286 288 287 293 296 296 297 298 300 301 301 303 303 304 304 304 303 303 303 303 302 301 300 299 298 297 297 297 297 297 297 298 297
293 286 287 284 288 288 287 289 290 290 290 289 288 288 294 297 299 297 298 299 300 301 302 304 304 304 303 303 303 302 302 301 300 299 298 297 297 296 296 297 296 296 296 296
289 288 286 282 286 286 283 286 288 289 290 291 286 292 296 294 295 297 299 299 301 302 303 303 304 304 304 303 303 301 301 300 299 299 297 296 296 296 296 296 296 295 295 296
288 287 287 283 284 277 285 290 290 289 290 293 293 294 296 296 299 299 299 299 301 303 304 305 306 306 305 304 302 302 301 299 298 298 297 297 297 296 295 294 293 292 293 293
291 289 285 282 281 284 287 290 289 288 288 293 293 295 296 297 297 298 300 299 300 304 306 307 308 307 306 304 302 300 299 298 297 297 296 296 296 295 294 292 291 291 290 289
289 290 287 284 279 277 287 292 294 293 287 295 295 295 294 294 290 295 298 299 298 301 305 306 307 306 305 304 302 299 298 297 296 297 297 297 296 294 293 292 290 288 289 288
286 287 285 284 281 284 290 292 294 285 288 296 296 295 293 293 296 296 297 297 298 299 299 300 302 302 303 302 299 298 298 296 297 296 296 295 294 293 292 289 288 288 287 287
285 283 283 285 281 278 291 293 288 294 297 299 298 295 295 296 296 296 296 296 297 297 297 298 299 298 298 299 298 297 295 296 296 296 295 294 294 292 290 288 287 287 286 285
284 288 287 287 286 292 293 296 297 297 298 299 299 297 297 297 297 296 296 296 296 296 296 297 297 296 296 297 297 295 296 295 295 294 294 293 292 290 289 288 286 285 285 284
290 290 289 288 291 292 294 296 296 298 300 299 300 300 299 298 298 297 298 297 297 297 296 296 296 295 295 296 296 297 295 295 294 294 293 292 290 289 288 287 286 285 284 283
291 291 289 290 292 295 295 296 297 299 299 299 299 299 299 300 298 299 297 296 296 295 294 294 296 296 296 295 294 294 295 295 293 293 292 290 289 289 287 286 286 285 286 286
292 291 290 289 293 293 294 297 298 298 298 298 298 297 297 298 297 298 297 297 297 296 295 294 293 294 295 293 293 293 293 294 294 292 291 290 288 288 286 285 284 289 289 289

GFSCGP_sfc_thetae_093.txt.gz
Theta_e
291 287 286 289 291 293 292 291 290 293 300 298 298 298 301 305 307 307 308 309 311 313 318 320 320 329 333 336 337 338 340 342 342 342 341 340 338 341 342 344 344 343 341 341
287 284 291 293 294 291 290 290 290 294 300 298 297 297 301 304 305 307 307 308 309 312 315 318 318 321 332 334 336 337 337 339 342 342 342 342 341 343 343 344 342 343 343 343
285 289 293 292 290 288 289 290 291 291 296 299 296 294 297 302 305 306 307 309 310 310 313 316 317 317 329 332 334 336 335 337 339 341 340 339 339 338 338 340 341 341 340 342
288 291 291 291 288 289 287 295 294 293 292 286 296 286 294 298 300 303 305 307 308 311 313 317 316 316 317 318 327 335 336 335 337 338 337 335 333 332 335 338 340 340 340 338
286 288 289 289 290 292 289 295 293 294 291 290 291 287 292 297 296 300 304 306 308 311 314 315 317 317 317 317 317 321 328 334 336 337 337 334 332 337 336 336 335 337 340 337
288 293 293 292 294 293 292 293 293 293 291 283 290 288 289 294 297 300 303 305 307 310 314 316 316 316 316 318 317 317 318 323 329 334 333 333 331 331 333 331 332 336 337 338
287 289 293 295 288 290 289 289 282 280 280 281 290 288 291 296 299 301 303 305 308 310 312 314 315 313 313 314 315 313 314 313 316 323 326 332 333 334 333 332 332 331 333 332
283 280 289 293 290 287 287 287 283 277 279 282 289 284 290 298 301 302 303 305 308 309 311 312 314 316 314 313 311 311 311 310 312 313 315 314 314 313 316 316 315 318 320 322
284 283 292 292 292 292 287 285 292 286 287 284 286 289 295 298 298 300 301 302 303 306 309 311 312 314 314 311 312 311 312 312 312 313 314 313 313 313 313 314 315 316 317 318
288 282 290 291 292 291 287 290 285 288 279 278 284 285 287 292 295 298 299 301 303 305 306 307 310 313 313 313 312 312 311 312 313 313 313 312 312 312 313 313 313 313 314 314
289 287 285 288 287 286 287 287 290 290 288 282 280 284 294 294 296 296 298 299 301 304 305 306 307 310 312 312 311 311 311 310 310 310 309 309 308 308 309 308 308 308 309 309
290 288 283 286 292 295 293 290 291 286 284 286 286 285 296 297 297 298 300 301 302 303 305 306 307 309 309 309 309 309 309 308 308 307 308 307 306 307 306 305 304 305 305 305
292 288 282 283 288 291 288 291 293 291 291 286 284 285 296 297 297 299 299 302 303 304 305 306 306 307 307 308 308 308 308 307 306 306 305 305 305 305 304 303 303 303 303 303
296 289 285 283 286 290 286 290 292 288 288 287 287 289 292 294 296 298 299 301 303 304 304 305 305 306 307 308 308 307 307 306 305 305 304 303 303 302 302 301 301 301 301 301
293 287 289 289 291 291 290 290 291 287 290 288 289 289 293 296 297 298 300 301 302 303 304 305 305 306 307 307 307 307 306 305 304 303 302 301 301 300 300 299 299 299 299 299
295 287 289 286 290 290 288 290 291 291 291 291 291 290 297 299 299 299 299 300 300 302 304 305 306 306 306 306 306 306 304 304 304 302 301 300 299 299 299 298 298 298 298 298
291 290 287 284 288 288 284 289 290 291 292 292 287 293 297 296 297 298 299 300 300 302 304 305 306 306 306 307 306 305 304 303 302 302 301 300 299 299 299 298 297 297 297 297
290 289 288 285 285 278 287 292 292 291 292 293 293 295 296 297 299 300 301 300 301 303 305 306 307 307 308 308 306 306 304 302 301 301 300 299 299 298 298 297 296 295 295 295
294 291 286 283 283 285 288 291 290 289 290 295 294 296 297 298 299 298 301 301 301 302 307 307 309 309 309 307 306 304 303 302 301 300 299 299 299 298 297 295 294 294 292 290
292 293 288 285 280 277 288 292 295 295 287 297 297 296 296 296 291 295 299 300 300 302 307 308 309 310 309 308 306 303 301 301 299 300 299 299 299 298 296 295 293 289 291 289
287 288 285 285 283 285 291 294 296 285 288 298 299 297 296 295 296 298 299 299 300 301 301 303 307 307 308 308 305 302 302 300 301 300 299 298 298 296 296 294 291 289 288 288
285 284 284 286 282 279 294 294 289 295 299 300 300 297 297 299 299 299 299 299 299 299 300 301 302 302 303 303 302 301 300 300 299 299 297 296 296 295 293 291 289 288 287 286
285 289 286 287 287 293 295 295 298 299 298 301 301 299 299 299 299 299 299 299 298 299 299 300 300 299 300 300 301 300 299 298 297 296 296 295 295 294 292 290 288 286 286 285
292 293 290 289 292 294 296 298 298 298 301 300 302 301 301 299 300 300 300 299 299 299 298 299 298 298 297 298 298 300 299 298 297 296 295 295 293 291 291 289 288 286 285 284
293 292 291 291 294 296 297 298 298 300 301 300 301 301 302 300 298 300 298 298 297 296 297 297 297 298 298 298 297 297 297 296 295 295 295 294 292 291 289 288 287 287 287 286
294 292 290 288 293 293 295 297 300 299 299 300 300 298 299 300 299 300 299 299 299 298 297 297 296 296 296 295 295 295 295 295 294 293 294 293 291 290 288 287 286 290 289 290

GFSCGP_sfc_thetae_096.txt.gz
Theta_e
290 286 283 286 288 291 290 288 288 291 296 294 294 295 298 301 303 302 303 305 305 308 311 314 318 327 331 332 334 337 337 338 340 339 335 334 333 336 338 338 338 337 337 336
285 281 288 291 290 290 288 289 288 293 296 295 295 295 299 299 301 301 303 303 304 305 309 311 315 322 328 329 331 335 337 338 339 338 339 336 334 334 334 337 337 339 339 338
283 287 291 290 289 287 287 286 289 289 294 297 294 292 296 299 301 302 304 304 305 305 306 309 312 316 325 327 330 332 334 336 338 338 336 334 333 333 333 334 335 336 337 337
285 290 290 289 288 290 285 292 290 292 290 285 294 282 292 295 298 300 300 301 301 303 306 308 311 313 322 327 329 330 330 333 336 336 334 330 329 327 329 331 333 335 335 334
284 287 288 287 289 291 288 292 292 292 290 288 289 284 288 296 294 297 300 301 302 303 305 307 310 312 312 314 317 326 330 330 332 332 331 330 328 328 328 330 331 332 334 334
286 293 293 291 293 293 293 292 292 291 289 280 286 285 284 289 293 295 300 301 303 303 305 309 312 313 311 311 311 312 322 327 330 330 328 325 326 326 327 327 327 330 332 333
288 289 293 294 288 291 289 287 281 279 279 280 288 285 285 292 297 298 299 300 302 302 305 308 310 309 309 309 310 312 312 313 321 325 328 327 324 324 323 325 325 323 322 324
280 277 288 292 290 286 286 286 281 273 274 278 287 283 285 293 296 298 299 299 302 302 305 307 309 308 308 310 309 308 309 308 311 313 315 317 321 320 318 318 319 320 321 321
282 281 291 293 293 291 286 284 289 283 283 279 282 283 289 294 294 295 295 298 297 299 303 306 307 308 308 307 307 306 307 308 309 310 308 309 309 309 309 310 312 312 313 314
286 280 289 290 292 291 288 289 284 284 276 277 280 280 284 289 291 294 294 295 296 298 299 301 305 306 309 307 307 307 307 307 309 310 308 309 309 309 309 309 309 309 310 311
290 286 285 289 286 284 285 284 287 288 284 276 275 279 288 290 293 293 294 295 297 298 300 300 301 304 306 306 306 305 306 307 307 308 308 307 306 305 304 304 303 303 303 304
290 288 280 283 291 293 291 287 288 283 282 282 282 279 292 293 294 296 297 298 297 299 300 300 300 303 304 304 305 304 304 304 304 304 305 304 304 304 302 301 300 301 301 301
291 287 281 282 287 291 286 289 291 290 287 283 281 280 293 292 293 295 295 297 299 299 299 300 301 302 302 303 303 303 303 301 301 301 301 301 302 301 300 300 300 300 300 300
296 288 284 281 284 287 282 287 291 287 283 284 284 284 288 291 292 294 295 297 298 299 300 300 300 300 301 302 302 302 301 300 300 300 299 298 298 299 297 297 298 297 298 297
293 286 287 288 290 290 288 288 289 285 288 283 287 287 290 291 290 293 295 297 299 299 300 300 300 300 300 301 301 301 300 300 300 299 298 297 296 296 296 296 296 296 296 296
292 286 288 283 290 289 286 290 290 289 289 288 288 287 293 294 295 294 293 297 297 299 300 301 301 300 300 300 300 301 299 299 299 298 297 297 296 295 295 295 294 294 294 295
290 288 284 282 286 286 282 287 289 289 290 290 286 290 293 293 295 294 295 296 297 299 300 301 301 301 301 301 301 299 299 299 298 297 297 296 296 295 295 295 294 293 293 293
287 287 285 279 280 274 283 289 291 290 291 291 291 292 293 293 295 295 296 295 295 299 301 302 302 302 302 302 301 300 299 298 298 296 296 296 296 295 295 294 293 291 291 293
291 287 283 279 278 281 285 288 287 286 287 293 291 293 294 295 294 293 297 297 296 296 300 303 303 302 302 301 300 299 298 297 297 296 295 296 296 295 294 291 291 293 291 289
290 289 284 281 277 275 284 289 293 292 283 294 295 294 292 292 286 289 295 296 297 298 299 301 303 304 303 301 300 298 296 296 295 296 296 296 296 294 292 291 292 288 290 288
284 284 280 281 278 281 288 291 293 280 286 296 295 293 292 290 291 294 296 296 297 297 297 299 302 302 302 301 299 297 296 295 296 297 296 295 295 293 292 290 290 288 288 288
283 280 281 282 278 276 292 291 287 292 296 297 296 293 293 295 296 296 296 296 296 295 297 298 297 296 297 298 298 296 295 296 296 295 295 293 292 293 292 290 289 288 287 287
282 285 283 284 284 290 291 290 293 294 293 296 297 295 296 296 295 296 295 295 295 295 295 296 295 295 295 296 297 295 294 295 294 293 292 292 292 292 292 290 288 287 287 286
288 289 285 286 289 290 293 294 294 294 296 297 298 298 298 296 296 296 297 296 295 295 294 295 295 294 293 294 295 296 295 295 294 292 292 291 290 291 290 289 288 287 286 285
288 289 288 287 291 291 293 293 295 297 298 298 298 298 299 297 297 298 297 297 295 295 294 294 293 293 293 293 293 293 294 294 293 292 293 292 292 291 289 288 287 287 287 287
291 287 285 287 290 289 289 293 296 296 296 297 296 295 296 297 296 296 295 295 294 294 294 294 293 293 293 293 292 293 294 294 293 293 292 291 290 289 288 287 286 291 290 290

GFSCGP_sfc_thetae_099.txt.gz
Theta_e
288 283 279 286 287 287 289 287 286 289 295 296 295 296 298 303 305 304 305 307 302 307 311 313 321 326 331 334 334 336 336 336 337 336 334 333 334 336 337 337 337 336 335 332
282 279 286 291 290 288 288 286 286 290 294 293 293 294 298 299 300 303 303 304 302 303 306 310 318 324 328 329 334 332 335 337 338 338 335 334 332 333 335 337 337 337 336 334
279 285 289 289 288 285 286 287 286 287 293 294 292 291 294 299 299 301 302 303 303 303 304 310 314 320 324 325 328 333 335 336 336 336 333 332 331 331 332 332 334 333 335 336
283 289 288 288 287 288 285 291 290 291 289 284 293 281 291 295 297 298 298 299 301 301 304 309 314 317 322 324 327 331 332 334 335 333 333 329 328 326 330 332 333 333 334 334
282 285 286 287 288 290 287 292 292 290 287 286 288 285 288 294 293 295 298 298 300 300 302 305 309 318 322 324 323 325 328 331 333 333 330 327 326 325 327 328 329 331 332 333
285 291 291 291 293 293 293 292 292 291 288 278 285 284 282 290 294 293 295 298 300 301 302 305 310 312 312 313 313 318 324 326 328 328 326 324 321 322 323 325 326 327 330 331
286 288 293 294 288 291 289 287 280 279 279 276 287 284 285 290 295 297 296 297 299 301 302 304 307 306 307 308 309 312 318 320 323 321 320 321 321 321 322 323 323 321 321 322
274 278 288 292 289 284 286 286 278 275 276 276 287 281 285 292 293 298 297 298 300 300 300 305 308 307 307 307 307 309 312 312 317 320 320 320 320 320 319 319 318 319 319 320
277 281 292 292 293 291 287 283 289 283 282 276 281 283 287 291 292 293 295 296 297 299 300 304 307 308 306 306 307 306 307 307 310 311 307 308 310 311 309 309 311 311 313 314
284 280 288 290 292 290 288 289 283 282 275 275 276 278 280 285 289 293 294 295 296 298 300 303 307 307 306 307 305 305 305 305 306 307 307 307 307 308 308 309 308 309 310 310
288 283 284 287 285 282 283 282 286 286 280 276 273 277 287 287 289 290 291 294 296 297 298 299 301 304 305 304 303 303 304 305 305 305 305 305 307 306 305 304 304 305 304 305
288 286 279 281 290 291 287 285 289 278 280 278 274 278 290 291 292 294 294 296 296 298 298 298 301 302 302 302 302 303 303 304 304 303 303 303 305 305 303 302 301 302 300 301
289 286 278 281 287 290 287 288 290 289 284 279 278 279 292 291 291 294 294 295 297 298 298 297 300 301 301 301 301 302 302 301 301 301 300 300 301 299 298 299 299 300 300 299
294 288 282 276 280 284 281 286 288 283 278 283 283 283 287 289 289 291 293 296 297 297 299 298 298 299 300 300 301 300 299 300 299 299 298 297 297 296 296 296 297 297 296 297
292 285 286 287 288 288 286 286 288 284 287 283 286 286 289 289 289 290 293 296 297 298 298 298 298 298 299 299 299 298 298 298 298 297 296 295 295 295 295 294 295 295 295 296
289 284 286 280 288 288 285 288 288 289 288 287 288 286 290 291 293 294 292 296 297 298 299 299 299 298 298 298 298 298 297 298 298 296 295 295 295 294 294 294 293 293 293 293
289 287 282 277 284 286 281 286 288 289 290 290 284 288 291 292 294 294 294 295 296 299 299 300 299 299 299 299 299 297 297 297 297 295 295 295 294 294 293 293 293 292 291 291
286 284 282 277 280 275 283 288 290 290 290 290 289 290 292 292 293 294 295 295 294 295 300 300 300 299 299 299 299 298 297 296 296 295 295 295 294 294 293 292 291 290 289 289
289 285 281 277 276 280 283 287 287 286 286 292 290 292 292 293 292 291 295 295 294 294 298 301 301 300 300 299 299 298 296 296 295 294 294 295 295 293 292 290 289 290 291 290
288 287 282 279 275 274 283 288 291 290 282 293 293 291 291 291 286 289 294 295 295 296 297 298 301 302 300 299 298 297 295 294 294 294 294 295 294 293 291 290 289 289 291 289
281 281 278 279 277 280 287 289 291 279 284 296 293 291 291 290 290 293 294 295 295 295 296 298 299 299 300 299 298 296 295 294 295 296 295 294 294 292 291 289 288 290 289 288
281 277 278 279 278 275 291 290 285 290 293 296 293 291 293 293 294 294 294 294 294 294 295 297 295 295 296 297 297 295 294 295 295 295 294 293 292 292 290 288 289 289 288 287
280 283 282 282 282 289 290 289 292 293 292 295 294 294 294 294 293 294 293 293 294 293 293 294 294 294 294 295 296 294 293 294 293 293 292 291 291 290 289 289 288 287 287 287
288 288 283 285 288 289 291 293 294 295 295 296 297 297 296 295 296 294 294 293 293 293 293 293 293 292 292 293 294 294 294 294 293 291 290 290 289 290 290 290 289 288 286 286
286 289 286 286 287 288 291 292 294 295 296 296 296 297 297 298 297 296 295 295 294 293 293 292 291 291 291 292 292 293 293 293 291 291 291 292 292 292 289 289 288 288 288 287
286 285 284 283 288 288 290 292 296 295 295 296 296 294 295 296 295 294 293 293 293 292 293 292 292 291 291 291 291 291 292 292 292 291 292 292 291 290 288 287 287 291 291 291

GFSCGP_sfc_thetae_102.txt.gz
Theta_e
287 279 277 285 287 287 286 286 285 289 297 296 294 295 300 305 305 304 305 306 307 307 313 315 321 328 331 332 333 335 336 336 337 336 333 333 331 334 334 334 332 331 331 329
280 277 287 288 289 287 287 285 285 290 294 295 294 293 297 303 302 303 304 304 306 307 307 310 318 323 329 331 333 332 334 336 337 337 335 333 332 332 335 336 336 335 334 332
278 283 289 287 287 285 286 285 286 286 293 294 292 290 294 299 302 304 305 305 306 305 306 307 314 321 325 327 330 332 334 335 336 336 332 331 332 331 330 332 334 335 336 335
281 288 287 286 287 287 282 290 289 288 287 283 292 281 289 293 296 298 301 304 305 304 303 307 312 318 321 326 328 330 332 333 334 333 333 331 331 327 330 331 330 332 334 334
278 284 286 286 287 289 286 293 290 289 286 286 288 283 286 292 292 296 298 300 302 301 301 306 311 319 323 322 325 327 329 330 330 332 331 328 325 327 327 329 329 329 331 332
285 290 289 290 292 292 293 291 291 291 287 278 285 285 283 289 292 296 298 299 301 300 300 304 309 316 318 317 319 322 325 327 329 328 325 326 323 322 323 323 324 327 328 330
284 286 293 294 288 290 289 287 280 279 279 274 286 285 286 290 296 298 298 298 300 301 300 303 306 311 312 313 315 320 323 323 323 324 324 322 322 322 322 323 323 322 322 322
279 278 288 292 287 282 286 285 280 275 273 278 288 281 285 291 294 298 299 299 300 299 300 303 305 309 311 311 311 315 319 321 319 319 319 318 318 319 319 320 320 320 318 318
278 281 291 292 292 290 286 283 288 280 279 276 280 284 288 290 291 293 296 296 296 298 299 303 305 308 306 306 309 313 315 315 317 317 317 316 316 315 313 311 312 312 313 315
284 279 288 290 291 289 287 289 279 280 275 272 276 277 280 285 288 290 292 293 294 296 297 301 305 307 306 306 306 306 309 311 312 312 312 312 311 310 308 309 308 308 309 310
286 282 282 286 282 283 285 283 285 286 278 273 272 276 285 286 288 290 289 292 293 294 296 300 303 304 305 304 304 304 304 305 306 306 305 306 306 306 306 306 306 306 306 307
288 283 277 279 290 290 286 284 286 275 277 274 272 277 287 287 290 292 292 294 295 295 295 297 301 302 302 303 302 303 302 303 303 303 303 303 303 302 302 301 302 301 300 300
288 284 277 277 286 288 285 287 287 285 280 276 271 277 290 288 290 292 293 293 295 296 296 298 299 301 301 301 301 302 302 302 301 301 300 300 299 299 298 298 299 299 298 298
294 287 279 273 279 283 280 285 287 281 274 278 276 281 285 288 290 291 293 294 294 296 296 297 298 299 299 301 301 300 300 300 299 299 298 297 297 296 296 296 296 296 296 295
292 284 286 287 287 286 284 284 287 279 285 283 285 285 286 287 287 290 291 295 295 296 297 297 298 299 299 300 299 299 298 298 298 297 297 295 295 295 294 294 294 294 294 294
288 282 283 280 286 287 284 287 287 287 287 288 288 287 291 291 291 291 291 295 296 297 297 298 298 298 298 298 298 298 297 297 297 296 295 294 294 294 293 293 293 293 292 292
288 284 281 277 283 284 278 286 287 288 288 288 284 288 291 291 293 292 292 293 295 297 298 298 298 299 299 299 299 297 297 296 295 295 294 294 294 293 293 292 292 291 290 291
284 283 281 276 279 273 283 288 291 289 289 289 289 290 292 292 293 294 295 294 293 294 298 299 299 299 299 299 298 297 296 296 295 294 294 294 293 293 292 291 290 289 289 288
287 284 280 276 275 279 284 288 287 285 286 291 290 291 291 293 292 292 295 295 294 295 298 298 300 300 299 299 298 297 295 295 294 294 293 294 294 292 291 290 289 288 288 288
286 285 281 278 274 274 282 288 291 289 283 292 292 290 289 290 285 289 293 294 294 295 297 298 301 301 300 298 297 296 295 294 293 294 294 294 293 292 291 289 288 286 288 290
280 280 277 278 278 279 285 288 290 278 283 296 293 290 291 289 290 292 294 295 294 295 296 297 298 299 299 299 298 296 295 294 295 295 295 294 293 292 291 288 289 287 288 289
280 277 277 278 276 274 289 289 285 288 291 294 292 291 292 292 293 293 293 293 293 293 294 296 294 294 296 297 297 295 294 295 295 295 294 293 292 292 290 288 288 287 289 288
279 282 281 281 281 287 289 289 292 292 291 293 292 292 294 293 292 293 292 292 292 292 292 293 293 294 293 295 296 294 294 294 294 293 292 291 290 290 290 290 287 288 288 287
286 286 282 284 287 287 290 291 293 294 294 295 296 295 295 293 295 294 293 292 292 292 291 292 292 291 291 292 293 294 294 293 292 291 290 289 288 288 289 290 289 288 287 287
284 286 284 284 285 287 289 290 293 294 295 295 296 296 297 297 296 296 294 293 293 293 292 292 291 291 291 291 291 293 293 292 291 290 290 291 291 292 290 289 289 288 289 288
284 283 283 282 287 287 289 291 293 293 293 294 294 293 295 297 294 293 292 292 291 290 290 290 290 290 290 290 290 291 291 291 290 291 291 291 291 291 289 288 288 292 292 292

GFSCGP_sfc_thetae_105.txt.gz
Theta_e
286 278 275 282 287 287 285 285 283 288 296 294 292 292 295 299 300 304 303 302 303 305 308 312 325 330 331 332 335 337 335 337 337 335 333 331 330 328 329 328 327 326 326 326
279 275 285 288 289 287 285 285 284 289 294 295 293 292 297 298 299 304 304 303 303 304 306 307 316 325 331 332 332 333 335 335 336 336 335 333 332 331 332 332 332 330 329 328
277 282 288 286 286 284 285 285 284 287 293 294 293 291 294 299 301 303 305 305 304 304 304 304 309 320 325 327 329 332 333 335 336 335 332 331 331 330 330 330 332 332 332 332
280 286 287 286 286 286 282 289 289 288 288 284 292 281 290 294 297 300 302 303 303 304 305 303 307 316 321 326 329 331 331 334 333 333 332 330 330 328 330 330 331 331 334 333
276 284 285 285 286 288 286 292 288 288 287 287 287 283 286 293 293 296 299 302 305 306 305 305 306 316 320 323 325 327 329 329 329 331 331 328 326 327 327 328 329 329 330 331
283 290 288 289 291 291 290 290 289 289 287 277 285 283 283 288 291 294 298 302 305 306 307 305 305 313 317 318 320 323 325 327 328 329 328 327 324 323 323 324 325 325 328 329
284 285 290 293 287 289 287 286 279 277 277 275 287 284 285 291 294 295 297 299 304 306 301 301 306 312 315 317 318 319 322 323 326 325 324 324 323 323 323 322 322 322 322 323
279 277 288 292 287 284 285 285 273 272 273 277 287 281 286 291 294 297 299 300 301 301 301 301 305 309 313 315 316 318 319 322 324 323 321 320 321 322 322 322 321 321 320 319
278 278 291 290 290 289 285 282 288 277 277 276 281 283 287 290 291 291 296 297 297 298 298 300 303 307 311 311 312 316 317 321 320 318 317 317 317 318 317 316 316 315 314 316
282 276 287 290 290 289 287 289 282 276 269 273 277 277 280 285 287 291 293 294 296 297 298 299 304 306 309 311 309 311 313 315 315 315 315 315 314 313 311 311 311 310 310 311
284 279 280 285 282 280 283 280 285 285 277 273 273 277 284 286 287 290 291 293 294 296 296 298 303 304 305 305 305 306 309 310 311 311 308 309 308 308 307 307 306 306 306 307
286 280 273 279 287 290 286 283 284 276 276 276 271 278 288 287 290 292 292 294 295 295 295 297 302 303 302 303 302 303 304 306 306 305 306 305 304 304 303 302 301 302 301 302
289 282 270 274 283 288 284 286 286 283 279 279 270 277 289 289 290 292 293 293 295 295 296 297 299 300 301 301 301 301 301 301 301 302 302 301 300 299 298 298 298 298 298 298
295 287 278 272 279 282 280 283 285 277 273 280 276 279 284 287 289 290 292 293 293 294 296 297 296 297 298 299 300 300 300 300 300 299 299 298 297 296 296 296 296 296 297 297
291 283 287 287 287 284 283 283 284 277 280 276 283 283 284 286 287 289 290 294 295 295 295 297 297 296 297 299 299 299 298 299 298 298 297 296 295 295 294 294 294 294 294 294
290 283 282 279 285 285 283 284 285 286 286 286 286 283 289 290 289 290 290 294 295 296 296 296 296 296 297 297 298 298 297 297 297 296 296 295 294 293 293 293 292 292 292 292
288 281 278 275 281 283 278 283 284 286 287 287 284 288 290 290 291 290 291 292 292 293 296 296 297 298 298 298 298 297 297 296 296 295 294 294 293 293 292 292 291 290 290 290
283 281 281 276 278 273 282 287 289 287 288 288 288 289 290 290 291 292 292 291 292 293 296 297 297 297 298 299 298 297 297 296 295 294 294 293 293 292 291 291 290 289 288 288
285 282 279 276 275 278 282 287 287 286 285 291 289 289 290 291 291 289 293 293 293 294 295 296 298 298 298 298 298 297 295 295 295 294 293 293 293 292 291 289 288 288 288 287
285 284 280 277 274 274 281 286 289 289 282 292 291 289 289 290 285 288 292 293 293 294 296 296 298 299 299 298 297 296 295 294 294 293 294 293 293 292 290 289 288 286 287 287
279 279 277 277 275 278 284 288 290 278 281 293 292 289 290 288 289 291 293 293 293 294 295 296 297 298 298 298 297 296 294 294 295 295 294 293 292 292 290 288 288 288 285 286
279 276 277 277 275 272 287 288 283 287 291 293 291 290 291 290 291 292 292 292 292 292 293 294 294 294 295 297 297 295 294 295 295 295 294 293 292 292 290 288 288 286 288 289
279 281 280 280 280 286 288 288 290 292 290 292 291 291 292 292 291 291 291 291 291 291 291 292 293 293 293 294 296 294 294 294 293 293 292 291 290 290 288 287 288 289 289 288
283 285 281 283 284 284 287 289 291 292 292 293 294 294 294 291 294 291 292 291 291 291 291 291 291 291 291 293 294 294 294 294 293 291 290 290 289 288 288 289 289 289 288 287
282 284 283 282 283 284 287 289 290 292 294 294 295 295 296 296 296 295 293 291 291 291 292 291 291 291 290 290 290 292 293 293 291 291 290 289 289 290 288 290 290 288 289 289
283 283 282 284 286 286 288 289 292 291 291 292 293 293 296 298 296 293 291 291 290 289 289 289 290 289 289 288 288 289 290 291 290 290 290 290 290 289 289 288 288 293 292 292

GFSCGP_sfc_thetae_108.txt.gz
Theta_e
284 278 274 279 284 286 285 282 282 288 294 292 292 291 294 298 295 298 303 302 305 308 311 316 327 330 331 335 336 338 338 338 336 335 332 330 329 325 324 324 324 324 325 325
278 275 283 287 287 286 285 282 284 289 293 293 292 291 295 295 296 298 302 302 303 307 308 310 322 328 329 330 334 334 337 337 336 335 335 332 331 329 330 328 326 325 325 325
277 281 286 286 284 284 285 283 285 286 293 295 292 290 293 297 299 301 302 304 304 305 306 307 315 323 327 329 330 332 334 335 335 334 332 330 330 329 328 328 327 329 329 326
279 285 285 286 283 286 279 288 290 290 287 284 290 281 291 294 295 299 301 302 302 303 304 304 306 316 324 328 330 333 333 334 335 335 333 330 329 327 328 329 330 331 331 330
276 282 284 284 286 288 285 291 289 289 285 287 286 282 287 294 292 295 298 301 304 304 304 303 304 311 319 325 328 329 330 332 333 334 333 329 330 331 331 329 330 330 331 332
282 289 287 287 290 289 289 290 289 288 285 277 285 283 282 289 292 294 297 301 302 304 305 303 301 304 316 320 324 328 330 329 330 331 330 330 328 328 327 327 329 329 328 328
284 285 288 290 287 288 285 281 276 273 273 276 285 282 284 292 295 297 297 299 303 305 306 303 299 307 314 318 319 322 325 325 327 329 328 327 326 326 326 326 326 326 325 326
278 277 288 291 287 284 285 281 274 272 275 278 286 280 284 289 295 298 300 300 303 304 306 301 300 304 310 315 317 320 321 322 325 325 324 325 324 323 322 323 323 323 322 322
279 279 290 290 290 289 285 282 287 279 276 274 278 281 286 290 290 290 294 298 299 302 300 300 301 304 310 313 316 318 318 322 322 323 319 320 319 319 319 319 318 317 316 317
282 271 285 290 290 290 288 290 279 278 272 274 277 277 279 284 287 289 291 295 297 297 299 300 301 303 309 313 312 314 316 320 318 315 315 315 315 315 314 314 313 312 311 312
282 278 279 284 283 282 285 283 284 282 278 274 273 277 285 285 287 289 291 293 294 295 297 298 300 303 305 307 308 309 311 312 313 311 311 311 310 309 309 308 307 306 306 307
284 279 275 282 286 290 286 283 285 275 276 275 273 278 287 287 290 292 292 294 294 295 297 298 298 303 303 304 305 306 306 309 307 307 307 306 305 305 304 303 302 303 301 302
288 279 267 273 280 285 284 286 287 282 280 279 274 278 289 288 290 292 292 293 295 296 298 298 299 300 302 302 301 302 302 303 303 305 303 302 302 301 300 299 299 299 298 298
293 286 277 273 279 282 278 283 284 276 274 278 277 280 285 286 287 289 291 293 294 295 297 297 298 298 300 300 300 300 299 300 300 300 300 299 298 298 297 297 296 296 297 296
290 282 286 286 287 284 283 283 284 276 279 275 281 282 284 286 287 288 290 294 295 295 296 296 296 296 297 298 299 299 299 299 298 298 297 296 295 294 294 294 294 294 294 293
290 281 282 279 283 285 283 284 283 284 284 285 283 283 288 289 289 289 289 291 292 294 295 296 298 296 296 296 299 298 298 298 298 296 295 294 294 293 293 292 292 292 291 292
287 280 277 275 280 282 277 281 284 286 285 286 284 286 289 289 290 290 290 291 290 291 295 296 296 297 297 297 298 297 296 297 296 295 294 293 293 292 292 291 291 290 290 290
282 280 280 275 276 272 280 286 287 286 287 287 288 289 291 291 292 291 292 291 291 292 293 294 295 296 297 297 297 296 296 295 295 293 293 293 292 291 291 291 290 288 289 288
284 281 279 275 274 276 282 285 288 286 285 289 287 288 289 290 290 290 293 292 291 292 293 295 297 297 297 297 296 295 294 294 294 292 292 293 292 291 290 289 288 288 288 287
284 282 278 277 273 273 279 285 287 290 282 290 290 288 287 289 284 286 292 293 293 293 294 295 296 298 297 297 296 295 293 293 293 293 293 293 293 291 291 289 288 287 288 287
278 279 276 277 274 277 282 287 289 277 279 292 291 288 290 287 288 290 291 292 292 293 293 294 295 294 296 296 296 295 294 293 294 294 293 293 292 292 291 288 288 289 286 286
278 276 276 277 274 272 286 286 281 285 289 291 290 289 290 289 291 291 291 291 291 291 292 293 292 292 293 295 296 294 294 295 295 294 293 292 291 292 290 288 289 286 286 286
278 280 279 279 279 285 286 286 288 290 289 290 289 290 291 291 290 290 290 290 290 290 290 291 291 291 292 294 296 294 293 294 294 293 293 292 291 291 289 288 288 287 287 288
280 282 280 282 283 283 285 287 288 290 290 291 292 292 292 290 292 290 291 290 289 290 290 290 290 291 291 293 294 294 294 294 293 292 291 290 289 288 287 288 288 288 288 288
282 282 281 281 282 283 285 286 288 290 291 292 293 293 292 293 295 294 292 291 290 289 289 290 290 290 289 289 290 291 292 294 293 292 291 290 290 290 288 288 288 288 289 288
282 282 281 281 285 285 286 288 289 289 289 290 291 292 294 297 296 294 291 290 288 287 287 288 288 288 288 287 286 287 289 290 290 290 290 290 290 289 289 287 289 293 293 293

GFSCGP_sfc_thetae_111.txt.gz
Theta_e
286 282 278 280 282 283 283 282 280 284 289 289 288 288 294 298 297 294 295 298 302 307 311 318 330 332 332 337 338 338 338 338 337 335 333 331 330 332 332 332 331 332 333 334
281 278 284 285 286 284 283 282 282 286 290 290 289 289 294 295 294 295 297 299 301 305 309 315 327 329 330 333 337 337 337 337 337 337 336 335 334 332 332 331 329 329 330 330
279 282 286 285 284 283 282 282 283 285 291 292 290 288 292 295 297 298 300 302 303 305 307 310 323 328 328 329 333 337 337 337 337 336 335 334 334 333 332 331 330 329 328 329
280 284 284 285 284 284 281 288 288 288 287 283 290 281 290 293 293 297 300 301 303 306 307 307 316 324 327 327 331 333 332 332 334 334 333 331 330 329 332 331 331 330 330 329
278 281 283 281 286 288 285 287 288 290 288 286 286 284 287 293 291 295 299 301 303 306 307 306 311 318 322 329 330 332 331 330 331 333 332 329 326 329 330 331 330 330 330 331
283 288 287 285 289 288 289 289 288 289 286 280 285 284 284 289 292 295 298 301 304 305 307 307 307 308 318 325 328 329 328 329 332 331 331 327 325 327 332 331 330 330 332 331
284 285 288 290 286 288 287 281 275 277 276 277 286 284 285 292 295 297 298 300 303 305 306 304 306 310 318 322 326 327 328 328 329 328 327 330 327 329 329 328 329 329 328 329
274 275 287 291 288 284 285 282 277 272 274 279 286 281 283 290 292 298 300 301 303 305 306 304 303 308 315 320 323 324 326 326 329 330 328 328 328 328 329 329 329 329 328 328
279 275 290 290 289 287 285 281 287 279 279 279 280 283 288 291 290 291 295 300 301 302 301 303 303 307 312 317 321 324 324 325 327 327 327 327 328 327 325 326 325 324 324 325
283 275 284 288 289 290 287 290 280 280 273 275 278 279 280 285 287 290 293 296 300 300 301 303 302 306 311 315 318 320 322 322 323 323 322 322 321 322 322 322 319 318 319 321
284 279 281 285 285 284 284 284 285 283 279 277 275 279 287 286 287 289 292 293 297 298 298 301 301 305 309 312 315 316 318 318 317 317 318 318 317 317 317 316 314 313 314 314
286 280 276 281 287 291 287 284 284 278 278 276 278 280 288 288 291 292 292 295 295 298 300 301 301 303 306 309 312 314 315 315 314 314 314 313 313 313 311 310 309 310 309 309
290 281 272 277 283 286 283 286 286 282 282 278 275 280 289 289 290 292 293 295 295 297 298 299 301 302 304 305 307 308 310 310 309 310 309 308 308 308 306 306 306 305 305 304
293 286 278 278 281 284 281 284 285 278 279 279 279 282 285 288 289 291 292 295 296 296 298 298 299 300 301 302 303 303 304 305 305 306 306 305 305 304 303 302 301 301 301 300
288 282 285 286 287 286 284 284 285 281 282 278 283 283 286 288 289 289 290 292 294 296 297 298 298 299 300 300 301 301 301 302 303 302 302 301 300 299 299 298 298 298 298 297
287 279 282 279 285 284 282 284 285 286 286 285 285 285 290 290 291 291 291 291 292 294 295 296 298 298 299 300 300 300 300 300 301 300 298 297 297 297 296 296 296 296 295 295
284 280 278 275 280 283 277 282 285 286 286 286 283 287 290 290 290 290 291 292 291 293 294 295 296 297 299 299 300 299 299 300 299 298 297 296 296 295 295 295 295 294 294 294
282 280 281 275 277 272 281 287 287 287 287 288 288 289 290 290 291 292 292 291 292 292 293 294 296 297 298 299 299 298 298 298 298 297 296 296 295 294 294 294 293 292 293 292
284 281 279 276 274 277 282 285 288 287 286 290 289 289 290 291 291 290 293 293 292 292 294 295 296 297 298 299 298 297 296 296 296 295 295 295 295 293 293 292 292 292 291 290
284 282 279 277 273 273 281 285 288 289 283 291 290 289 289 289 285 287 292 292 292 293 294 294 296 298 299 298 297 296 295 296 295 295 295 295 294 294 293 292 291 289 291 290
278 279 276 278 274 278 283 286 288 278 281 293 291 290 289 288 289 291 292 292 292 292 293 294 294 295 296 298 298 296 295 296 296 296 295 294 294 294 293 291 291 290 290 290
278 275 276 277 275 273 286 286 282 285 289 292 292 290 291 291 291 291 292 291 291 291 292 293 293 293 295 297 297 296 296 296 296 295 295 294 294 293 292 291 291 290 290 290
277 279 278 279 279 284 287 287 289 290 289 291 291 292 292 292 291 292 291 291 291 291 291 292 292 292 294 295 297 295 294 295 295 295 294 293 293 292 291 291 290 289 289 289
280 282 280 282 283 283 286 288 289 291 291 291 292 293 293 291 292 293 292 290 290 291 290 291 291 291 290 292 293 294 294 295 295 294 293 293 292 292 291 291 291 291 290 290
282 283 280 280 282 283 286 287 288 290 291 291 292 293 294 294 295 295 293 292 290 290 290 290 290 290 289 290 289 290 291 294 293 293 292 292 292 292 291 290 291 291 292 291
281 282 281 280 285 285 285 289 289 289 289 290 291 291 294 297 296 294 292 291 289 288 288 288 288 288 288 288 287 288 288 290 291 291 291 291 291 291 290 290 291 293 293 294

GFSCGP_sfc_thetae_114.txt.gz
Theta_e
291 286 283 285 287 286 284 282 282 286 290 289 289 291 294 299 301 302 303 303 303 305 308 311 315 320 327 331 335 337 338 339 338 337 335 335 334 336 337 340 340 338 337 337
287 283 287 288 287 285 285 282 282 286 291 290 290 290 294 297 300 302 302 302 302 304 307 309 314 325 323 331 333 337 337 336 337 339 337 336 335 336 336 337 337 338 338 339
283 285 288 286 285 284 284 282 283 283 289 291 291 287 291 296 298 299 302 304 302 304 306 308 312 325 325 327 331 334 336 336 337 338 338 337 337 336 334 335 335 335 336 336
285 288 285 285 284 285 282 287 287 287 284 282 291 280 288 291 293 297 301 303 304 305 307 309 312 324 326 327 332 334 335 336 337 340 336 334 332 331 333 335 336 334 332 333
284 284 284 283 284 287 286 288 287 288 285 286 286 286 286 292 291 295 300 303 305 306 306 308 312 325 327 328 325 331 332 333 334 338 335 333 334 336 337 336 334 334 332 333
287 291 288 287 289 289 290 288 288 287 286 282 286 287 286 290 293 297 300 302 304 306 307 309 318 325 325 325 325 328 329 329 331 331 331 331 329 329 330 332 332 332 332 331
286 287 290 290 286 290 288 286 281 279 280 279 288 285 285 291 296 298 299 301 304 305 307 307 311 320 325 324 325 327 327 326 326 328 329 328 327 326 328 331 330 331 331 332
280 280 288 291 288 285 285 286 281 275 277 280 287 281 284 293 295 297 302 301 303 304 306 305 313 318 323 326 327 326 326 325 326 326 327 328 326 326 327 327 328 327 328 330
281 282 289 290 289 288 286 285 288 283 283 282 283 286 292 294 294 296 300 299 301 304 303 304 310 316 323 324 325 326 325 325 326 326 326 325 328 321 326 326 328 328 328 328
286 280 286 289 291 292 289 290 284 286 278 277 280 283 282 288 290 293 297 297 301 303 303 305 309 313 317 324 323 325 327 325 327 326 325 325 323 321 324 325 326 325 325 326
288 284 286 289 287 285 287 286 287 286 283 281 279 281 288 290 292 293 296 299 300 301 301 304 305 311 316 321 323 323 324 324 323 326 327 326 325 325 325 324 323 323 323 324
290 286 283 284 290 292 290 288 287 284 281 282 284 281 292 294 295 296 296 299 301 301 301 304 305 308 313 317 320 318 320 320 322 322 322 322 321 321 321 319 319 320 320 320
292 286 282 282 286 290 287 290 289 286 287 281 282 282 294 296 296 298 297 299 299 300 301 304 304 307 308 312 314 315 316 317 320 320 318 317 317 317 315 314 315 315 315 314
295 288 284 280 283 287 285 289 289 286 286 284 284 286 291 292 293 294 296 299 299 299 301 302 303 303 306 309 309 312 311 314 316 317 315 314 313 314 314 312 311 311 311 310
293 285 287 288 289 288 288 288 289 285 286 285 286 287 290 292 294 295 296 298 298 297 299 301 302 303 305 306 306 308 309 310 312 313 312 311 310 310 309 309 309 307 307 305
292 286 287 285 288 289 287 288 290 289 289 289 290 288 294 296 298 297 296 297 296 296 298 299 301 304 304 304 305 306 306 308 310 309 308 306 305 305 305 304 304 304 303 302
289 287 285 281 285 286 284 286 289 290 290 291 287 290 295 294 294 294 296 296 296 296 297 297 301 302 304 305 306 305 305 306 306 304 304 303 303 302 302 301 301 300 300 300
288 287 287 283 284 277 286 292 291 291 291 293 292 293 294 294 295 297 297 296 296 297 298 300 300 302 303 305 305 305 305 305 303 302 302 301 302 300 300 300 299 299 299 298
290 287 284 283 281 283 286 289 290 289 289 294 292 293 294 295 296 296 297 297 297 297 299 300 302 303 304 304 304 304 304 303 303 302 301 301 301 299 299 298 298 298 297 295
289 288 287 284 279 277 286 290 293 293 286 295 294 294 294 295 291 294 297 297 297 298 299 299 301 303 304 303 304 303 303 303 303 301 301 301 301 300 299 299 298 297 298 295
285 286 284 284 281 284 289 291 293 283 287 296 295 295 295 294 295 296 297 297 297 297 298 300 300 300 301 303 303 302 302 301 301 301 301 301 300 300 300 298 297 296 296 295
284 283 284 284 282 278 291 291 287 292 295 297 296 296 296 296 296 296 297 296 296 296 297 298 299 298 300 302 303 301 300 300 300 300 300 299 300 298 298 297 295 297 297 297
283 286 286 285 285 290 293 293 295 296 297 297 298 297 297 296 296 296 296 296 296 295 295 296 297 297 296 296 299 299 298 300 300 300 299 299 299 298 298 298 296 296 297 297
288 289 288 287 289 291 292 294 296 297 297 298 299 298 298 297 297 296 295 296 296 295 295 296 296 295 292 292 292 292 294 297 298 297 297 298 298 297 297 297 297 297 296 296
289 289 287 287 289 291 292 294 295 295 296 296 297 299 298 298 298 297 296 295 294 295 295 295 294 294 293 293 293 292 292 294 294 294 293 293 293 294 294 294 295 296 297 296
289 289 288 288 293 293 293 295 295 294 294 295 296 297 298 299 299 298 295 294 294 293 293 293 293 293 292 292 291 291 292 293 293 293 293 292 293 292 291 291 291 294 294 294

GFSCGP_sfc_thetae_117.txt.gz
Theta_e
292 287 283 286 288 287 285 283 282 285 289 287 286 288 293 297 299 299 300 303 304 307 309 311 315 322 324 326 326 331 335 336 336 334 333 334 332 331 330 331 330 331 330 331
287 282 289 290 288 286 284 282 282 286 289 287 288 288 293 296 299 301 302 303 305 306 308 310 313 319 320 325 324 326 334 336 336 334 335 336 338 338 337 335 332 330 331 332
284 287 290 287 286 284 284 282 282 282 287 290 288 287 289 295 299 301 303 304 306 306 307 308 311 316 321 318 325 326 329 335 336 336 337 337 337 337 336 336 337 337 337 338
287 290 287 286 284 285 281 288 286 284 283 280 290 281 289 292 294 298 300 302 304 306 307 309 311 314 320 320 322 329 328 333 336 337 334 333 331 330 333 334 335 335 337 338
285 286 286 285 286 288 284 288 287 287 284 284 286 281 287 293 291 294 298 302 305 307 308 308 311 315 324 324 325 328 330 332 335 335 335 334 332 332 333 335 333 334 335 335
288 293 290 289 291 290 291 288 287 286 285 280 286 283 284 287 291 295 299 302 304 306 308 309 312 316 325 325 325 327 326 330 333 334 333 333 334 334 332 333 332 332 332 333
288 288 292 291 287 292 289 285 281 279 278 280 287 284 285 290 292 297 298 300 304 306 307 309 311 320 323 324 324 323 325 327 328 330 331 328 328 330 334 333 333 331 329 330
281 281 288 291 288 285 285 286 281 275 278 281 288 282 285 293 297 299 299 300 304 304 304 305 313 321 324 323 323 323 323 323 325 324 326 327 326 328 328 329 332 331 330 332
282 283 291 291 290 289 287 286 289 283 284 282 284 287 291 294 297 296 296 300 301 302 302 305 312 321 322 322 322 323 324 323 324 325 324 326 324 326 325 326 328 327 328 330
286 281 289 290 292 292 290 291 284 286 278 277 282 282 281 288 292 294 295 298 300 301 302 304 312 322 324 324 325 326 326 324 324 325 325 324 325 325 326 325 324 326 327 327
288 286 287 291 287 286 288 286 287 287 284 280 279 280 290 291 292 295 296 299 300 300 301 303 310 321 322 324 324 324 325 324 324 325 324 324 324 324 324 323 325 325 325 326
291 287 284 285 291 293 291 289 288 285 283 286 283 281 295 295 295 297 297 299 300 301 302 305 309 318 319 319 320 320 322 323 324 325 324 324 323 322 322 323 324 325 325 325
293 287 282 285 289 292 289 291 290 289 290 284 281 283 295 295 296 297 297 298 299 300 302 303 305 309 312 315 315 316 318 320 321 323 323 321 321 322 320 319 320 321 321 320
295 288 285 281 284 288 286 289 290 288 285 284 285 286 291 293 294 296 297 299 300 300 301 302 304 305 307 309 313 312 314 317 318 318 318 318 318 317 316 316 316 316 316 316
294 285 287 289 290 290 289 289 290 287 289 285 286 287 291 294 295 295 297 298 297 298 299 301 303 304 306 307 310 311 311 313 315 315 315 314 314 314 312 311 312 312 313 312
294 287 288 286 290 290 287 290 290 290 291 290 290 289 295 297 297 296 296 296 296 297 299 301 302 304 305 305 306 308 309 310 313 312 310 310 310 310 309 308 307 307 305 304
291 289 287 283 288 287 284 287 289 291 292 292 287 291 296 294 295 295 296 297 296 297 299 300 301 303 305 306 306 305 307 309 308 307 306 306 307 306 306 306 305 305 304 303
290 289 288 285 286 279 287 294 294 292 292 294 293 294 295 295 297 297 298 297 297 298 299 301 302 303 305 306 306 306 306 305 306 305 305 306 305 304 304 303 302 301 301 301
293 290 286 284 283 285 287 291 291 290 289 294 293 295 295 296 299 296 298 299 298 300 300 301 303 304 305 305 306 306 305 305 304 303 303 303 302 301 301 300 300 300 299 299
291 291 288 286 280 279 287 292 295 295 285 295 296 295 295 297 291 293 298 298 299 300 300 301 303 305 305 305 306 305 304 304 303 303 302 303 303 302 301 301 300 299 298 296
286 287 285 285 283 285 291 293 295 284 287 296 297 297 296 294 295 297 299 298 299 299 299 302 302 301 303 305 306 304 303 301 302 303 302 302 302 301 301 300 298 298 297 296
285 285 284 285 283 280 294 293 288 294 299 298 298 298 297 298 298 299 298 298 298 298 298 300 299 298 299 301 304 300 299 302 302 302 301 301 301 300 299 298 297 297 296 296
285 288 287 287 286 293 295 295 297 298 298 298 299 299 299 298 298 299 298 298 298 298 298 299 298 296 295 295 295 294 294 298 300 301 301 300 300 299 299 298 297 297 297 297
290 291 289 289 291 293 295 297 298 299 299 300 300 300 300 298 299 298 298 298 297 297 297 298 297 296 294 294 293 292 293 297 296 295 296 296 298 299 299 298 298 298 297 297
291 291 290 289 292 293 295 297 298 298 299 299 300 301 299 300 299 299 298 297 296 296 296 297 296 295 294 295 294 295 295 295 294 294 293 293 293 294 293 293 294 295 297 296
292 291 289 289 294 295 295 297 298 297 296 297 298 298 300 301 300 300 298 297 296 295 295 295 295 295 294 293 293 293 294 294 295 294 294 293 293 293 291 291 292 294 295 295